GFSGBSN_250_spd_000.txt.gz
Wind_Speed
55 53 52 50 48 50 54 54 53 47 44 52 58 72 80 78 71 71 73 71 70 63 61 57 56 53 54 54 53 49 56 52 48 49 52 52 51 53 53 50 51 50 56 58 63 66 72
55 54 50 50 47 47 52 51 48 42 40 45 54 65 76 78 73 70 69 69 69 66 62 61 59 60 61 59 57 54 57 61 55 50 51 53 56 51 50 51 51 53 57 60 66 70 69
53 52 50 49 46 46 50 52 48 42 37 42 50 59 72 73 69 72 71 66 69 68 66 61 62 62 67 66 63 59 61 67 61 58 56 53 52 52 51 53 52 52 54 60 64 72 74
50 49 48 49 46 45 48 50 51 45 37 38 46 56 65 68 69 65 67 67 70 70 67 66 63 62 67 66 63 58 56 64 60 61 62 56 52 52 51 53 53 53 54 56 60 66 77
46 45 46 46 45 45 48 50 52 50 43 37 41 51 60 68 70 71 69 65 67 69 68 66 70 68 68 70 65 60 63 63 58 62 63 60 55 53 53 53 54 52 52 55 55 60 67
42 41 43 43 43 43 46 50 52 54 52 46 42 43 53 63 69 75 78 75 77 75 70 70 70 71 70 70 70 68 67 71 65 62 65 63 57 54 55 57 54 50 52 56 56 58 63
44 39 38 39 40 43 45 48 54 57 58 54 51 45 46 50 60 70 78 79 77 74 73 73 70 71 68 71 71 73 74 73 69 64 65 66 60 57 62 64 61 57 51 49 53 57 63
42 43 42 43 44 43 45 49 54 57 60 62 58 54 51 48 50 53 60 67 73 80 78 78 78 79 78 75 76 78 76 75 74 72 69 68 63 65 66 65 64 61 53 49 56 61 61
49 51 51 50 50 51 52 51 55 58 60 61 64 62 58 54 49 51 54 55 55 57 63 71 76 80 86 87 88 89 84 80 83 75 74 74 70 70 70 70 68 64 58 59 62 70 66
56 59 59 60 61 60 57 59 57 58 59 62 64 66 65 60 55 55 54 51 50 52 53 55 60 66 73 79 80 90 87 82 75 74 76 72 74 75 74 73 75 67 67 69 69 71 66
60 59 64 67 69 69 69 66 64 64 58 65 60 64 63 66 61 59 56 54 52 52 47 47 55 66 68 70 71 77 79 79 78 79 79 77 76 79 76 80 81 70 76 73 73 72 75
66 65 68 70 67 68 68 72 73 72 66 69 64 62 63 64 66 60 55 52 52 52 46 49 56 60 62 63 65 68 71 76 77 78 78 80 79 83 85 87 83 82 81 78 77 79 71
70 73 65 56 53 53 55 58 64 70 74 76 71 68 66 65 68 60 59 56 51 49 51 52 54 55 56 57 59 62 70 75 78 81 82 83 87 86 87 86 83 85 87 85 81 74 52
77 66 57 51 45 43 44 48 55 59 70 77 72 77 73 71 66 64 60 57 53 54 54 51 52 50 48 51 54 63 67 74 78 82 81 81 81 81 83 82 82 86 88 81 69 62 63
74 60 50 44 40 38 38 39 44 52 61 63 72 71 77 77 71 65 59 53 54 54 48 50 46 38 41 47 57 61 66 71 71 73 67 58 54 54 50 50 56 59 53 66 62 58 61
64 55 46 41 37 33 33 35 37 45 53 54 59 69 71 80 77 69 59 59 53 48 44 44 34 32 40 48 55 58 60 58 48 40 36 31 32 32 30 30 29 35 45 38 38 44 44
60 51 44 39 33 28 27 29 32 40 46 52 55 63 65 70 73 61 61 58 46 40 39 32 25 30 40 46 48 41 30 27 21 16 14 13 13 11 14 20 26 27 30 37 51 52 49
60 52 46 37 27 21 20 22 27 32 31 41 46 54 48 42 52 52 55 42 37 34 32 23 22 29 37 37 27 23 18 12 8 5 5 5 11 17 20 22 29 39 52 57 56 55 54
57 53 45 33 22 12 13 18 22 23 28 39 45 41 37 40 44 47 44 37 33 36 25 17 20 26 27 20 21 10 6 12 21 29 25 25 33 40 40 43 47 50 55 61 66 60 56
57 53 43 28 19 9 12 18 22 27 37 42 44 34 31 38 45 45 38 38 41 31 21 15 15 19 9 5 12 49 47 54 53 46 52 53 54 58 62 58 65 61 57 44 57 49 54
56 52 40 27 17 9 13 18 22 28 34 39 37 30 38 40 45 43 44 46 38 28 21 15 12 13 12 8 20 41 46 56 61 55 49 57 59 50 56 58 46 41 35 34 35 39 35
55 50 37 25 16 11 14 19 24 30 35 36 36 42 47 47 44 52 52 45 34 26 19 16 13 8 15 28 16 48 43 49 53 51 55 60 61 57 47 53 49 39 33 31 28 37 48
52 48 36 23 15 12 13 16 21 27 29 29 38 46 48 49 56 56 49 39 33 30 22 17 15 9 15 17 21 31 39 44 43 49 49 47 53 53 44 42 44 36 37 33 21 29 52
50 43 32 20 16 12 14 18 19 21 29 38 44 45 49 59 60 53 46 41 36 28 23 18 16 13 19 18 21 30 41 33 45 49 50 45 49 55 47 41 46 44 43 38 41 41 46
49 41 30 18 14 14 15 18 21 28 36 43 47 54 62 63 57 50 44 38 32 28 24 19 19 16 22 23 30 23 27 32 37 53 50 49 48 47 51 45 45 54 51 49 45 39 41
48 39 29 17 10 16 16 19 24 30 37 46 54 62 68 63 56 51 45 40 34 30 25 21 21 18 22 26 32 29 33 34 22 26 43 45 48 49 50 47 53 51 49 47 42 26 33
46 36 26 15 9 12 19 22 28 31 37 49 61 67 66 62 55 49 43 41 36 32 29 25 26 23 20 20 24 30 34 42 30 35 25 35 47 45 43 43 37 40 39 28 36 26 31
42 35 22 14 10 11 22 26 32 34 43 55 66 69 67 62 57 50 44 42 37 32 30 27 26 24 22 22 22 24 22 20 19 22 16 23 35 41 33 33 39 33 24 27 21 32 32
41 33 21 11 12 15 24 30 35 39 50 62 71 69 66 62 56 49 46 47 41 35 30 29 27 26 23 20 21 22 20 18 17 19 19 19 28 33 33 30 28 28 30 31 31 30 36

GFSGBSN_250_spd_003.txt.gz
Wind_Speed
53 53 50 49 48 50 52 52 51 50 50 52 56 59 60 62 65 73 78 85 82 79 78 77 75 72 69 68 62 58 55 55 50 52 52 48 44 42 44 45 50 47 52 54 56 57 59
50 51 51 49 49 51 50 50 50 49 49 51 55 52 52 52 58 65 72 77 77 75 75 75 75 73 69 65 60 61 61 58 54 53 52 53 55 48 47 47 48 51 49 52 53 56 59
50 48 48 50 49 49 47 48 49 48 47 51 54 49 46 48 57 64 71 74 74 72 71 74 74 75 73 66 66 65 63 62 61 59 58 59 61 58 53 53 49 49 53 53 51 55 58
49 49 44 44 45 45 45 46 47 47 46 48 51 50 46 45 55 64 73 74 72 73 69 70 73 73 72 69 68 66 63 66 63 64 61 60 61 59 53 57 53 49 50 52 53 56 58
46 46 44 40 41 43 43 45 45 46 46 48 48 49 47 42 52 64 73 78 75 74 74 69 69 69 71 72 71 71 67 66 68 65 65 66 67 60 58 56 55 51 50 54 54 58 58
52 41 38 37 37 37 40 43 41 45 47 49 48 49 47 43 46 59 68 75 78 71 72 72 73 74 76 74 72 71 70 71 71 70 70 70 67 64 59 64 57 58 53 55 54 56 55
54 46 41 37 38 39 38 37 40 43 48 52 52 51 50 48 43 49 62 68 76 78 75 74 68 70 70 71 73 73 76 80 76 75 74 72 69 66 70 70 67 60 57 55 55 56 58
53 47 45 46 44 41 44 43 43 45 47 52 55 56 54 52 50 45 49 65 72 71 74 77 75 73 74 75 77 77 78 78 79 82 82 75 73 75 74 72 69 65 63 60 60 60 58
55 50 47 48 53 56 57 52 51 50 49 52 55 57 60 58 54 47 49 51 58 69 76 78 79 79 84 82 79 80 81 80 83 83 84 85 81 79 75 78 76 72 72 69 65 66 62
56 49 48 52 57 60 65 69 66 58 59 55 57 57 59 62 61 54 55 53 48 51 51 63 62 63 68 72 76 85 87 88 88 90 89 87 89 90 88 85 83 80 80 77 71 68 63
67 60 59 61 68 70 69 70 73 74 66 63 60 61 59 56 60 65 67 54 50 49 44 45 47 50 52 55 57 63 70 73 76 80 83 83 86 91 86 90 90 80 80 77 75 71 67
76 71 75 70 61 55 52 50 57 69 72 70 68 62 64 58 55 62 63 61 58 53 42 41 43 46 48 51 56 61 65 69 76 79 79 80 79 81 85 87 87 84 83 83 80 77 62
83 77 74 63 55 48 45 44 45 51 58 67 71 65 62 57 60 62 57 58 58 51 48 45 45 47 50 53 55 59 66 73 77 76 73 73 72 76 79 84 85 86 88 88 86 79 61
88 83 69 58 50 43 40 39 38 42 47 55 63 67 63 70 65 59 53 53 51 49 50 46 44 46 51 50 55 61 69 74 73 71 71 71 72 75 77 79 82 81 85 83 86 78 76
89 82 67 55 48 42 38 36 35 36 42 48 52 65 71 75 61 59 57 50 49 52 48 46 45 49 52 53 56 64 67 66 65 68 72 73 72 77 79 82 83 85 85 91 89 83 83
89 79 65 54 49 42 36 32 31 33 38 43 50 61 72 73 67 66 59 53 53 48 45 44 46 46 47 51 55 54 56 58 60 55 55 56 55 59 64 68 74 79 78 75 72 72 68
89 78 65 55 48 41 32 25 24 28 34 38 44 51 59 64 67 69 62 62 57 48 44 44 44 44 45 45 41 44 45 45 40 40 34 28 27 32 37 41 45 46 44 45 50 52 50
86 77 64 56 46 37 27 20 15 18 24 30 35 44 51 46 54 64 66 65 54 51 46 44 43 41 38 30 33 33 28 26 27 31 27 14 13 17 20 20 24 26 29 29 35 43 44
84 74 63 54 43 30 19 13 9 13 17 25 31 39 44 49 51 63 71 64 59 55 48 44 40 32 25 23 23 16 8 20 11 10 6 2 6 9 11 14 6 14 18 20 26 36 43
80 71 60 52 40 22 11 7 12 15 20 26 27 28 31 41 46 55 60 66 63 55 49 40 31 23 16 13 2 24 20 9 16 25 33 34 31 32 34 37 32 12 16 25 30 34 38
77 68 59 50 36 18 7 6 9 16 21 22 23 25 28 35 40 45 52 56 50 46 42 36 30 12 16 23 31 29 22 25 35 37 42 45 42 39 40 44 39 39 29 29 41 45 48
76 66 58 49 33 16 5 5 10 13 16 19 24 32 38 40 39 44 45 48 46 46 43 37 23 30 26 23 31 34 36 29 31 41 42 40 37 40 31 30 32 35 47 44 49 51 48
74 63 58 48 34 17 7 6 7 9 15 20 30 37 42 42 40 44 49 48 51 51 45 32 24 30 22 22 34 30 24 35 32 40 37 35 37 34 28 27 27 28 43 47 39 38 47
72 62 55 47 33 18 10 5 4 6 11 15 28 34 37 41 44 47 51 54 54 48 39 31 26 27 26 30 38 32 25 20 36 38 37 34 36 34 32 32 32 21 20 18 34 28 22
69 62 52 43 32 16 8 5 5 8 11 21 26 29 37 43 45 52 57 56 50 45 37 32 29 31 32 31 27 36 25 26 35 39 38 38 34 36 32 29 17 24 25 26 20 18 29
66 58 52 42 30 16 7 7 7 13 19 25 26 34 41 46 53 59 58 54 49 42 37 33 29 32 35 30 32 24 28 24 24 35 33 31 29 32 31 29 24 13 27 32 27 18 10
63 55 50 41 28 16 9 8 10 16 23 25 29 39 48 54 61 62 57 52 46 40 35 33 28 29 34 34 38 34 31 28 26 31 23 29 27 25 28 26 29 29 25 26 20 7 4
60 53 47 40 27 16 11 11 13 17 24 26 34 44 52 60 65 61 55 50 46 41 34 30 27 24 24 26 37 36 32 30 28 36 23 28 27 26 27 28 31 23 23 24 20 16 9
58 51 44 39 28 17 13 15 16 20 25 28 40 47 54 64 63 58 53 49 46 41 34 30 27 25 25 24 21 23 24 27 32 34 34 28 32 28 29 23 20 20 27 28 25 25 18

GFSGBSN_250_spd_006.txt.gz
Wind_Speed
48 50 47 46 45 47 48 52 53 53 57 56 55 55 54 52 54 60 66 72 71 71 73 75 75 77 78 77 78 76 71 68 65 62 58 57 54 46 44 46 50 46 51 50 53 57 58
54 52 50 49 47 47 48 47 52 52 54 54 52 53 52 51 51 56 60 63 65 67 71 74 76 78 78 79 75 77 75 73 69 65 64 59 54 53 51 52 47 47 49 49 53 55 58
55 55 55 48 46 46 46 46 48 49 48 50 50 51 51 50 52 53 56 58 64 70 75 79 80 79 80 77 76 79 76 73 73 69 65 58 59 59 59 58 55 55 52 50 53 57 60
61 56 52 50 48 42 42 41 41 43 44 46 48 49 51 51 54 53 54 57 64 73 81 85 85 84 83 79 79 78 76 75 73 72 65 61 61 64 59 65 63 59 58 59 60 59 56
67 61 55 46 44 43 38 37 39 40 42 43 46 46 50 52 55 55 54 51 51 58 67 76 82 82 81 79 77 77 77 75 73 74 71 67 69 65 66 66 67 65 59 60 60 60 60
71 66 61 52 45 42 43 39 37 40 42 40 43 46 49 54 53 51 50 47 45 54 64 73 76 77 76 75 75 76 75 75 74 74 73 72 70 67 67 74 71 71 68 65 64 61 59
73 66 56 51 51 51 42 45 43 40 41 42 41 43 48 53 52 49 46 44 43 52 66 73 75 74 74 73 72 71 70 73 77 75 74 75 75 70 74 78 75 74 73 65 65 66 63
78 68 56 51 54 59 57 58 53 52 46 45 44 43 45 53 52 49 43 43 41 51 66 73 76 75 75 73 69 67 68 70 71 75 79 80 78 79 79 80 81 83 83 73 70 73 69
85 76 65 58 56 61 68 71 67 64 58 51 50 49 46 47 56 51 46 43 39 45 61 70 75 75 76 74 73 74 77 75 76 78 83 83 83 85 89 89 86 84 82 82 78 76 73
92 86 77 74 72 72 70 67 66 70 75 65 56 56 52 50 53 55 50 46 44 41 44 63 73 76 76 76 74 75 76 77 77 79 83 84 87 90 91 89 87 85 86 88 88 85 79
98 92 86 83 79 71 62 57 55 53 56 72 66 60 62 58 50 52 60 57 49 42 36 45 52 64 66 71 69 75 75 78 81 83 83 82 82 86 85 89 90 87 93 95 97 93 87
101 97 91 86 78 66 56 49 46 44 43 51 61 65 67 63 51 53 64 59 51 47 38 35 40 46 54 57 61 67 72 72 70 67 64 68 72 73 77 82 82 83 87 89 89 90 82
104 100 94 88 75 62 53 45 40 39 37 40 46 57 67 65 57 58 59 57 56 51 43 38 39 39 38 39 43 46 49 52 57 62 66 70 76 79 81 85 86 84 84 83 80 79 62
107 103 96 88 75 61 53 44 36 31 31 35 40 46 56 67 65 59 56 52 52 53 52 46 42 40 39 38 41 44 46 52 58 62 69 78 80 82 80 78 76 71 71 69 69 66 65
109 105 98 87 75 63 54 42 31 24 25 30 34 39 43 64 65 63 57 50 44 50 50 50 47 43 40 41 40 43 49 54 57 64 74 79 76 70 74 74 74 66 68 71 68 65 62
110 106 99 87 73 63 54 42 28 19 19 25 28 33 37 62 69 67 60 52 48 45 46 44 43 42 41 39 41 44 49 50 59 64 68 72 66 51 43 50 58 59 63 67 66 64 59
111 104 97 86 73 63 51 40 24 15 14 20 26 28 38 55 65 73 56 53 49 45 40 37 38 37 35 36 40 43 43 52 53 57 51 50 51 51 42 36 39 41 42 46 51 52 55
111 104 97 85 72 60 48 36 19 8 12 20 23 29 38 54 66 67 58 57 53 44 40 37 32 33 31 36 39 38 43 43 30 23 23 34 45 42 39 33 26 26 27 27 29 37 39
111 103 96 82 70 57 44 29 16 3 11 17 19 30 37 51 62 59 60 61 52 45 43 39 35 33 34 36 33 34 20 7 10 4 11 15 25 23 21 14 15 13 3 7 14 20 24
110 102 95 81 67 54 41 24 12 4 12 18 19 19 25 35 46 54 59 60 54 51 46 40 37 36 36 34 27 15 19 11 8 3 8 12 14 15 16 24 17 13 14 6 10 16 20
109 102 92 78 65 52 38 22 13 9 8 14 21 22 25 26 37 41 52 56 55 53 48 43 40 38 34 28 25 21 21 16 14 8 5 9 19 25 28 29 25 20 18 11 4 4 11
107 102 90 77 63 48 36 21 11 11 3 10 17 26 32 34 36 43 53 58 57 53 48 46 42 38 32 28 28 30 23 23 15 8 10 11 21 25 31 30 29 26 19 17 12 16 21
104 99 91 75 60 48 33 17 11 8 2 11 20 24 26 27 32 41 52 59 59 55 52 49 43 38 33 30 30 28 26 25 18 9 10 11 20 22 23 26 22 31 28 26 22 26 24
100 95 91 77 59 47 34 19 8 4 2 10 16 20 25 31 37 40 42 49 56 56 54 53 45 37 36 38 24 28 30 24 16 11 11 6 22 18 15 18 21 18 16 27 25 28 24
96 92 86 78 59 48 35 19 7 2 3 7 14 20 29 32 31 33 42 44 47 46 49 45 42 41 43 34 29 32 35 23 20 13 14 16 10 17 15 24 18 21 12 18 15 25 25
92 87 81 78 60 47 36 22 12 5 7 12 14 20 24 28 33 36 42 45 48 50 49 47 47 44 41 37 29 37 31 25 18 19 21 21 15 21 11 13 12 21 14 15 11 4 10
88 84 77 69 60 47 37 25 13 8 8 13 17 22 27 30 36 41 45 47 49 50 51 48 47 45 39 34 31 40 29 24 21 18 23 22 21 17 18 14 11 16 12 3 7 13 9
84 80 74 66 55 46 36 27 18 11 9 13 20 23 29 37 40 44 46 50 52 52 49 43 43 39 37 35 33 34 30 33 31 24 19 18 16 20 17 18 14 16 10 10 9 9 10
81 77 71 65 51 43 33 27 20 16 13 14 17 26 32 38 42 46 48 53 54 52 46 39 40 40 38 36 39 32 29 30 31 25 28 27 26 20 21 21 19 16 18 16 18 21 22

GFSGBSN_250_spd_009.txt.gz
Wind_Speed
69 61 54 46 44 41 39 39 44 49 53 57 59 64 67 69 68 65 64 63 64 69 72 82 84 82 76 76 79 83 78 75 73 71 68 62 59 57 54 51 44 42 48 47 54 56 58
74 64 56 51 47 43 40 38 40 44 50 54 58 59 64 65 65 64 62 61 60 63 70 76 84 81 75 75 73 77 78 80 80 77 75 69 67 62 59 57 52 51 49 51 47 52 56
80 71 64 57 52 47 41 38 38 41 45 50 52 56 60 60 61 60 62 59 59 61 65 72 83 82 79 74 75 76 75 75 75 73 74 71 71 68 64 61 58 56 55 56 58 58 48
86 78 68 61 56 49 41 40 39 41 42 46 47 48 52 56 56 58 59 57 57 59 61 69 78 80 80 75 76 77 77 77 76 75 74 72 73 72 69 67 64 61 60 62 63 59 56
92 86 77 68 61 52 44 43 42 42 43 46 48 47 47 50 51 55 56 56 55 56 55 63 73 77 76 75 75 76 78 77 78 78 76 73 74 73 70 71 70 68 63 64 64 66 64
95 91 85 76 70 59 53 51 49 51 49 48 49 51 48 47 48 53 54 56 54 53 52 56 63 68 70 72 75 77 78 77 76 75 74 73 72 72 72 76 75 70 67 67 67 71 70
96 92 89 81 71 60 56 61 64 62 63 59 53 53 52 48 46 51 52 54 56 56 59 59 60 62 71 75 77 79 79 79 77 77 75 74 73 75 78 77 77 76 74 73 72 74 75
101 94 90 82 76 69 67 68 65 58 56 63 62 57 58 52 49 49 49 56 60 58 60 57 57 61 70 80 85 85 81 80 79 78 76 76 76 78 79 79 79 80 77 78 79 80 82
105 99 92 85 79 75 72 65 59 54 47 49 55 58 61 58 52 44 47 58 58 57 54 51 50 51 60 67 75 81 82 81 78 75 75 75 75 78 77 77 81 83 84 84 85 87 84
106 100 94 88 81 78 70 63 55 47 41 40 43 47 60 61 54 45 46 55 59 55 49 47 41 44 52 61 67 73 75 75 73 73 72 72 77 77 77 79 85 85 88 92 92 91 87
108 103 97 89 82 79 70 61 53 45 38 35 35 39 52 62 55 46 45 55 60 56 45 43 33 41 52 57 65 67 69 69 70 72 73 73 76 78 80 87 92 94 94 95 96 95 92
112 106 100 92 84 79 70 62 54 42 34 33 30 33 41 61 56 50 48 54 55 52 41 36 32 38 45 53 63 64 65 67 69 70 73 76 76 80 85 90 92 93 94 91 87 81 70
114 107 102 94 88 81 71 65 53 37 30 27 28 28 35 54 61 56 55 52 46 48 41 35 32 33 40 51 60 63 64 65 68 70 72 73 76 77 81 83 84 83 84 80 82 83 74
115 110 103 97 91 83 73 68 51 34 25 24 22 26 34 49 66 63 58 50 42 47 45 39 34 31 32 38 48 52 57 63 60 58 59 63 61 66 72 79 83 88 85 83 87 86 79
116 111 104 101 91 82 74 65 48 33 20 16 18 24 33 41 62 64 57 45 40 46 49 43 39 33 30 29 31 35 41 42 43 42 45 49 57 66 76 80 85 86 80 74 79 75 71
116 112 105 100 90 81 74 61 47 33 19 10 17 24 29 36 53 63 58 44 40 43 52 48 44 39 34 31 31 33 36 37 37 39 43 51 59 70 73 69 61 55 53 59 67 60 61
116 110 103 100 90 80 72 57 46 35 22 5 13 20 26 35 46 59 56 45 45 44 45 50 48 44 38 36 36 36 35 32 34 37 45 56 62 59 53 58 59 49 42 39 45 47 45
115 110 102 97 88 79 69 54 44 34 20 4 10 19 25 34 40 47 54 53 49 45 43 46 49 45 41 38 37 34 29 28 34 39 47 44 42 41 48 47 36 46 39 31 28 31 33
115 110 102 96 86 78 67 50 38 26 18 4 13 21 25 30 35 51 58 57 52 45 38 38 39 38 37 37 34 28 24 30 32 31 23 27 29 30 35 27 15 11 12 12 9 10 16
114 110 102 95 85 76 65 49 35 24 18 4 13 15 20 25 30 52 61 57 51 45 40 35 34 36 36 33 28 22 27 25 21 21 23 22 21 27 22 27 38 35 33 21 18 6 5
112 109 102 95 87 77 66 50 36 25 15 2 15 21 26 26 38 51 59 57 50 47 44 39 37 35 33 30 24 24 22 25 20 24 28 18 16 21 20 34 42 42 40 36 35 28 13
109 108 100 95 88 77 65 50 36 23 11 7 12 19 20 22 28 40 52 56 53 50 46 43 38 36 33 28 26 23 22 23 24 23 16 9 7 19 23 35 42 45 48 44 37 27 17
104 104 99 92 86 79 66 54 37 26 11 4 5 17 22 24 25 35 49 58 55 52 49 44 42 40 33 31 26 23 23 23 21 27 15 11 5 16 19 22 28 33 37 42 42 38 33
99 98 97 92 85 78 66 55 38 26 15 5 2 13 23 32 35 36 49 59 58 53 49 46 43 39 36 33 26 26 25 24 24 23 14 7 10 7 15 19 18 22 29 35 42 42 38
96 92 91 90 84 76 67 55 40 27 18 7 4 10 19 28 35 41 51 57 58 56 53 47 45 41 38 33 28 29 24 27 33 22 11 2 12 14 11 21 25 25 19 24 27 31 34
91 87 86 86 81 72 66 53 38 25 17 10 5 9 17 26 32 39 45 55 59 58 54 52 47 43 39 34 30 30 26 28 28 19 11 7 8 11 9 15 15 21 24 19 22 17 18
86 83 82 81 78 69 64 52 40 28 18 12 8 11 14 20 28 35 42 48 54 58 56 53 49 46 42 36 33 30 26 27 32 19 20 11 8 8 5 9 7 11 15 17 19 22 14
82 77 77 77 75 66 61 52 40 28 18 14 9 12 13 17 23 32 38 44 48 51 52 51 51 47 42 38 39 28 26 23 29 23 22 21 15 12 8 2 1 2 7 11 12 16 17
79 73 73 72 71 63 60 50 38 29 20 14 13 11 12 15 21 28 35 40 43 46 50 52 47 46 42 38 38 27 28 31 28 31 23 22 24 16 13 11 10 10 8 9 11 13 13

GFSGBSN_250_spd_012.txt.gz
Wind_Speed
94 88 80 68 59 49 47 44 39 38 40 42 45 51 55 59 63 67 75 76 79 77 75 72 73 72 79 87 88 89 86 86 82 78 77 74 70 66 62 59 53 54 55 49 44 47 47
101 92 86 75 64 55 51 45 41 38 38 41 43 45 50 57 60 62 66 74 76 78 77 77 75 76 77 84 91 89 86 85 84 80 79 75 72 69 67 63 59 56 55 55 52 50 49
104 95 89 81 72 60 57 48 42 39 39 41 41 46 47 52 59 64 66 70 73 75 75 77 74 72 76 82 89 90 89 86 84 82 81 78 74 72 72 68 64 59 59 59 60 58 51
106 99 92 85 78 67 64 53 44 40 42 43 44 45 48 51 52 57 63 67 69 71 71 71 70 71 74 77 84 90 87 86 82 80 80 81 79 75 74 72 73 71 68 67 66 62 56
107 101 95 89 80 73 67 60 54 52 52 52 51 52 51 52 53 53 57 62 63 66 67 66 69 68 69 74 79 87 88 85 81 80 78 77 79 79 78 78 75 75 72 71 70 67 64
110 103 96 90 80 72 69 58 55 58 63 62 62 56 58 56 55 53 53 55 56 58 59 66 68 66 66 71 76 85 87 83 82 79 77 76 76 76 79 78 76 74 73 72 72 73 71
112 106 101 96 86 77 70 62 60 58 57 58 54 56 53 60 59 55 53 46 47 52 59 66 65 64 65 68 72 80 85 84 79 77 77 75 73 78 78 77 77 77 76 75 76 77 75
115 110 105 100 90 81 73 67 60 53 48 47 45 50 49 52 62 57 49 41 51 58 58 59 61 61 60 63 68 75 81 83 81 79 77 77 77 78 79 79 79 78 79 79 79 81 79
117 115 108 104 95 86 79 68 58 49 44 41 40 41 41 45 59 58 48 47 53 56 55 58 59 57 56 58 64 73 77 80 79 78 77 76 77 79 80 79 79 79 78 81 80 79 81
119 117 110 107 97 91 81 69 57 50 42 36 32 34 34 38 54 58 51 52 51 56 56 58 57 57 54 55 56 61 67 73 75 74 75 77 78 78 78 79 79 78 80 80 83 86 88
120 119 112 108 100 93 80 68 59 48 40 33 27 27 29 36 48 57 53 55 54 58 57 57 55 55 56 53 56 58 61 68 74 77 78 77 77 77 77 78 78 80 84 87 91 94 93
121 118 111 109 101 91 80 71 59 46 40 31 22 19 25 34 44 58 60 59 55 51 51 51 54 52 55 51 54 58 61 65 71 75 79 80 79 77 77 79 81 82 83 88 92 96 93
120 117 111 108 100 91 80 72 58 44 38 28 16 14 26 33 47 60 64 57 45 44 48 50 51 50 48 49 49 48 49 50 55 59 65 67 67 68 71 73 74 77 84 88 89 95 93
120 116 109 106 99 90 79 70 56 45 35 26 12 13 29 36 46 56 58 49 41 44 48 49 50 45 42 39 38 36 38 43 47 45 45 49 56 62 67 70 75 78 82 87 89 87 90
120 116 107 105 98 87 77 69 55 46 35 23 9 12 25 30 43 47 51 44 39 44 49 49 47 40 38 31 32 32 35 37 37 41 45 51 56 61 67 68 67 68 73 83 89 90 90
120 115 107 102 95 85 74 66 53 46 37 23 7 7 20 27 34 46 51 46 41 44 50 49 44 38 33 29 27 27 27 31 35 38 41 47 50 51 51 56 61 69 72 76 77 73 71
120 114 107 99 91 81 73 64 50 43 37 22 7 5 16 21 33 49 51 46 42 45 49 47 45 38 33 28 26 24 24 24 26 27 29 33 38 44 48 53 51 54 57 56 54 54 46
117 112 106 99 91 80 70 63 48 42 34 20 6 7 16 22 33 49 50 49 44 44 51 48 43 38 33 30 27 25 23 25 24 25 28 31 35 40 38 37 35 28 31 24 36 48 45
115 110 105 100 91 81 73 63 51 42 32 19 9 5 20 28 39 52 53 47 45 45 49 51 44 39 36 31 28 25 23 24 23 25 25 29 33 28 29 28 25 25 31 24 14 20 29
111 106 102 99 90 80 73 64 52 41 33 20 9 6 22 33 47 60 57 51 48 42 41 46 45 41 38 35 30 26 25 24 23 20 23 25 25 24 18 15 30 28 35 37 30 22 18
106 102 99 96 88 79 71 63 53 41 33 20 8 2 22 30 42 53 56 54 49 43 40 41 45 44 41 37 32 27 26 24 18 20 20 19 13 17 12 18 26 35 41 44 40 32 26
102 98 95 94 88 77 68 60 51 40 31 18 8 4 15 29 44 57 58 55 47 42 38 36 35 38 38 35 31 27 27 19 17 17 18 16 12 6 8 11 20 29 39 44 45 43 33
98 94 92 91 87 76 67 61 51 39 31 21 10 5 14 28 43 55 61 58 52 46 43 37 35 36 35 34 30 28 24 16 16 19 15 13 10 4 5 10 16 24 29 37 43 46 47
93 90 87 87 84 77 67 61 52 40 26 19 13 3 12 21 35 50 58 56 53 47 45 41 39 36 34 32 30 29 20 16 16 20 18 13 4 15 9 12 12 16 29 33 37 40 45
87 86 83 82 80 74 66 57 53 44 32 21 13 5 10 21 30 41 54 56 54 51 49 46 42 39 36 32 31 29 20 15 17 22 21 14 5 2 9 18 14 18 28 31 33 34 37
82 82 80 77 77 72 66 56 51 44 34 23 16 8 8 15 28 43 52 62 59 55 52 49 46 42 39 35 33 29 20 19 23 22 20 15 9 1 5 9 14 18 20 25 28 31 27
77 78 77 73 73 69 64 56 49 45 36 25 17 12 9 15 23 36 49 59 62 60 56 52 48 44 40 37 35 29 22 21 21 20 22 16 13 5 3 8 11 12 16 20 21 22 20
73 75 73 70 67 67 62 55 48 43 36 27 18 14 12 12 20 31 43 54 61 59 57 54 49 46 41 39 37 29 23 25 24 22 23 20 16 11 9 7 6 10 13 15 16 18 21
69 73 69 67 64 62 60 52 45 43 35 26 18 15 15 12 18 25 36 49 57 61 57 54 50 47 44 42 38 32 25 29 31 26 25 23 24 20 20 17 14 15 14 19 22 23 22

GFSGBSN_250_spd_015.txt.gz
Wind_Speed
99 96 93 87 81 79 74 64 56 52 45 38 39 42 45 51 59 66 72 74 79 82 80 82 85 81 79 75 81 85 85 86 87 85 81 78 77 74 71 70 67 71 69 63 63 61 62
105 104 99 91 85 80 75 69 62 53 48 44 39 41 44 47 51 59 67 73 75 78 80 82 85 87 83 78 75 82 86 85 86 86 89 83 80 77 75 71 68 70 71 67 63 60 59
106 109 105 98 92 85 80 72 67 62 51 45 45 43 45 48 48 51 57 67 71 74 77 78 83 89 87 84 81 80 82 89 91 88 87 88 87 83 78 77 75 73 73 69 67 64 58
111 112 109 99 93 88 80 73 70 65 60 56 49 50 50 51 52 50 52 55 66 70 71 75 79 82 86 87 79 79 80 83 90 92 89 87 88 86 86 83 81 78 75 73 68 68 64
115 114 112 102 98 92 85 75 70 61 60 66 67 60 57 58 57 56 53 53 60 68 71 72 74 83 83 88 87 82 77 79 80 88 92 90 88 86 84 83 80 79 76 75 72 71 67
118 116 114 107 101 96 90 81 73 65 59 58 63 67 62 60 65 64 58 57 57 61 66 71 73 77 80 84 88 86 81 80 81 82 89 91 91 88 86 86 84 81 78 77 76 76 74
121 119 116 110 104 98 93 85 75 69 61 55 54 55 58 54 56 68 66 65 59 52 50 66 74 72 79 84 84 81 74 73 77 82 86 91 90 91 88 85 84 85 83 81 82 80 78
123 122 119 113 107 104 98 90 79 71 62 55 52 50 49 49 51 60 72 72 54 50 59 62 67 70 74 75 75 72 68 68 70 73 79 87 89 88 86 85 84 84 84 82 82 83 81
125 125 120 114 110 105 99 90 79 70 60 52 47 41 40 44 48 53 68 74 60 56 56 52 55 61 65 63 65 66 66 65 65 66 72 81 88 85 84 83 81 82 82 83 84 83 83
127 125 120 114 108 105 98 89 80 69 54 47 40 35 30 36 44 49 62 73 64 57 55 50 51 57 58 56 58 60 59 59 59 65 67 74 84 82 81 81 82 81 81 81 81 83 85
129 125 120 113 107 105 97 89 81 67 52 45 35 27 22 29 37 47 56 69 69 61 58 52 48 50 53 50 51 52 52 53 57 62 64 71 78 79 81 82 80 80 81 83 85 86 84
129 126 119 111 105 102 94 87 77 63 49 42 32 21 17 25 34 44 54 68 71 65 53 44 46 47 46 45 47 48 47 48 54 58 59 65 74 78 80 80 81 81 81 83 85 86 84
129 127 118 109 103 98 92 84 72 58 46 40 28 14 13 22 34 42 53 68 71 47 41 42 44 46 44 45 45 44 45 47 49 52 56 61 67 71 74 77 78 78 79 82 84 87 85
129 126 116 108 101 94 87 80 70 55 45 38 26 12 4 16 28 38 53 60 47 40 39 39 44 44 43 42 42 43 42 43 42 46 53 55 60 65 69 72 74 78 81 85 86 90 88
129 124 113 106 100 94 83 74 65 52 44 36 25 10 3 15 25 36 43 46 43 41 40 41 44 42 40 41 43 43 44 43 45 48 51 53 58 63 66 68 68 65 63 65 68 73 80
127 120 109 103 98 91 86 78 65 50 40 35 23 10 7 12 21 33 40 41 43 42 40 41 45 43 42 42 39 39 40 40 41 41 37 35 31 29 34 36 35 44 55 62 71 75 84
122 116 105 100 95 88 82 76 64 48 38 33 21 10 8 11 24 35 42 47 45 37 37 42 43 38 36 35 31 31 32 31 28 24 25 23 24 26 27 33 38 45 52 56 65 66 69
117 110 102 96 91 83 80 74 62 47 36 29 22 12 10 12 26 39 47 47 41 37 38 41 41 37 33 29 29 27 28 26 23 20 17 19 20 21 25 33 36 34 33 30 36 46 51
110 103 98 93 87 79 76 71 61 48 36 27 26 12 10 16 28 40 44 42 38 36 39 43 41 37 29 27 28 27 27 24 20 18 18 18 20 22 27 24 22 15 17 18 25 33 35
103 98 96 92 83 75 72 69 60 47 36 30 23 11 14 19 31 39 45 41 36 35 41 43 41 37 29 28 28 27 25 22 20 19 19 18 19 13 9 7 9 19 26 30 31 35 35
96 94 94 91 83 72 67 65 60 47 36 30 23 9 8 27 35 40 41 40 36 36 40 43 41 38 32 31 29 28 25 21 20 18 17 16 13 8 10 2 4 14 20 27 35 36 40
91 90 90 88 82 72 63 62 56 47 36 28 20 4 10 22 36 40 41 41 37 38 42 44 42 36 33 32 29 27 23 20 19 18 16 13 13 9 5 3 5 12 20 23 32 41 45
85 86 86 84 79 72 63 60 57 47 35 29 17 6 8 21 35 41 44 43 40 38 41 44 43 39 33 34 31 27 23 21 19 17 13 12 9 8 8 6 1 12 16 22 33 38 40
79 80 81 80 76 69 64 56 54 49 36 25 18 6 5 18 34 45 43 43 40 38 38 39 42 42 40 36 32 29 26 23 18 17 14 16 6 12 7 6 4 14 13 17 27 37 41
76 75 75 75 70 68 64 56 51 43 38 26 19 10 4 15 28 44 47 47 45 42 39 38 40 40 41 38 34 31 28 22 19 17 18 13 7 2 10 10 5 5 11 17 18 26 36
71 73 71 70 66 62 63 58 55 49 39 29 19 13 5 13 25 42 49 54 50 46 44 41 40 39 39 36 35 31 27 24 20 19 21 18 10 6 12 8 1 8 10 15 21 25 28
68 69 67 68 62 58 61 57 56 52 43 33 25 16 14 13 22 35 50 51 54 52 48 44 41 40 39 38 34 31 28 25 23 21 22 14 11 13 10 6 5 10 13 18 21 28 35
65 66 62 62 56 52 56 59 54 53 46 36 28 20 14 15 20 26 42 54 56 54 51 50 46 44 42 39 36 32 29 25 24 24 22 18 17 17 16 13 13 16 16 20 24 26 30
61 63 60 60 51 48 49 54 55 50 48 39 30 25 19 18 20 25 35 51 56 58 57 52 50 48 45 41 37 34 31 27 25 25 26 23 19 19 17 19 20 23 24 25 27 30 33

GFSGBSN_250_spd_018.txt.gz
Wind_Speed
107 108 107 107 104 103 96 90 84 79 71 64 57 55 49 45 50 56 61 68 74 80 87 93 91 88 88 85 82 81 85 85 87 86 85 80 77 77 74 73 74 71 68 73 73 73 73
113 114 113 112 109 105 96 88 84 82 77 72 63 55 54 50 48 55 59 64 71 77 84 89 93 90 90 79 82 83 82 83 85 84 85 85 80 80 77 75 75 74 73 71 71 72 72
114 115 116 115 115 110 103 93 88 80 73 73 70 68 56 55 54 52 58 61 65 74 79 86 89 87 93 86 81 87 81 80 83 85 85 86 86 84 77 77 75 77 76 74 71 73 72
116 119 120 118 118 113 106 97 91 84 75 67 64 66 71 59 59 56 57 58 62 67 74 80 86 88 89 85 89 85 82 78 78 81 81 83 84 84 85 78 75 78 78 77 75 75 74
120 120 122 121 120 116 111 103 96 90 79 68 59 56 59 64 52 60 58 60 60 64 69 76 80 81 84 86 85 83 86 84 78 75 81 83 82 85 86 86 82 80 79 80 81 79 76
121 122 124 124 123 119 113 106 100 93 83 70 60 53 49 51 49 50 60 59 64 61 67 70 74 79 80 85 86 85 87 86 83 79 74 74 83 83 87 89 89 88 83 81 80 78 78
124 124 125 126 124 119 111 105 101 94 83 70 62 49 44 42 36 38 57 64 63 64 58 57 64 72 78 84 86 83 86 89 86 82 74 76 74 81 89 86 87 85 84 87 87 86 86
125 125 126 128 124 118 111 105 102 93 80 70 58 49 42 40 31 30 50 65 65 62 55 54 60 60 70 73 75 76 79 86 86 85 82 79 71 78 80 87 90 89 88 88 86 86 82
126 127 126 128 125 117 108 104 101 93 77 65 56 50 37 32 30 29 44 62 64 61 57 53 54 56 64 67 70 72 74 76 85 85 83 81 77 73 76 78 85 92 93 91 87 84 84
127 129 127 128 122 115 106 103 99 90 78 65 56 48 35 28 24 26 41 56 63 62 60 53 50 50 57 63 69 69 68 73 78 83 82 85 83 76 75 79 81 83 85 89 89 86 84
127 129 130 127 120 112 105 100 94 79 69 62 54 43 32 24 19 25 37 50 61 67 62 56 48 48 47 50 63 64 67 69 72 75 76 79 77 72 72 74 73 78 79 84 86 85 81
126 129 130 126 117 111 106 100 93 78 67 58 48 38 27 18 14 23 33 40 52 68 63 46 43 43 39 43 51 59 63 63 66 69 67 68 68 65 63 61 62 66 71 79 81 80 77
125 128 130 124 114 109 105 102 94 76 64 56 44 35 24 11 9 16 25 34 50 59 59 50 43 38 37 40 43 47 52 54 54 54 53 54 56 51 52 53 56 59 63 71 77 75 73
124 128 128 122 111 106 103 100 89 74 63 53 40 34 21 10 1 11 21 31 40 50 59 48 42 35 34 37 38 40 40 40 40 39 41 42 42 43 46 47 49 54 58 65 68 72 75
122 126 124 117 108 102 100 97 87 71 61 48 37 30 17 10 4 11 20 30 39 56 56 47 37 31 33 36 37 35 33 33 33 33 31 33 37 38 41 44 46 50 56 62 65 70 73
119 123 120 114 106 99 97 95 87 68 58 45 36 26 14 10 4 11 21 26 40 50 46 38 33 33 37 36 33 33 31 30 29 29 30 35 37 39 43 45 47 50 57 60 64 66 68
119 119 116 109 103 96 93 92 84 67 56 44 37 28 16 10 7 15 20 35 44 41 38 32 29 31 36 37 34 30 28 29 31 31 33 32 34 37 40 39 37 38 36 36 39 48 56
116 115 110 104 99 93 89 87 80 65 55 44 36 29 18 14 14 26 31 36 38 36 32 28 28 33 32 28 26 27 28 30 31 32 31 33 37 36 22 22 18 21 26 32 34 36 40
111 110 103 100 96 91 85 82 77 64 53 43 36 30 16 13 20 30 34 39 37 34 30 28 31 32 29 27 27 26 27 25 27 29 28 24 21 16 13 12 15 19 17 13 15 20 30
107 104 98 96 93 89 85 75 72 62 53 43 34 30 15 12 18 25 33 33 29 25 23 26 31 30 27 26 25 25 24 25 26 27 24 19 15 11 10 12 13 13 7 14 20 22 28
103 97 93 90 91 85 84 74 65 60 54 45 33 26 15 11 17 20 21 20 16 18 24 33 34 31 27 22 22 21 24 27 26 23 20 15 12 11 10 10 13 2 9 11 19 27 32
98 91 88 85 86 83 82 75 58 54 53 44 31 20 13 6 14 18 19 18 17 19 28 34 34 30 25 24 26 25 26 25 22 19 15 14 12 12 8 13 12 4 5 10 21 29 37
93 87 83 80 81 79 78 74 61 47 42 43 32 19 9 5 13 17 22 23 21 22 27 34 34 31 27 25 26 25 24 22 18 15 15 12 12 9 11 7 11 3 4 9 17 23 37
87 83 78 76 76 76 73 71 64 43 38 35 32 19 11 8 18 22 27 27 26 27 32 37 36 33 29 27 26 25 23 19 15 16 13 11 11 7 13 7 14 6 7 11 21 22 33
82 79 73 72 72 71 69 65 63 53 32 27 27 22 12 12 18 26 33 34 31 29 33 38 38 35 30 30 28 26 23 20 17 17 13 15 10 7 15 10 15 9 6 14 18 25 24
77 74 71 67 67 67 67 63 57 55 47 32 24 20 16 12 17 30 35 39 37 35 34 37 40 39 35 34 31 28 25 22 21 19 14 15 12 11 16 14 14 7 6 13 22 28 30
74 70 67 64 64 63 64 61 54 51 50 42 31 23 17 14 17 26 37 40 46 40 38 37 39 41 40 39 35 32 28 26 23 19 14 20 14 13 14 17 10 10 8 17 23 27 31
71 66 63 60 61 61 61 59 53 49 47 47 40 28 23 15 17 22 32 41 48 46 44 41 40 40 40 41 39 35 31 29 25 22 19 19 14 12 13 20 17 12 13 21 26 30 32
68 64 60 57 59 61 58 54 49 46 45 46 44 39 28 22 16 21 29 37 46 53 52 47 45 43 41 40 36 35 33 29 26 24 20 19 18 16 14 16 18 17 18 23 28 32 32

GFSGBSN_250_spd_021.txt.gz
Wind_Speed
108 110 112 109 108 107 107 105 99 92 82 76 75 77 70 59 54 46 44 51 59 70 76 80 87 90 90 85 85 84 87 88 90 88 85 81 77 77 76 78 78 76 76 76 78 77 75
111 114 112 112 112 109 108 106 99 92 86 79 75 70 70 69 55 53 47 48 56 65 75 78 84 90 91 87 87 84 82 85 87 87 87 85 84 80 78 74 73 74 73 72 76 76 73
112 114 113 115 118 112 109 106 101 97 91 85 78 70 63 60 61 50 51 46 53 60 70 79 82 89 87 93 88 85 85 82 82 85 87 88 86 84 80 78 73 70 72 73 75 78 74
113 114 115 115 119 116 113 107 102 98 92 87 79 70 62 52 51 44 48 47 49 59 65 75 82 81 94 91 94 88 87 83 79 77 83 86 88 87 84 80 76 73 73 72 78 76 75
113 116 118 117 121 116 113 108 104 101 93 85 76 65 55 46 40 36 37 48 48 55 62 70 77 79 88 94 99 92 91 87 84 82 82 82 86 84 82 81 82 76 75 76 78 76 75
114 117 118 119 122 118 113 110 107 104 96 84 77 63 49 42 35 29 27 44 49 53 60 65 69 76 80 91 100 96 93 89 87 86 79 80 78 77 78 81 84 87 81 77 77 76 72
116 120 119 120 123 119 114 111 108 105 96 88 77 62 50 41 35 31 28 39 52 55 58 51 58 70 77 85 92 98 95 93 89 85 76 75 72 70 78 81 84 85 84 83 85 81 78
115 121 122 121 121 120 114 111 108 103 90 83 74 60 51 42 32 28 29 36 47 49 48 51 58 62 73 77 82 92 98 93 87 84 75 74 75 75 72 71 75 77 85 87 89 89 82
116 119 120 122 121 120 115 111 109 104 90 83 71 60 51 39 26 19 23 32 41 45 50 53 51 60 65 70 75 83 96 94 87 86 82 81 79 75 71 67 68 72 77 81 85 89 88
115 121 121 122 121 119 116 112 109 103 91 83 68 59 48 36 22 12 19 29 38 43 51 50 52 54 55 59 65 71 80 84 81 81 90 83 78 77 76 75 72 70 67 71 78 85 87
115 120 122 123 121 119 116 112 109 102 92 80 65 57 46 34 21 8 13 26 32 38 47 49 50 47 49 51 55 59 64 78 79 78 79 81 80 79 80 77 74 72 72 73 70 75 81
115 120 121 123 121 118 116 112 108 100 90 77 64 54 42 31 21 9 6 19 25 34 43 44 43 39 40 43 47 50 54 62 69 79 80 81 79 79 79 76 75 74 73 72 67 67 70
115 118 119 122 120 116 113 111 108 99 90 77 62 48 38 28 19 10 6 14 22 29 42 45 41 37 38 38 39 46 52 55 57 60 65 69 72 72 77 77 77 76 75 68 63 64 64
116 118 119 120 119 114 111 109 105 97 89 76 60 44 36 28 16 8 11 18 20 38 41 43 41 37 33 30 32 34 42 49 53 57 61 62 63 66 70 75 74 70 67 61 57 57 54
114 116 117 119 116 111 108 107 104 94 86 73 58 42 35 24 16 9 10 18 28 40 44 43 33 30 26 24 27 30 36 41 50 55 53 55 58 61 60 56 53 54 51 46 42 41 41
114 115 116 117 114 109 105 103 101 92 85 71 55 43 33 21 16 13 18 29 34 43 42 38 35 29 25 24 25 26 31 35 38 41 44 45 45 43 43 41 40 37 36 32 34 36 43
113 113 113 114 111 106 103 100 98 89 83 71 54 42 37 23 15 11 19 29 39 45 43 37 29 23 21 22 23 26 27 28 29 30 34 33 32 34 31 27 26 25 29 33 38 44 48
110 110 111 112 108 103 100 97 96 87 81 72 53 43 39 27 15 9 21 26 32 37 36 34 26 19 15 16 19 21 27 27 27 27 26 29 28 23 21 24 29 33 35 31 28 30 35
107 107 108 108 104 100 96 93 91 88 82 73 56 45 39 32 18 14 22 31 33 31 29 27 22 18 20 24 24 26 27 26 26 27 26 24 22 22 24 26 26 23 19 18 18 17 23
103 104 105 105 99 96 91 91 83 79 77 70 59 45 40 28 23 17 19 20 23 25 23 19 17 21 26 27 26 24 24 24 25 25 26 26 22 25 24 21 18 18 15 12 10 13 21
100 102 101 99 96 91 88 85 79 71 68 61 54 42 33 26 17 15 16 16 12 11 14 16 23 27 27 26 26 26 25 25 24 24 25 23 29 26 21 18 16 14 14 10 12 12 17
99 100 99 94 90 86 84 80 74 68 62 58 47 40 27 19 12 7 10 13 12 12 14 24 28 28 27 26 23 21 21 22 23 24 27 29 24 21 19 18 16 19 15 9 9 18 22
98 99 96 90 83 81 78 76 74 64 57 47 43 34 28 14 5 3 6 8 9 14 21 28 30 28 24 20 20 19 21 24 27 29 26 22 19 19 18 17 18 18 12 12 12 14 21
98 98 93 85 79 75 73 71 72 65 56 44 38 36 26 21 8 9 13 13 10 11 24 30 30 26 22 21 22 23 26 28 26 23 20 19 18 18 19 18 23 19 13 12 13 13 20
95 95 87 79 75 71 68 67 67 67 60 49 36 27 25 20 16 11 19 22 18 16 22 30 31 29 25 24 26 27 26 23 20 19 20 19 18 13 17 19 21 19 13 12 15 18 23
91 89 81 74 70 67 65 64 62 62 59 56 47 30 24 21 18 17 17 27 26 25 24 28 35 33 30 28 27 26 25 21 18 18 21 16 18 14 17 17 21 20 14 14 13 18 24
84 82 76 71 65 63 61 62 62 61 57 52 49 46 28 23 21 17 20 26 34 33 29 30 36 37 34 32 30 28 25 23 20 20 19 20 17 13 15 19 20 19 16 17 15 20 26
79 74 71 67 63 59 58 59 59 60 58 52 51 48 43 31 23 20 21 25 32 41 38 36 38 40 38 35 34 32 29 27 23 23 20 18 21 14 17 17 20 18 18 20 18 24 29
74 71 67 64 60 58 56 56 57 57 56 55 53 51 47 44 30 24 24 24 30 36 47 43 39 40 42 41 38 36 33 30 26 26 22 19 17 15 19 20 24 22 22 17 18 24 29

GFSGBSN_250_spd_024.txt.gz
Wind_Speed
100 102 106 107 108 108 108 106 97 92 90 86 80 72 62 58 55 45 41 40 45 53 61 70 76 84 86 86 90 91 94 95 96 90 91 88 84 82 82 85 87 85 82 80 82 81 76
100 103 107 109 110 111 112 108 100 96 93 88 81 71 63 52 47 41 39 41 43 50 58 68 76 80 83 90 92 91 91 93 95 95 89 86 84 84 82 81 79 77 77 78 79 79 78
101 104 108 111 111 114 114 108 102 98 95 91 84 72 59 49 41 33 37 37 42 49 56 65 73 77 83 90 94 93 90 88 93 94 96 92 87 82 80 80 78 76 77 76 78 83 80
104 106 108 113 114 115 116 110 104 100 97 95 87 70 55 47 40 31 29 34 42 48 56 61 70 74 80 87 95 95 93 92 90 90 93 92 93 87 84 79 77 75 75 74 78 78 78
104 108 111 115 115 115 119 114 107 102 98 93 84 69 56 49 42 31 25 32 40 47 55 60 62 69 80 84 95 100 95 87 86 85 86 90 93 92 87 82 78 74 71 73 76 73 74
106 107 112 116 115 117 120 115 109 104 100 93 78 65 58 52 44 31 22 30 36 45 54 58 60 66 74 83 90 98 95 89 90 86 85 83 87 86 89 87 83 81 78 75 72 70 71
107 109 112 116 115 118 120 116 110 105 101 94 79 65 60 53 44 29 19 29 36 42 50 51 49 57 69 79 83 96 95 95 93 88 83 79 76 74 76 84 87 85 81 81 79 75 71
108 111 113 116 115 118 121 118 112 106 103 95 78 66 59 51 40 24 14 22 32 35 43 47 52 58 64 73 82 92 97 95 93 88 80 77 76 77 79 76 76 79 83 85 84 81 75
110 110 114 116 116 118 121 119 112 107 103 94 77 68 60 49 37 19 8 19 28 31 42 52 54 57 60 66 76 84 95 100 94 89 86 83 80 78 76 74 74 76 78 80 81 80 79
111 112 114 116 115 118 121 119 112 106 102 92 75 70 60 45 34 16 6 16 23 27 42 51 53 50 51 55 66 76 82 89 91 88 85 83 79 79 75 74 71 68 71 73 75 79 77
112 114 115 116 115 117 121 120 113 106 101 89 76 66 55 41 33 13 5 8 18 27 40 48 48 45 42 46 55 64 71 79 87 92 90 86 82 80 79 76 72 65 65 68 66 68 70
114 115 115 116 114 117 120 120 113 106 101 88 75 64 50 38 29 14 12 12 19 28 39 43 43 39 39 42 45 53 66 71 83 91 87 88 86 82 77 74 68 64 65 63 64 64 62
114 116 115 116 116 117 119 120 112 104 98 85 72 61 47 37 29 15 15 18 22 29 38 38 37 37 38 38 37 42 53 59 70 76 82 81 88 82 77 74 73 74 72 69 69 69 69
113 115 114 114 116 117 117 118 111 100 96 84 71 60 43 38 27 19 20 25 32 36 34 37 34 35 34 32 31 37 43 51 59 67 69 73 77 81 80 75 77 79 75 74 71 70 70
111 115 112 113 115 117 115 116 110 102 93 85 73 62 41 41 27 16 22 33 39 40 38 33 30 30 26 26 26 25 31 41 48 57 61 66 71 73 73 72 71 74 72 73 73 71 69
111 113 110 110 114 116 114 112 108 100 93 86 77 65 50 44 34 16 14 27 36 38 36 35 34 28 25 24 24 26 29 34 38 43 47 50 53 60 68 68 66 63 64 65 66 70 72
110 110 108 108 113 115 111 106 105 100 94 84 74 68 53 43 36 20 18 24 30 33 31 28 22 20 18 17 20 23 25 26 30 38 43 44 46 48 49 48 50 53 57 58 58 60 62
109 107 106 106 112 111 107 101 96 93 90 81 73 64 53 41 34 22 20 22 26 25 27 25 21 18 12 10 10 17 22 24 29 32 34 38 41 38 40 42 43 46 47 46 43 43 36
105 104 104 106 107 105 102 98 88 88 85 79 71 61 49 38 32 24 21 20 23 22 23 20 16 10 9 11 15 19 20 22 25 26 27 28 31 34 35 35 34 31 33 36 34 32 33
100 102 103 105 104 98 93 91 84 79 78 74 66 58 47 33 25 22 18 15 18 20 17 16 15 12 12 20 21 22 25 25 25 24 26 27 29 31 30 30 30 32 32 30 30 27 26
96 98 101 103 99 92 87 84 76 71 68 68 62 53 45 31 22 16 15 12 12 16 16 16 14 13 17 22 24 28 27 27 27 27 26 26 26 27 29 30 31 29 27 25 22 22 24
93 96 99 99 95 85 80 78 71 67 63 57 58 49 42 30 18 10 7 6 4 6 12 15 16 20 23 23 23 24 26 25 25 25 24 25 26 27 26 29 30 26 24 23 22 23 22
92 95 97 96 88 81 76 73 69 64 60 54 47 47 38 32 20 9 7 6 6 9 13 16 21 25 26 27 26 25 24 23 23 24 25 27 30 29 30 29 25 24 26 25 24 24 21
92 94 95 91 82 76 72 68 66 62 60 54 46 40 40 31 24 17 13 16 12 9 12 19 24 26 25 23 23 22 22 23 24 25 29 32 32 31 27 25 22 25 26 27 23 16 18
93 93 91 84 77 71 68 65 65 61 59 55 48 40 33 34 28 19 18 18 19 15 14 20 26 26 26 24 24 24 23 24 25 32 33 31 27 24 25 21 22 24 27 24 19 17 20
92 89 83 80 72 70 65 62 60 61 58 56 51 45 36 27 29 26 20 21 23 23 20 19 25 29 28 26 27 26 26 28 32 30 27 26 24 22 23 22 24 26 29 22 19 19 21
87 82 78 77 69 67 64 61 58 59 57 54 52 48 45 39 26 28 25 21 23 28 27 26 28 31 31 29 28 29 30 31 30 27 25 25 23 23 20 21 28 24 28 24 22 19 22
80 75 73 74 69 64 62 60 57 58 54 52 51 47 46 47 39 26 28 26 23 28 32 32 32 33 36 34 32 33 34 32 28 23 26 26 24 25 20 18 25 24 27 24 22 18 23
74 72 71 69 65 63 61 57 56 57 54 53 51 49 46 46 48 35 28 29 26 27 31 36 36 36 38 39 37 37 36 33 30 27 26 28 25 27 21 20 22 25 25 24 21 20 21

GFSGBSN_250_spd_027.txt.gz
Wind_Speed
98 100 103 106 105 104 103 105 106 108 99 90 86 82 72 64 56 48 46 45 47 56 64 69 72 75 82 85 93 98 103 105 103 107 106 104 101 101 99 97 96 90 90 88 90 90 84
99 100 103 105 106 106 106 108 109 111 101 94 87 82 73 58 49 40 40 39 42 54 62 69 72 74 77 82 91 98 98 103 102 103 101 102 94 96 95 94 94 93 91 90 89 87 84
99 102 103 108 107 108 107 111 111 113 104 96 90 83 71 60 47 34 33 34 38 47 61 68 71 74 73 84 85 95 95 98 101 102 103 101 99 96 90 91 91 87 91 90 91 90 85
100 102 105 108 110 110 110 114 115 116 107 98 92 82 71 56 43 30 28 29 35 42 57 66 68 69 69 85 86 95 93 94 97 100 102 100 98 94 92 86 86 84 85 84 87 88 87
102 101 105 109 114 113 112 116 118 116 108 100 93 82 67 54 39 31 26 25 34 38 53 63 65 66 76 76 82 90 94 93 97 96 97 98 98 95 91 88 83 80 76 77 84 84 82
102 105 106 111 115 115 113 117 119 116 107 102 94 85 69 53 42 35 28 22 30 36 47 59 62 65 72 72 83 88 94 95 94 94 93 95 95 96 89 85 84 80 79 79 77 75 75
103 105 108 113 117 117 114 117 121 116 108 101 97 84 69 56 43 36 27 20 25 32 41 50 57 60 69 74 82 87 93 95 93 90 88 91 91 87 92 87 86 83 80 74 77 77 73
104 108 112 116 119 119 116 117 121 116 108 101 98 83 65 52 43 35 24 17 19 26 35 48 54 59 61 67 74 80 84 94 93 88 87 84 85 86 90 94 90 83 79 79 77 76 70
106 109 115 118 119 119 117 118 120 114 105 100 94 78 64 52 41 33 21 12 17 25 33 47 54 55 56 59 67 74 81 86 93 90 88 82 80 81 88 90 87 87 85 84 81 78 73
109 113 117 120 120 119 118 117 118 112 102 95 91 74 63 49 39 30 14 3 17 26 35 46 51 52 54 55 61 69 76 80 96 95 88 86 81 80 79 82 82 82 82 82 82 81 77
112 115 118 120 121 117 118 119 118 111 99 93 88 73 60 45 36 25 8 9 17 24 34 45 49 47 45 46 52 59 65 73 79 91 90 84 84 80 79 76 73 72 73 77 80 81 79
111 115 118 120 120 117 117 120 119 111 99 91 86 73 56 40 35 22 7 12 15 21 29 41 43 37 36 38 43 50 57 68 73 84 90 84 83 80 78 73 70 69 68 68 68 69 68
112 115 117 117 116 116 115 119 120 110 98 90 85 71 55 43 30 22 15 13 14 23 32 37 36 34 33 35 37 40 47 57 63 73 90 89 83 78 74 71 67 69 68 65 63 63 62
112 115 115 114 111 114 114 116 119 110 98 89 82 71 58 46 35 22 14 19 26 31 32 35 32 29 27 28 30 36 40 49 58 67 85 84 82 80 80 77 76 73 69 68 67 65 64
111 114 112 111 109 111 112 114 114 107 95 89 81 74 60 53 37 22 9 25 30 31 31 27 24 23 23 22 22 24 33 42 49 56 61 71 81 82 80 75 76 71 69 69 68 67 65
109 112 108 109 107 108 108 111 108 102 93 85 81 75 62 54 41 26 15 29 31 31 29 28 26 22 18 19 20 21 26 32 39 45 50 54 60 68 74 84 79 73 73 76 71 68 65
107 108 105 105 104 104 105 106 100 94 88 81 74 69 61 51 40 26 21 23 24 23 22 19 16 11 11 10 11 14 19 26 32 38 43 47 54 57 60 64 67 69 71 72 74 70 67
104 105 103 100 102 101 102 101 93 85 83 78 73 64 57 47 39 27 20 21 20 19 20 18 16 14 13 9 6 9 15 21 28 31 35 42 47 50 55 57 59 60 61 61 61 61 65
101 101 101 99 101 100 99 96 89 77 77 72 67 61 54 45 35 29 17 14 18 17 15 14 12 10 8 11 14 16 18 20 22 25 33 35 38 41 42 44 43 44 47 53 58 59 51
100 98 98 98 99 99 95 89 84 74 68 67 61 57 49 42 34 25 19 9 11 13 12 10 8 5 6 9 13 17 20 23 25 26 27 30 34 38 38 39 39 38 38 40 42 38 36
96 96 97 97 98 95 88 81 79 73 61 60 58 51 46 38 29 22 15 8 1 5 7 8 8 8 9 10 16 20 19 20 21 23 24 26 29 33 35 36 34 31 34 32 28 30 30
95 96 97 96 94 89 81 76 74 71 63 56 53 49 42 35 29 21 14 9 6 6 8 9 10 12 12 13 17 19 19 19 20 22 24 25 25 26 28 27 27 30 29 28 29 30 34
94 95 96 94 89 85 75 71 69 67 63 54 50 46 43 35 28 22 18 14 13 12 12 15 17 17 16 19 20 21 21 20 19 22 25 27 28 28 27 27 28 27 28 30 32 34 35
93 94 93 88 83 79 72 68 65 65 62 53 46 44 40 37 30 24 19 19 21 18 16 17 19 20 20 23 22 21 22 21 20 21 22 23 25 27 27 28 27 27 30 33 32 32 30
94 92 87 82 77 74 68 66 63 61 61 53 47 42 40 35 35 26 22 19 20 24 23 20 18 20 22 25 25 24 24 24 23 23 24 26 27 28 27 26 26 31 33 33 30 27 26
92 86 82 77 73 69 65 62 61 60 58 55 47 43 39 33 30 32 26 20 21 23 25 26 21 22 25 26 27 27 27 26 26 27 29 29 29 26 27 28 30 30 31 33 30 26 25
86 81 77 73 70 67 64 60 59 58 56 55 48 43 41 39 30 28 29 26 22 22 25 27 28 25 26 29 29 28 29 29 29 30 30 29 28 28 27 27 26 28 28 30 30 26 24
81 77 74 70 67 63 61 60 59 57 53 54 47 44 40 42 36 30 27 29 27 24 23 27 29 31 28 33 31 30 30 30 32 33 31 31 30 28 25 23 26 26 28 27 27 31 28
78 75 71 67 65 61 60 57 58 56 54 53 48 42 41 43 44 36 34 29 27 26 26 26 30 34 33 35 37 34 33 34 34 33 33 31 28 28 24 24 22 25 28 29 27 31 30

GFSGBSN_250_spd_030.txt.gz
Wind_Speed
94 96 96 99 103 106 106 104 102 105 109 106 94 87 81 75 61 52 48 45 46 47 45 54 60 72 78 82 91 97 104 109 113 123 119 111 111 112 112 105 103 100 95 94 96 93 91
96 98 98 99 106 109 108 105 105 108 112 106 97 91 84 74 60 50 44 43 43 45 44 48 57 69 76 78 84 92 101 107 111 114 119 111 107 110 112 109 102 99 98 96 93 91 92
96 101 97 103 109 110 109 107 109 112 114 107 99 93 85 73 57 46 38 38 38 41 44 45 54 65 71 75 80 87 95 103 109 111 111 116 102 107 109 110 109 102 99 98 93 91 89
99 100 102 105 111 111 111 110 111 113 115 105 98 92 84 71 55 44 32 30 31 35 39 43 50 61 69 78 78 83 89 97 103 105 108 114 112 97 101 105 102 101 99 96 94 94 92
102 103 104 107 113 114 114 113 113 114 114 104 96 90 81 68 54 41 32 28 27 29 34 40 47 60 70 74 73 77 83 90 98 102 107 107 113 107 97 95 96 91 91 93 94 95 95
104 106 107 110 114 116 115 114 113 114 114 105 96 89 78 65 52 42 33 26 21 21 29 38 48 62 68 71 73 76 81 87 92 98 104 104 104 107 106 92 86 89 81 89 93 93 90
106 108 110 112 116 118 117 114 113 114 112 104 95 89 77 64 53 43 31 19 10 14 26 36 45 57 63 71 72 74 79 84 87 94 98 101 100 94 91 96 88 87 91 84 83 82 79
109 112 114 114 116 118 118 115 115 114 112 104 95 88 75 64 55 41 30 13 2 13 26 39 49 62 66 68 62 68 75 82 86 93 100 98 95 98 96 90 89 89 84 78 77 77 74
113 116 114 114 117 118 119 116 116 114 109 103 92 85 75 63 52 38 29 14 3 14 29 38 48 56 60 60 59 65 69 78 84 91 100 90 86 94 92 88 88 87 84 78 80 78 74
115 117 113 115 116 117 118 118 116 114 107 100 90 84 74 59 48 39 29 16 6 16 26 36 48 58 60 59 60 62 65 75 81 85 89 87 84 87 92 91 88 87 87 84 80 78 72
115 118 113 115 116 116 117 119 116 112 106 98 89 84 73 59 51 40 28 18 10 10 19 29 43 46 44 41 47 53 60 70 80 82 82 87 80 83 88 90 88 86 85 84 84 78 76
116 115 112 114 115 114 113 117 116 112 102 97 88 80 71 58 47 40 27 20 16 10 16 26 33 34 37 40 45 49 52 62 76 78 79 78 79 80 84 82 81 79 80 81 83 83 77
115 110 110 112 114 112 109 114 115 109 100 93 87 82 73 62 52 39 30 20 18 18 20 28 29 29 30 34 36 37 45 56 67 73 69 67 73 76 76 72 73 75 77 78 78 81 79
109 107 108 109 110 109 107 110 111 105 97 92 84 80 74 64 57 47 30 22 24 26 25 25 25 23 23 23 24 30 39 48 58 66 67 66 72 76 73 71 71 71 69 70 71 71 75
106 105 106 106 105 105 106 107 105 99 91 86 79 75 70 62 55 43 29 20 27 26 26 24 20 17 17 17 21 25 29 37 45 51 58 60 66 73 76 72 70 70 67 65 67 66 66
105 104 105 102 100 102 104 103 99 95 87 82 74 69 65 58 51 44 31 23 22 20 17 17 15 16 13 13 16 20 26 31 36 41 48 57 58 72 81 79 76 71 66 65 64 64 61
103 104 103 98 96 98 101 100 92 89 83 77 72 65 60 54 46 41 27 22 20 18 18 17 16 13 10 8 7 12 17 24 31 37 43 49 56 61 73 86 80 73 65 63 61 62 65
102 102 100 96 93 95 98 94 87 82 77 72 69 62 58 51 42 34 30 20 14 15 17 16 13 11 9 9 10 11 15 22 28 33 37 41 45 48 59 76 76 75 73 71 69 71 72
100 100 96 94 92 93 93 88 81 77 72 69 62 58 52 47 40 30 23 19 14 11 11 11 9 6 2 3 6 12 15 19 23 27 31 35 38 45 50 61 77 79 75 77 74 74 73
99 97 93 92 91 91 87 81 76 71 68 64 59 54 49 44 38 30 19 14 11 6 4 4 2 1 2 4 7 9 12 16 20 25 28 31 35 38 41 46 50 51 52 51 53 54 57
98 96 92 91 90 88 82 75 70 67 63 59 56 52 46 41 37 31 24 13 8 8 7 8 9 9 9 10 11 11 14 16 19 21 25 29 31 32 36 38 38 40 42 45 44 44 42
97 97 93 91 87 82 76 71 67 64 60 57 51 48 46 39 34 29 26 22 13 9 10 9 10 12 14 14 12 11 14 15 17 19 23 26 28 32 35 34 35 36 36 34 33 30 31
98 95 91 87 81 77 72 68 63 60 58 54 49 43 42 40 33 30 25 22 19 16 15 14 15 16 17 17 15 13 14 12 13 14 19 23 26 28 31 33 34 33 32 30 28 28 28
93 89 85 81 75 72 68 65 60 57 56 53 49 41 39 36 35 31 25 23 21 19 18 19 20 20 19 19 17 18 18 15 14 15 16 18 21 23 23 25 29 30 29 26 27 26 29
88 84 80 77 73 69 64 62 57 55 54 52 50 43 36 33 31 31 28 22 21 21 20 19 21 21 22 18 19 22 21 19 17 17 17 19 21 20 21 23 25 25 25 26 27 29 31
85 82 79 75 71 68 64 60 55 53 52 51 49 45 39 33 28 31 30 28 23 21 21 22 21 22 22 21 20 24 24 23 22 23 23 22 22 22 23 23 25 25 27 27 29 30 29
83 81 78 75 71 69 64 60 56 54 51 50 48 47 42 36 31 30 30 30 29 25 20 21 23 23 24 23 22 26 27 27 27 26 25 25 25 26 25 26 25 25 26 26 28 32 30
82 79 77 76 72 68 64 59 55 53 50 49 47 46 43 40 34 34 33 29 27 26 28 23 23 27 25 26 25 26 29 30 30 29 28 29 29 27 26 25 24 25 26 27 30 34 35
82 80 77 73 71 67 63 57 53 51 49 47 44 44 41 41 40 37 35 32 30 27 29 30 28 28 28 29 31 28 33 32 30 30 30 30 28 28 28 25 26 27 26 29 30 32 33

GFSGBSN_250_spd_033.txt.gz
Wind_Speed
93 98 96 97 98 98 101 103 102 102 106 104 97 91 86 80 73 64 54 46 44 43 44 44 47 58 71 77 82 89 91 98 106 115 119 124 125 119 116 110 108 104 96 96 98 94 92
94 98 98 100 102 102 104 104 103 104 108 105 98 92 84 81 72 60 48 41 39 37 35 36 43 51 65 70 79 86 89 93 100 111 115 121 124 125 119 114 112 106 101 100 99 96 94
96 99 100 102 104 104 106 106 104 106 108 103 99 92 87 81 71 57 43 35 31 31 29 29 37 43 56 66 75 80 87 90 96 106 114 117 127 120 119 117 113 109 105 102 99 96 91
97 100 101 106 106 108 108 107 105 107 107 101 98 91 87 78 68 50 39 32 27 26 25 25 30 38 52 64 75 83 81 85 90 100 107 115 119 127 120 118 115 109 106 101 98 96 94
99 101 106 108 109 109 110 109 108 109 107 101 98 91 88 77 63 51 39 30 23 20 21 23 27 40 48 62 70 75 75 81 86 95 102 110 113 116 124 115 113 112 106 102 98 97 95
101 105 109 108 109 109 110 109 109 110 107 100 98 91 86 75 61 50 38 29 21 13 17 23 31 41 50 59 67 66 68 74 81 90 97 104 110 108 117 111 103 101 101 103 101 104 96
104 106 107 107 108 110 111 110 109 111 107 100 97 91 86 75 61 51 40 30 17 8 16 26 35 45 48 56 61 59 63 70 76 84 88 94 99 102 104 112 100 89 95 100 100 96 97
103 105 107 108 108 110 112 110 108 111 107 100 96 90 85 75 60 51 41 28 13 2 15 24 34 38 46 53 57 58 56 65 69 78 83 88 92 100 104 103 102 95 87 89 93 96 95
104 105 106 106 108 111 111 109 108 111 106 100 96 90 84 73 59 51 39 28 20 9 12 21 30 38 45 53 55 54 52 56 61 67 75 79 86 93 101 99 101 87 80 84 86 88 89
105 106 105 107 108 110 110 108 107 109 104 102 95 90 83 74 61 51 39 32 27 16 12 15 23 35 45 52 52 53 61 61 64 64 72 79 84 92 95 96 96 99 85 80 81 81 76
104 105 104 106 108 107 108 107 107 107 101 96 93 89 81 76 62 53 44 31 27 22 14 11 21 29 39 45 47 50 56 62 62 70 73 74 79 89 93 93 94 94 100 89 78 77 77
102 104 103 105 105 105 105 106 106 105 98 92 89 87 81 76 65 58 46 30 27 24 21 16 11 27 37 39 42 45 49 49 59 70 73 70 73 80 84 87 89 91 93 95 91 83 75
103 103 104 104 103 105 104 104 104 101 94 86 82 81 79 74 65 58 49 37 26 27 23 20 21 20 25 33 37 40 44 45 51 61 67 63 65 70 77 83 84 86 87 86 89 85 82
103 101 102 101 101 104 102 101 100 94 89 82 76 74 72 68 63 56 52 42 29 20 21 19 19 22 25 26 29 33 35 41 47 54 59 61 57 60 69 75 78 82 81 81 82 82 83
102 101 100 100 102 102 100 97 94 87 83 78 72 67 65 63 59 52 49 40 33 24 17 15 18 17 17 18 22 29 34 37 40 45 53 55 53 57 60 66 74 74 73 77 80 80 80
101 102 98 98 103 100 95 91 87 81 77 73 68 65 62 58 54 46 40 37 26 21 18 18 16 12 11 11 16 22 27 33 38 41 43 48 56 57 58 59 66 73 70 69 73 79 81
101 99 98 97 100 97 89 84 80 75 72 67 62 59 55 53 48 43 34 33 25 18 15 14 15 14 12 11 12 14 20 26 33 39 40 42 47 55 57 53 57 60 64 64 66 69 74
102 97 98 98 98 91 83 78 75 71 68 63 57 53 51 50 44 40 32 25 22 19 14 12 11 11 9 6 6 12 16 22 28 33 36 38 42 47 53 56 58 61 60 59 62 64 67
101 99 96 97 93 85 78 74 71 68 65 61 56 50 45 43 41 34 32 24 16 14 14 13 11 10 8 5 2 3 8 14 20 26 33 38 41 45 48 49 51 57 63 66 64 62 62
101 99 96 95 90 80 75 71 67 65 61 59 53 51 45 40 37 32 28 25 17 10 7 8 8 8 6 4 3 4 5 10 16 21 25 30 36 40 44 46 47 48 53 62 70 67 62
99 99 96 94 86 80 73 69 66 62 60 57 52 48 43 39 35 32 27 21 17 14 9 7 8 8 8 9 8 6 8 9 13 19 23 27 31 35 37 41 44 46 48 52 60 68 67
99 98 96 92 84 76 71 67 65 62 57 54 51 46 44 38 33 32 28 22 18 14 12 11 10 11 12 11 11 10 6 10 16 17 20 24 27 30 33 37 40 43 46 48 50 54 61
99 96 92 87 81 73 71 67 65 62 58 52 49 45 41 39 36 31 27 24 22 17 14 14 13 13 14 14 12 11 7 8 13 19 22 23 24 27 30 31 34 36 39 41 43 44 44
96 93 87 82 77 73 70 68 63 60 57 52 47 44 39 36 37 33 29 25 21 20 19 16 16 16 15 16 15 12 9 10 12 15 17 22 26 28 28 30 31 32 35 33 33 32 30
92 91 84 78 75 73 69 66 63 59 56 51 47 42 36 34 31 32 30 29 25 20 19 19 17 16 18 17 16 15 13 12 14 15 14 13 15 20 25 28 30 32 33 29 29 29 31
89 87 82 76 73 71 69 64 62 58 54 49 46 42 37 33 30 28 26 28 28 25 20 19 20 19 18 19 18 16 15 17 17 18 17 16 15 12 15 19 24 27 30 30 31 33 34
82 84 81 75 72 69 66 62 59 58 52 48 45 43 38 33 30 28 25 24 25 25 24 22 20 21 23 21 21 20 16 20 22 23 20 18 17 19 18 19 20 22 24 28 29 31 31
77 77 77 73 71 67 63 61 56 55 51 47 45 43 39 34 31 30 26 24 23 22 25 27 26 26 23 24 23 24 21 21 27 26 26 24 23 23 22 23 22 23 23 27 30 30 28
74 74 74 71 68 66 62 58 55 54 51 46 44 43 39 36 34 30 27 26 26 24 25 26 28 32 26 26 28 25 28 24 28 32 31 29 28 28 30 28 27 27 27 28 29 28 28

GFSGBSN_250_spd_036.txt.gz
Wind_Speed
86 89 92 93 94 95 96 96 93 93 94 95 90 86 84 77 73 66 57 46 41 38 39 42 45 50 60 72 79 87 94 94 102 110 117 123 127 126 122 118 113 109 103 102 103 103 100
89 91 93 94 95 96 98 96 94 95 96 97 93 88 85 79 75 64 51 43 35 33 32 34 39 41 49 62 77 86 93 93 97 106 113 120 127 128 126 120 119 113 106 106 106 102 99
92 93 94 95 96 97 99 97 97 97 98 98 93 91 88 81 72 59 49 38 30 26 26 27 32 39 46 61 73 80 88 90 94 101 109 118 122 130 126 122 121 117 111 109 108 104 100
94 95 96 96 97 97 98 98 98 100 99 97 94 92 88 84 74 58 47 37 27 20 19 19 25 37 54 60 70 77 82 85 93 97 101 111 120 127 130 125 121 119 116 112 111 106 101
96 99 97 99 99 98 98 100 100 101 101 98 94 91 87 82 72 57 46 36 23 15 15 21 28 36 45 57 65 73 76 82 87 92 95 103 113 120 126 129 124 120 114 113 109 107 102
97 98 99 99 99 100 99 102 101 101 101 98 95 91 87 82 71 57 47 37 25 15 9 20 26 35 45 53 64 70 75 77 81 87 91 96 106 116 120 125 123 117 115 112 111 107 104
99 101 102 101 103 102 100 103 101 100 98 97 94 90 87 82 72 57 46 34 26 19 4 20 27 38 46 54 59 66 68 70 76 82 85 89 97 103 115 118 123 121 116 116 114 111 107
105 105 103 103 102 101 101 105 102 99 95 95 94 90 86 80 71 57 45 32 27 19 3 16 27 32 37 43 56 63 62 66 68 74 79 82 86 97 112 116 114 122 119 111 115 109 106
108 105 102 103 102 101 102 105 100 98 93 92 92 87 85 79 74 61 50 35 32 24 12 17 24 30 34 40 46 47 46 61 64 67 72 75 80 86 100 111 113 110 118 112 111 109 105
106 105 102 102 102 101 103 104 98 95 92 90 90 87 84 80 74 63 53 40 30 32 21 16 23 27 33 38 43 45 53 57 56 60 67 70 73 77 88 101 106 107 112 111 104 107 106
103 104 103 103 103 101 103 101 95 92 89 88 88 85 83 77 74 65 55 45 31 33 25 16 19 25 32 41 46 53 54 49 49 54 58 63 66 68 78 88 95 100 104 107 100 99 101
99 101 104 105 102 101 100 98 92 88 86 84 84 81 78 75 71 65 56 45 35 32 28 20 15 17 28 35 42 44 46 47 51 53 58 62 63 66 73 80 86 94 101 101 98 88 82
98 97 102 104 103 98 97 96 89 84 83 79 78 76 73 71 67 63 58 50 43 35 26 20 18 17 22 31 32 36 39 41 47 52 55 56 57 63 69 76 80 85 94 97 94 88 79
101 99 101 103 101 98 93 92 86 80 78 76 72 71 68 64 62 59 53 46 42 30 25 19 16 19 24 23 24 25 26 31 35 38 43 44 47 57 59 66 70 77 85 91 87 81 81
101 99 99 103 99 96 91 86 81 77 74 72 69 65 63 60 56 51 49 42 35 26 23 18 13 8 13 17 20 24 26 29 30 31 33 31 36 42 51 56 62 69 76 85 91 87 82
100 99 99 100 98 93 88 84 76 73 70 68 66 61 56 54 52 48 43 35 31 27 21 17 14 14 13 12 13 15 20 25 28 28 31 32 35 39 41 48 56 65 73 79 85 88 87
100 99 98 99 98 90 84 81 74 71 67 65 63 59 53 48 46 42 39 32 28 24 19 15 12 9 8 11 16 21 25 26 28 29 32 33 33 35 39 44 49 56 66 72 74 79 83
97 95 96 100 95 86 81 77 72 69 65 63 59 57 52 45 42 39 35 31 25 20 17 14 12 10 8 6 7 12 20 23 24 27 33 34 35 37 38 43 50 54 60 66 71 76 79
91 94 98 98 93 86 80 73 70 68 64 60 57 52 49 45 37 36 32 27 23 18 14 10 9 9 8 5 2 5 8 13 19 24 27 31 35 38 40 41 45 51 54 56 64 71 70
92 94 96 95 90 86 79 71 68 67 64 59 55 50 45 42 37 33 31 26 20 16 11 11 8 4 3 3 3 4 5 9 14 20 25 29 33 36 39 41 43 46 51 54 53 58 66
88 91 92 91 86 80 75 70 67 65 63 60 54 50 45 38 35 30 29 27 23 17 13 9 11 10 7 5 4 6 6 10 10 14 20 27 31 32 35 40 44 46 47 51 57 56 57
87 88 91 87 85 80 77 71 66 63 61 59 52 48 46 38 33 28 25 23 21 18 15 11 10 11 10 9 7 7 7 10 13 13 16 20 26 32 34 37 39 41 44 49 51 55 57
94 87 90 81 76 73 72 71 65 63 59 56 53 46 43 40 33 30 25 23 20 16 15 13 12 12 13 12 8 7 6 8 12 15 15 17 21 25 29 33 36 39 42 43 43 43 43
92 87 88 75 76 70 66 68 65 61 57 53 50 44 41 40 34 31 28 22 21 18 16 14 13 13 14 14 12 7 6 8 10 14 18 20 20 20 23 27 32 36 38 39 40 40 41
87 86 77 71 71 69 63 65 64 61 57 51 48 42 39 39 36 30 29 25 22 20 16 17 16 14 13 16 16 13 8 9 13 14 16 18 21 22 23 24 27 29 32 36 39 40 42
78 76 72 66 66 65 61 62 61 59 54 49 46 41 39 38 37 32 29 25 24 24 22 18 18 17 17 16 18 18 16 12 17 17 16 17 16 17 21 25 26 27 30 30 33 35 34
82 77 74 66 64 67 61 58 57 58 54 51 47 43 39 38 36 32 32 29 23 23 25 25 21 19 20 19 18 20 21 17 18 21 19 17 18 18 18 21 26 29 31 32 33 34 35
84 74 71 65 63 65 61 55 54 55 54 51 47 43 40 39 38 33 32 31 27 24 25 28 25 26 21 22 23 20 22 25 24 25 24 23 21 21 21 21 20 24 28 32 35 37 38
81 75 79 71 65 67 61 54 53 55 55 52 47 45 42 40 40 34 33 32 29 27 26 29 29 30 25 25 27 24 24 27 28 28 29 28 27 25 24 22 24 23 24 26 32 35 37

GFSGBSN_250_spd_039.txt.gz
Wind_Speed
84 87 93 94 91 90 90 89 88 90 88 86 82 81 77 75 72 68 58 50 44 41 41 40 42 55 72 83 90 90 93 95 98 104 109 116 126 134 130 126 123 115 110 108 101 103 104
86 92 98 98 95 92 90 88 88 90 88 86 85 83 80 78 73 67 56 47 38 34 33 34 37 49 63 73 85 90 93 95 97 101 108 113 122 131 134 131 125 117 113 109 107 108 107
89 93 98 101 98 94 91 89 90 92 88 87 87 86 82 81 78 71 57 47 36 30 27 29 31 41 52 62 76 92 95 94 94 98 104 110 119 126 135 132 128 122 114 113 111 110 108
90 96 101 102 102 99 94 92 91 93 88 87 88 88 84 83 80 71 57 48 38 25 20 24 29 37 46 50 67 84 92 93 89 96 100 107 112 124 127 133 131 125 119 116 113 112 108
94 99 102 103 104 101 97 96 94 94 90 88 88 87 84 82 79 69 57 47 37 21 12 18 25 30 33 48 62 76 86 91 90 93 95 100 105 114 121 130 131 129 122 118 116 113 110
97 99 103 106 106 103 99 99 97 95 91 88 87 87 84 82 79 70 57 47 32 16 6 10 22 30 41 49 55 71 81 87 88 87 90 94 98 106 113 122 129 124 121 121 118 114 111
94 98 102 106 107 105 102 102 100 97 92 89 88 88 86 83 79 72 59 48 31 21 13 5 17 24 35 45 55 66 72 77 83 84 85 91 94 96 103 112 124 129 125 123 122 115 114
94 98 103 108 108 104 102 103 100 97 91 90 88 88 86 83 80 74 61 50 32 26 16 5 13 22 30 39 47 53 64 69 72 77 76 81 86 90 98 106 116 124 123 119 121 118 115
93 99 101 108 108 108 101 101 98 96 89 89 89 88 86 84 81 76 65 51 36 30 20 10 9 16 25 39 49 56 52 56 61 68 71 74 79 81 87 96 108 113 125 120 120 117 116
93 97 99 105 107 108 103 102 96 93 87 86 88 88 85 82 79 74 66 52 37 31 24 14 15 15 19 25 34 43 52 59 64 67 67 67 72 75 81 91 101 110 116 123 119 118 118
92 95 98 101 104 107 102 100 96 89 85 83 84 85 83 79 77 72 66 54 40 31 26 16 12 18 21 26 34 47 54 58 55 59 59 59 63 68 76 83 93 104 111 115 123 120 117
94 94 98 102 101 105 103 97 91 86 83 80 82 80 80 76 73 70 64 57 44 40 28 23 13 15 25 30 40 46 46 48 46 47 52 55 59 63 68 73 79 91 104 110 115 122 119
92 93 96 95 99 102 103 98 91 83 79 78 77 77 74 72 68 66 62 57 48 41 29 22 17 12 15 23 31 36 40 44 45 47 48 54 56 58 63 66 71 84 93 103 109 112 119
92 91 92 92 95 99 100 96 92 86 77 74 74 72 68 66 63 60 56 51 47 38 30 23 17 13 11 12 15 20 29 33 36 39 42 44 46 53 57 59 66 76 86 94 101 105 106
94 90 91 96 95 95 97 95 87 83 78 72 71 68 65 60 57 55 51 45 42 33 28 20 16 12 8 8 8 8 12 21 25 27 31 33 38 44 48 51 59 66 75 84 92 98 101
95 91 92 98 94 90 93 92 86 82 74 71 68 65 61 57 51 48 47 41 35 30 25 18 13 9 6 3 5 10 13 13 13 18 20 23 27 34 39 45 52 58 68 75 83 89 94
92 94 89 93 86 91 91 90 86 80 73 69 64 64 56 52 49 44 42 40 33 27 21 16 12 7 3 6 7 9 11 12 14 17 19 22 24 27 31 38 45 51 58 65 72 79 87
93 93 93 89 86 88 89 88 81 79 71 65 64 60 56 50 44 40 37 35 30 26 21 15 13 10 7 6 3 3 8 12 15 19 22 22 25 27 29 31 38 46 55 59 63 71 77
96 96 94 85 87 88 89 86 81 76 75 65 62 57 54 47 43 36 33 31 26 21 19 15 10 8 5 2 1 5 8 11 15 19 24 26 27 29 32 32 34 38 45 54 60 64 69
96 95 94 90 87 91 93 83 76 73 73 66 60 56 51 46 40 36 30 29 27 21 17 14 9 4 3 4 5 7 9 11 13 16 18 24 29 31 32 36 39 40 40 45 54 60 68
95 96 100 90 93 87 86 80 76 72 67 65 60 54 50 44 40 34 29 26 26 22 17 15 13 11 9 7 7 9 9 12 13 14 16 19 22 28 32 34 37 45 48 49 52 59 63
98 96 99 92 95 88 82 76 73 71 66 64 58 52 48 43 38 35 32 26 24 23 19 16 15 14 13 12 11 11 11 12 15 14 16 19 21 23 26 32 37 39 45 51 54 54 58
98 102 99 94 95 89 82 73 70 66 61 59 56 52 47 43 39 35 32 29 25 25 22 17 16 17 17 16 16 14 13 13 14 16 16 17 20 23 25 27 31 36 41 44 51 53 53
100 102 101 101 97 82 80 72 68 63 56 54 54 50 48 43 39 36 33 29 26 24 24 22 19 18 18 18 19 19 16 14 14 15 18 19 18 19 22 25 28 31 34 38 43 44 49
101 102 103 104 98 85 77 68 67 63 57 52 52 49 47 42 39 37 34 30 28 24 25 25 22 20 20 20 19 20 21 18 15 16 16 17 19 19 19 22 25 28 31 34 36 38 39
105 100 102 104 92 81 79 73 66 59 54 51 52 47 46 44 40 37 37 33 28 27 26 26 25 23 21 21 20 20 22 23 20 20 18 16 16 20 23 22 22 25 29 33 35 37 40
107 103 108 105 93 81 79 74 64 57 53 50 52 49 46 45 41 39 38 37 31 29 27 28 27 25 23 22 22 22 21 24 26 23 23 21 19 19 21 25 28 27 28 29 30 36 38
108 104 110 97 88 80 77 71 64 53 50 51 49 50 49 47 42 40 39 39 35 29 28 30 30 31 27 25 26 24 24 24 28 29 26 26 25 23 22 24 25 30 32 30 33 33 35
105 104 106 94 90 79 78 75 61 56 49 50 48 47 50 50 42 41 38 39 37 33 31 30 32 34 29 28 29 27 25 26 28 30 31 31 29 27 26 26 26 27 28 32 35 36 36

GFSGBSN_250_spd_042.txt.gz
Wind_Speed
83 86 90 95 101 102 100 98 97 95 90 85 83 78 77 75 73 68 63 53 42 36 34 37 37 42 57 72 86 86 88 91 98 101 104 109 115 122 129 129 124 118 117 116 113 107 102
85 89 94 98 103 105 105 102 99 98 94 86 84 79 79 77 75 70 64 53 44 36 31 29 35 38 47 67 81 87 89 91 96 99 103 106 113 119 129 133 129 123 124 120 116 106 103
85 91 96 99 104 107 108 106 104 101 94 91 85 81 80 78 77 74 65 52 44 41 32 24 26 35 46 61 72 90 91 93 96 99 103 105 111 119 123 131 132 130 127 122 116 108 108
87 93 99 99 104 109 110 109 107 103 98 92 89 83 82 80 78 75 66 55 48 41 32 22 19 31 41 56 68 86 92 92 93 96 101 105 108 113 121 126 134 134 131 126 119 111 112
87 93 101 98 101 107 111 111 106 105 101 96 91 88 83 81 79 76 68 58 48 38 26 17 14 23 36 52 62 77 90 90 91 94 98 102 104 107 115 122 131 134 133 127 121 115 114
89 91 100 102 100 106 110 113 109 107 102 97 93 90 86 83 80 77 71 60 48 33 22 11 3 18 29 40 50 64 82 88 89 91 92 94 100 104 109 115 124 131 131 127 123 120 116
89 91 99 103 102 105 110 112 109 106 102 99 95 91 88 84 80 77 73 63 49 31 24 17 4 11 23 36 45 55 73 83 87 90 87 91 94 94 101 109 117 124 132 130 128 123 118
89 91 98 101 100 104 109 111 109 107 103 98 96 92 89 86 82 78 74 66 50 34 29 20 9 5 17 28 39 52 66 75 87 87 82 82 85 92 96 103 110 116 126 128 129 123 119
87 89 97 99 99 103 105 108 110 108 103 97 95 92 90 87 82 78 74 68 53 36 31 22 14 7 12 24 38 48 60 67 79 84 82 80 82 85 88 92 99 105 111 128 126 123 122
89 92 96 100 98 101 104 107 108 107 100 93 93 91 88 85 82 77 72 68 57 41 31 25 17 13 13 18 25 34 47 60 68 76 79 78 76 75 78 83 90 95 104 115 125 125 125
89 92 96 100 98 102 104 105 107 104 100 93 90 88 86 84 81 75 70 66 58 45 37 28 19 16 13 19 23 32 43 52 58 62 66 69 68 67 67 73 80 89 96 106 115 126 126
90 90 93 96 104 105 106 105 105 105 102 92 88 86 83 80 77 74 68 64 60 51 41 34 25 15 10 16 25 33 40 44 49 52 59 62 63 64 63 66 74 78 88 98 110 116 121
89 89 91 97 99 104 102 100 103 104 101 91 85 83 79 75 73 69 66 61 57 51 41 31 27 21 12 5 13 26 34 40 42 44 47 51 56 58 59 60 65 72 80 91 101 110 108
89 88 90 95 97 99 102 99 101 100 99 93 85 80 75 70 66 63 59 57 53 48 38 30 24 22 21 15 7 7 16 19 24 31 35 41 45 48 50 52 57 66 75 82 89 96 103
88 88 90 92 95 102 106 100 100 97 96 91 85 79 73 67 62 57 53 49 48 44 37 31 25 20 17 15 12 7 3 8 12 17 22 25 32 38 42 45 51 57 63 71 78 84 91
87 90 91 92 93 99 105 103 100 97 93 91 85 78 72 64 60 54 49 44 40 37 33 28 22 18 12 9 7 8 5 2 5 11 12 19 25 30 35 38 44 49 58 64 70 78 82
88 88 92 93 94 101 106 105 100 100 94 89 82 77 72 62 54 51 46 41 37 34 31 24 19 15 10 7 3 3 6 10 13 14 14 16 20 22 29 33 41 47 53 58 66 71 79
85 87 92 94 98 100 104 110 103 99 92 83 80 74 69 60 52 47 43 38 34 30 25 23 18 13 10 7 2 4 6 7 11 13 17 18 22 26 28 32 36 42 49 54 58 64 71
84 87 91 94 100 103 105 108 102 98 92 84 78 73 67 62 49 46 40 36 32 30 24 20 17 12 7 5 4 3 2 4 10 13 15 18 22 25 27 31 35 39 44 50 54 60 64
85 87 91 93 96 105 105 107 100 95 92 81 76 72 66 61 52 43 39 34 30 28 24 21 17 14 11 7 6 4 5 7 8 12 16 18 20 24 26 31 32 36 39 43 51 56 61
85 87 90 94 97 104 105 104 101 96 89 80 76 69 65 60 52 42 38 33 29 27 25 21 19 17 14 13 11 10 10 10 11 13 17 21 23 25 27 29 32 34 36 40 42 50 53
87 88 92 96 96 102 105 108 101 93 90 82 74 69 63 57 51 45 38 35 29 25 24 22 19 17 16 14 14 16 16 15 14 15 16 19 22 24 27 29 31 35 39 40 42 43 47
88 89 92 95 96 101 104 102 96 92 87 80 70 69 63 54 49 44 38 35 32 28 24 23 21 19 18 18 17 16 17 19 17 17 17 18 19 21 25 27 30 33 39 44 44 43 43
87 91 94 96 98 101 103 99 94 86 86 75 70 64 60 54 47 42 39 35 34 29 26 24 23 21 20 20 20 19 18 19 19 18 19 20 20 19 20 22 26 30 32 39 44 49 51
91 93 95 95 98 100 104 98 91 81 82 79 67 60 56 52 46 41 39 36 34 32 29 25 24 24 22 21 21 21 20 20 21 20 20 20 22 20 21 22 23 25 29 32 35 39 47
94 96 99 100 100 98 100 102 96 86 81 77 69 63 56 48 43 43 38 36 35 31 30 27 26 25 23 23 23 23 23 22 22 22 20 21 21 23 24 22 23 27 27 29 31 34 40
96 99 101 102 101 95 101 103 92 84 79 76 68 61 54 48 43 43 40 37 35 33 30 29 27 27 27 24 25 25 25 24 23 23 22 21 23 23 23 26 26 26 26 28 30 35 35
103 101 102 104 101 97 102 102 91 82 78 70 70 62 53 44 43 41 39 35 34 33 31 30 26 30 29 27 27 26 27 27 27 25 24 24 24 24 24 25 26 30 28 28 32 33 35
109 105 104 105 103 101 104 100 92 81 75 73 75 68 55 43 41 38 36 33 31 31 32 31 29 30 30 31 29 30 27 26 29 29 27 27 27 28 28 27 27 26 30 34 33 34 33

GFSGBSN_250_spd_045.txt.gz
Wind_Speed
77 80 85 90 93 100 107 107 103 101 96 91 88 85 76 73 71 68 65 62 53 38 28 29 35 42 47 55 74 79 81 85 87 93 98 103 105 111 115 124 127 124 120 118 116 111 107
78 80 84 92 93 101 106 107 106 105 100 96 90 87 80 76 76 73 68 63 53 43 35 24 25 34 38 46 64 77 84 84 85 91 96 101 104 110 116 125 127 125 125 123 119 112 111
78 81 87 93 96 101 106 110 109 107 102 98 94 89 81 78 77 73 69 64 55 48 40 30 19 23 34 45 64 77 84 84 86 89 94 100 104 108 114 122 127 129 129 126 119 114 113
79 84 89 93 98 101 105 111 112 109 107 102 98 91 86 79 79 78 72 66 57 49 38 29 15 13 28 44 60 75 79 84 84 85 93 100 103 108 112 119 125 129 131 127 120 118 116
79 85 88 95 97 100 104 110 113 114 111 107 102 96 90 82 80 79 73 67 59 48 35 25 12 9 25 45 58 65 71 83 82 82 88 97 100 102 110 115 124 127 130 126 124 120 119
78 83 88 94 96 101 100 108 113 115 111 109 107 100 92 86 83 80 74 68 62 48 34 23 13 3 19 39 50 59 70 80 84 88 95 94 97 98 104 110 116 119 126 125 125 122 122
77 82 87 92 95 100 100 104 110 113 113 113 110 104 96 90 85 82 75 68 66 51 36 27 17 5 10 27 37 48 66 82 88 89 87 87 89 91 99 106 114 120 126 131 129 126 125
78 81 86 91 95 99 99 102 108 111 112 112 109 105 97 91 87 85 80 72 66 54 38 29 19 10 5 17 30 44 61 78 78 79 79 80 85 91 96 101 109 114 119 128 130 127 126
78 82 86 93 94 98 100 104 105 113 110 109 107 103 97 92 86 83 78 72 67 56 43 32 22 14 6 15 26 34 45 65 77 78 79 75 78 85 90 94 99 108 113 123 128 126 125
76 83 85 92 93 95 101 104 105 110 110 106 104 101 96 92 85 82 75 68 62 56 47 31 25 18 11 7 22 37 47 58 70 75 75 73 71 75 83 88 92 98 107 114 121 126 127
76 81 84 91 92 95 99 105 108 106 109 105 100 97 96 91 85 81 74 67 60 57 50 36 27 22 14 10 12 29 43 56 65 70 68 69 66 70 73 82 85 86 89 101 111 121 127
75 80 83 90 93 95 97 103 109 107 108 105 98 96 93 90 85 78 73 66 61 58 49 43 28 24 22 11 14 20 37 50 57 64 63 67 67 62 62 63 71 73 78 90 99 111 122
74 79 83 89 93 92 96 102 107 107 108 105 98 93 92 88 84 75 72 63 57 52 48 42 34 24 21 19 12 17 29 43 48 54 59 58 58 61 59 59 61 61 69 81 90 98 106
74 78 81 88 91 92 93 99 106 109 106 104 99 91 89 85 80 73 67 60 53 48 45 38 31 24 19 22 15 8 18 30 41 47 51 52 53 53 54 57 59 61 64 72 83 90 97
75 78 81 86 88 91 93 98 103 106 107 105 99 93 88 83 76 70 64 59 50 44 41 35 29 23 18 16 18 15 11 15 25 31 35 38 42 45 47 51 54 56 58 64 72 84 92
73 77 81 86 87 90 91 98 101 104 107 106 98 92 86 81 73 67 59 56 49 41 37 32 28 22 14 11 11 18 18 15 13 20 22 24 27 32 38 40 45 49 54 59 64 73 81
72 77 81 84 86 88 90 95 100 103 108 103 103 97 88 82 77 66 54 50 46 42 37 33 28 23 17 10 7 6 11 14 15 17 17 20 23 22 28 35 39 42 49 52 59 65 73
73 78 80 83 84 87 90 94 98 105 105 103 99 96 87 82 76 66 52 43 42 38 33 29 26 23 17 12 7 3 6 7 9 12 15 18 22 25 27 32 37 41 46 50 55 60 66
74 79 80 82 83 86 89 90 98 104 104 102 100 96 89 82 73 66 53 42 36 34 31 27 24 20 18 13 6 2 2 8 12 14 14 16 19 22 28 32 36 39 41 46 50 56 62
75 78 80 82 82 85 88 92 92 100 104 103 101 97 90 83 75 66 51 41 34 30 28 25 22 20 16 14 13 7 4 5 8 12 18 21 22 24 27 29 31 36 38 41 44 49 56
76 77 81 82 84 85 87 89 94 99 99 95 97 97 86 81 72 63 52 37 32 27 27 23 20 16 16 15 13 12 11 8 8 9 12 15 22 27 29 31 32 33 36 40 44 48 51
76 79 81 83 84 84 87 88 93 102 100 93 97 98 93 82 72 64 54 38 29 25 25 23 20 17 14 14 13 14 13 13 12 13 14 15 15 22 28 31 34 35 37 39 44 46 51
76 80 81 86 87 88 89 90 93 94 99 86 88 97 94 82 70 61 51 39 29 23 23 22 20 19 17 15 15 15 15 16 16 15 15 16 19 19 24 28 33 36 37 38 41 43 45
79 81 82 85 89 90 92 93 92 94 96 90 82 93 95 87 70 59 46 42 31 25 23 21 19 18 17 17 17 17 18 18 18 19 16 15 19 21 22 25 31 35 36 39 41 40 42
81 83 84 87 91 94 98 94 94 95 98 89 86 92 95 83 68 57 47 41 36 28 22 21 20 18 17 18 19 19 19 18 19 19 18 17 16 20 23 25 28 31 33 38 39 41 43
84 87 88 91 95 97 98 96 93 96 100 98 87 85 96 80 69 56 46 41 36 30 24 23 20 19 18 19 20 20 20 20 19 19 19 19 18 18 21 25 27 26 29 31 35 39 42
88 92 93 96 101 101 99 99 96 96 96 95 87 84 89 83 62 49 42 40 35 28 25 24 21 21 20 20 21 21 20 21 22 21 20 21 21 19 20 24 27 24 27 29 32 34 36
92 96 97 99 103 103 104 101 98 98 100 99 90 84 86 87 61 51 39 34 32 27 25 23 22 24 22 22 22 22 22 23 23 23 22 23 23 22 22 24 24 27 28 29 29 30 32
96 100 103 103 107 106 106 104 100 98 100 106 103 83 85 92 62 51 40 33 28 26 23 22 22 25 24 24 25 24 23 23 25 27 24 24 26 26 26 25 24 25 25 30 30 31 32

GFSGBSN_250_spd_048.txt.gz
Wind_Speed
73 75 77 79 82 87 92 94 101 103 105 105 104 93 79 69 62 61 61 58 57 50 36 25 23 36 40 41 61 74 74 77 81 84 91 95 97 101 105 117 119 120 120 120 118 115 113
73 76 77 80 83 88 93 96 103 106 108 106 104 95 82 72 66 64 64 63 60 51 39 31 23 26 37 43 55 68 76 82 83 86 89 92 93 100 104 111 119 119 122 124 122 120 117
73 76 78 80 84 88 96 99 105 108 109 108 105 98 90 76 69 67 66 64 60 52 42 33 25 20 32 42 49 64 77 81 86 86 86 91 95 97 101 106 119 121 124 128 125 123 118
70 77 79 80 85 88 97 102 107 110 112 110 108 100 94 83 73 69 70 66 61 54 43 33 24 15 27 37 45 58 68 79 84 85 86 91 95 97 101 104 114 119 125 128 125 125 121
70 75 79 82 86 88 96 103 106 112 114 111 105 101 99 88 77 74 73 70 65 58 44 34 23 11 19 30 45 55 63 75 84 88 87 90 92 93 97 101 107 118 121 125 125 125 124
69 74 78 82 86 89 96 101 104 111 114 109 105 102 99 91 84 77 76 74 68 61 45 36 25 14 10 28 46 56 64 73 82 86 87 88 87 90 92 96 97 109 115 125 126 126 125
69 73 76 80 85 90 94 99 104 109 113 108 103 102 100 91 86 80 77 76 70 62 48 38 27 16 3 15 34 46 52 67 79 84 84 81 80 81 87 94 97 107 117 122 125 127 127
68 72 76 78 82 85 91 97 102 104 110 111 107 101 100 93 86 82 77 73 69 60 52 42 29 18 9 8 23 34 47 62 72 76 78 76 74 80 86 91 96 103 113 119 129 129 128
67 71 75 77 81 85 90 94 98 104 107 111 106 102 100 96 86 84 79 71 69 62 54 43 30 20 12 11 19 28 48 60 68 72 74 75 77 80 83 89 93 98 108 116 128 127 127
66 69 73 77 81 84 88 96 95 102 105 112 109 104 103 99 90 84 77 70 67 60 56 44 32 20 15 4 18 28 39 52 63 69 74 77 77 77 80 85 89 94 101 111 120 131 127
66 68 71 74 79 84 88 94 96 99 103 109 110 107 105 97 90 85 76 69 63 60 51 47 37 23 16 7 9 22 30 43 59 66 68 66 65 68 73 81 85 92 96 106 115 121 131
65 66 69 73 77 81 85 92 95 96 104 108 111 107 103 97 90 83 76 68 60 57 50 46 39 27 16 10 7 19 30 34 40 52 55 56 57 64 68 72 78 84 91 97 106 115 119
66 65 67 73 77 80 83 89 90 96 100 104 111 109 105 99 89 83 73 68 59 53 51 44 39 30 16 13 8 14 23 28 36 40 45 50 48 48 52 58 66 72 81 86 90 97 104
66 63 65 72 75 78 82 86 87 92 96 101 108 109 105 101 89 81 71 63 55 50 47 41 37 32 20 11 13 10 20 25 31 37 42 43 42 43 48 50 54 60 63 72 82 85 100
67 62 64 69 74 77 80 83 86 89 95 98 104 109 107 103 94 80 71 59 55 42 40 37 32 30 24 12 10 13 13 17 23 28 28 32 36 37 40 45 51 54 58 63 69 79 90
67 61 64 68 73 76 79 82 81 89 95 95 100 108 107 103 95 84 72 58 51 42 34 29 28 26 22 16 6 10 15 16 23 28 30 30 33 36 38 42 44 49 55 56 59 67 78
65 61 64 68 72 75 79 81 82 87 92 94 100 107 106 104 98 85 71 62 44 44 31 26 21 20 19 13 6 4 14 16 19 22 26 28 30 31 31 35 39 42 47 52 58 60 68
63 60 63 69 71 74 78 80 80 85 90 95 98 104 106 102 101 88 67 59 47 39 34 26 20 15 13 11 3 3 9 14 17 22 26 28 30 31 34 35 38 42 46 49 55 61 65
62 61 63 69 72 73 76 79 78 84 91 98 101 103 106 102 99 86 64 55 46 35 32 26 21 14 9 7 6 1 6 11 16 19 23 24 28 31 33 33 36 39 43 46 48 52 58
61 61 64 68 71 72 75 78 79 80 88 96 98 101 100 101 96 83 73 58 45 37 29 26 22 16 9 5 3 2 4 5 10 15 18 21 25 29 31 31 32 36 39 41 43 47 53
61 62 65 69 71 73 75 78 78 80 87 94 99 100 97 103 95 80 75 62 47 40 28 24 21 19 13 7 4 4 4 6 7 10 14 18 21 25 28 29 32 35 37 38 42 46 47
59 61 66 70 72 75 77 77 79 80 87 93 98 101 92 98 93 86 73 57 46 39 31 24 23 20 17 13 10 8 7 9 10 12 12 14 19 26 30 31 33 34 36 39 41 42 44
59 61 66 69 72 76 77 79 81 81 87 92 98 103 100 94 90 86 72 61 52 39 31 25 22 20 20 18 15 14 13 13 14 14 14 14 15 19 24 31 35 37 37 38 38 41 42
60 63 66 69 71 77 78 80 82 84 88 94 100 100 92 100 87 84 67 59 50 42 32 24 21 20 19 20 19 19 17 16 17 17 17 17 17 18 19 24 30 36 36 39 39 37 38
61 66 66 70 73 77 79 84 85 86 88 93 94 98 99 98 88 82 67 53 51 41 32 25 22 20 18 20 21 21 21 19 18 18 18 18 19 20 18 20 25 25 29 36 40 41 41
64 67 68 71 74 79 82 86 88 91 88 93 97 96 103 89 89 85 70 54 48 40 32 23 20 20 19 22 24 23 22 20 20 21 21 21 21 21 20 19 19 20 25 29 34 40 41
64 69 71 74 77 82 85 89 91 93 96 95 98 100 101 96 82 80 59 56 51 39 30 20 19 21 20 22 24 24 24 23 23 21 22 22 23 23 22 21 18 19 24 25 28 32 35
69 70 73 75 81 83 86 89 94 96 97 99 98 91 100 101 78 80 62 54 48 39 27 21 18 21 21 21 24 26 25 25 25 25 23 24 24 23 25 24 21 21 23 23 24 27 31
72 73 78 78 82 86 90 92 96 97 100 101 103 92 99 104 83 77 66 56 47 39 27 21 20 19 22 22 23 24 24 25 26 26 25 25 26 26 27 27 25 24 23 23 23 26 27

GFSGBSN_250_spd_051.txt.gz
Wind_Speed
70 71 74 76 79 83 88 89 94 97 102 102 101 100 91 85 72 61 53 49 49 46 42 33 25 29 41 47 52 66 74 80 80 83 85 88 89 91 94 99 103 113 117 119 119 115 112
71 72 73 77 80 83 87 90 93 97 99 104 102 99 94 89 78 67 56 51 52 47 45 35 27 23 29 40 47 59 65 74 82 83 85 83 86 91 95 101 103 110 117 120 121 117 115
69 73 74 76 79 84 88 93 94 99 100 106 106 100 97 94 84 71 61 54 54 52 49 36 27 23 26 31 42 55 63 76 82 83 85 84 88 93 94 100 101 109 118 120 121 120 115
70 73 76 76 79 83 88 92 95 100 102 107 107 103 97 95 87 74 64 58 56 56 52 36 28 22 20 24 38 50 61 71 78 82 88 90 88 92 95 97 101 107 116 121 122 120 119
69 71 76 79 78 80 85 90 93 98 103 105 111 108 100 96 88 79 68 62 60 59 54 39 31 24 15 15 29 45 56 65 75 81 85 83 86 89 92 95 98 103 108 118 121 118 120
68 70 74 79 77 78 83 87 91 97 103 106 110 110 104 100 92 83 70 64 61 60 56 43 36 24 14 7 19 36 46 59 71 78 85 87 85 84 87 88 87 92 100 113 116 118 119
68 67 71 76 77 77 82 86 89 95 99 100 106 106 106 102 93 85 75 66 61 61 58 49 39 26 15 1 16 36 44 55 69 75 79 82 82 74 80 86 86 92 101 110 115 119 121
65 67 68 75 76 76 79 82 86 95 99 102 101 106 106 102 96 89 79 69 61 62 57 53 41 29 18 3 10 29 45 55 65 72 77 81 79 78 80 85 86 90 99 104 115 119 123
64 66 69 72 75 75 78 80 83 91 97 99 99 104 107 106 101 93 81 70 62 59 59 53 44 32 19 9 8 15 37 51 60 68 75 79 78 75 75 81 84 87 94 100 109 116 125
64 66 68 70 74 77 76 78 81 87 93 96 98 99 106 107 105 98 86 71 64 57 57 52 45 34 20 14 6 14 25 40 56 70 75 76 75 70 71 76 81 84 88 95 102 113 122
62 65 66 70 72 77 73 76 78 86 89 93 96 95 101 108 106 103 91 74 63 55 53 50 44 37 23 15 8 10 22 36 49 60 64 66 68 64 67 72 76 82 84 90 98 107 116
62 63 65 68 71 76 73 75 76 82 87 89 93 97 94 109 106 101 94 78 66 57 50 51 43 36 29 13 9 8 15 31 42 49 57 61 60 62 66 68 73 78 82 84 93 100 109
63 64 64 67 71 73 71 72 74 78 85 88 91 98 96 105 109 101 92 80 68 57 50 46 45 35 31 20 11 8 11 26 38 44 47 53 54 58 63 66 69 73 77 80 85 92 98
63 63 63 67 70 70 70 71 73 76 82 85 91 97 94 99 108 101 91 84 64 55 48 43 41 36 30 23 13 11 5 9 21 31 32 32 32 48 55 58 62 67 70 75 79 85 94
62 61 63 67 69 69 68 69 72 76 81 83 86 93 99 97 107 102 92 85 62 49 45 37 35 33 26 22 15 9 7 5 6 15 18 14 18 17 37 47 54 58 62 67 73 81 88
60 60 62 66 67 69 67 69 72 74 78 81 87 90 96 94 102 101 88 77 65 48 41 35 31 27 24 18 15 10 5 6 8 10 10 12 15 18 21 27 35 42 50 54 59 71 80
58 60 62 65 67 69 65 69 72 74 78 79 85 88 93 96 96 99 91 76 57 48 35 33 27 25 18 16 12 9 1 4 11 14 17 19 19 23 23 28 36 43 46 52 59 62 66
57 58 60 64 66 68 66 68 71 74 76 77 82 87 94 98 90 94 84 69 56 47 38 26 24 21 17 12 9 7 4 4 10 15 18 19 19 24 25 28 30 36 42 48 53 59 66
55 58 61 61 64 66 65 67 70 74 74 77 83 88 96 100 95 87 86 68 61 48 36 28 22 18 15 8 7 4 3 5 8 11 14 16 22 24 28 31 33 37 40 43 48 53 54
54 57 61 62 64 63 65 67 70 75 74 77 81 90 96 99 103 84 90 80 52 47 35 27 21 17 16 12 4 5 5 7 10 14 15 18 22 25 27 28 28 32 33 37 41 46 53
56 58 58 61 64 61 63 67 70 75 73 78 84 91 96 100 102 89 89 78 51 47 37 29 22 18 15 15 12 10 10 10 10 12 16 21 23 24 26 29 30 33 33 33 36 42 42
55 58 58 61 60 59 62 66 69 72 75 77 84 88 99 101 106 93 85 76 63 49 39 30 25 21 18 15 16 15 14 14 13 14 15 15 19 24 28 29 32 33 34 35 35 35 40
56 57 59 61 57 58 61 66 69 72 76 80 87 89 96 105 107 89 86 81 71 54 38 28 24 23 21 18 18 18 18 19 18 18 19 20 20 20 22 24 28 33 35 35 35 38 39
58 57 60 60 56 58 61 65 67 72 77 82 86 89 95 103 104 98 76 79 72 47 39 28 25 23 23 23 21 20 20 21 22 22 22 22 22 23 24 23 26 34 32 34 35 36 35
57 57 60 61 56 59 61 64 67 70 77 82 86 89 94 96 104 106 75 86 67 49 38 29 24 22 24 24 25 24 23 23 24 25 24 23 23 25 26 25 28 28 28 29 35 40 35
57 57 60 61 58 58 59 64 68 71 77 82 86 89 93 98 101 97 79 79 64 48 38 29 22 23 25 24 27 27 26 25 25 26 27 27 26 26 26 27 28 26 27 28 30 32 35
56 58 62 59 60 59 58 65 70 73 78 83 86 88 93 96 99 99 82 80 66 47 39 33 28 22 25 26 28 29 28 29 27 27 29 28 28 28 26 27 26 25 27 27 26 26 28
57 60 61 59 59 61 62 67 72 76 78 82 85 87 89 92 92 99 82 79 54 47 40 32 28 25 26 28 28 28 28 29 28 27 28 30 30 28 29 29 25 27 26 25 26 26 26
58 61 59 60 59 59 63 69 74 78 81 84 86 88 89 93 90 90 86 76 57 48 34 32 28 26 27 28 29 28 30 30 30 27 28 31 32 31 31 31 29 28 27 26 25 27 27

GFSGBSN_250_spd_054.txt.gz
Wind_Speed
60 66 70 74 79 79 82 84 85 88 92 95 101 98 102 104 101 91 76 63 51 49 50 43 37 30 33 41 48 56 65 74 81 83 86 90 92 97 98 97 97 95 98 98 104 106 109
61 63 71 73 77 80 82 85 84 87 92 98 101 103 104 106 103 95 80 66 55 51 49 42 39 31 25 33 42 48 55 69 80 80 86 88 89 95 102 100 98 95 96 97 100 108 112
62 65 71 72 75 80 82 84 86 88 91 96 102 105 106 110 106 98 83 69 59 53 52 45 39 29 23 24 36 42 46 56 72 80 84 87 91 91 97 102 101 99 98 98 99 108 112
67 67 68 72 75 79 82 85 86 87 90 94 101 108 108 109 106 100 86 71 64 58 54 47 40 28 20 19 28 36 45 54 66 77 84 85 88 89 93 100 104 102 99 98 98 106 111
69 65 67 71 73 78 81 84 83 85 88 94 101 105 110 110 109 101 89 76 71 62 55 48 41 30 23 16 18 33 43 52 59 72 82 84 88 89 90 96 103 101 97 95 97 102 113
70 65 66 69 72 76 80 82 84 85 85 88 97 107 110 108 109 107 92 79 73 65 58 51 43 34 24 16 12 25 41 49 57 68 77 84 84 85 86 87 87 92 93 95 97 100 110
67 65 65 67 70 75 79 81 83 84 84 89 94 103 106 108 109 105 93 81 72 66 59 54 46 36 26 19 7 19 33 44 53 62 73 79 84 80 81 82 86 92 94 95 98 99 106
65 66 65 66 69 73 78 79 82 83 81 86 92 102 106 107 105 105 95 86 74 65 59 54 49 39 26 19 4 5 24 35 48 62 71 77 75 80 80 81 83 88 90 91 96 100 104
62 65 66 65 67 72 76 76 80 82 79 84 89 99 103 100 102 98 98 90 75 67 59 53 51 41 28 20 7 4 19 34 42 55 60 67 71 73 72 73 75 81 87 88 94 98 101
60 64 64 63 66 72 75 76 78 80 78 83 88 94 100 99 104 98 98 95 82 68 58 53 48 43 31 19 11 8 9 31 40 54 60 60 63 70 73 71 73 78 83 85 89 94 96
59 61 62 61 65 71 74 75 77 79 77 81 86 93 98 101 98 97 96 93 85 75 58 51 47 43 34 22 14 10 7 17 36 49 48 57 61 67 70 70 72 75 77 81 82 88 92
57 59 60 59 63 69 72 73 75 75 74 79 85 90 96 100 101 94 93 90 89 79 64 50 43 42 35 22 15 11 9 14 30 40 42 49 55 62 66 67 69 71 73 77 78 82 87
58 59 57 59 61 67 70 72 72 74 74 76 82 90 95 98 97 91 93 93 90 78 68 53 44 38 34 26 16 12 9 13 24 32 38 41 47 52 58 60 62 63 68 71 74 76 82
56 57 54 58 61 65 69 70 71 73 72 75 81 87 91 97 100 91 91 93 86 78 71 54 46 37 33 27 16 13 12 10 14 24 28 24 25 35 43 52 59 61 64 67 69 72 79
57 57 53 55 58 64 66 68 70 71 71 73 80 85 89 97 96 91 83 86 79 73 70 57 41 37 31 26 18 9 14 12 7 12 9 12 23 29 37 43 50 55 58 62 66 70 74
57 56 55 55 57 61 65 66 67 69 69 71 76 81 87 94 101 101 82 84 79 71 66 55 42 34 30 25 19 10 7 13 11 9 8 9 8 8 18 26 44 50 58 57 60 64 68
56 55 55 55 56 60 63 66 66 68 68 69 74 80 83 91 99 103 84 82 78 78 68 56 40 30 24 23 17 10 5 7 12 15 17 13 13 11 13 17 25 35 43 50 56 58 62
56 55 53 54 57 57 62 64 65 65 65 68 73 75 82 90 97 103 93 81 83 78 67 54 41 30 22 19 16 10 5 2 7 11 16 19 19 19 20 20 23 28 32 44 51 54 60
55 56 52 54 57 56 61 62 63 63 62 66 69 74 80 88 95 99 98 81 79 76 65 51 40 29 23 18 14 10 7 4 4 9 12 16 21 22 24 25 29 32 40 44 48 54 54
55 56 53 53 55 56 60 62 62 61 61 65 67 70 78 88 96 104 102 87 84 74 64 53 40 30 20 19 17 12 8 8 6 7 10 13 16 20 24 28 30 35 37 36 40 46 54
54 57 53 52 56 55 58 60 61 58 60 64 66 69 76 84 92 99 106 111 89 80 67 54 45 34 23 16 16 16 12 9 10 10 11 13 13 14 17 20 23 26 29 33 37 42 41
53 56 54 53 54 55 58 58 60 57 61 64 65 69 74 84 89 94 109 111 99 85 72 58 47 34 27 19 14 15 16 15 12 13 13 15 17 19 21 21 20 23 25 25 27 30 35
53 53 53 52 53 54 57 58 58 57 59 62 65 68 75 80 86 96 103 110 112 83 78 64 57 33 28 21 18 18 18 18 18 18 19 17 16 16 19 20 20 23 26 24 26 30 30
52 52 52 52 51 53 56 58 57 56 58 61 62 68 71 78 85 93 102 115 112 92 79 66 61 37 26 24 20 19 19 20 20 22 22 23 22 23 23 20 22 31 29 27 31 33 31
50 48 47 51 50 52 54 57 59 58 59 60 63 68 74 79 86 91 98 117 115 93 85 65 50 42 27 24 21 22 20 22 22 23 24 25 26 25 27 26 30 30 28 28 31 33 30
47 44 45 49 50 52 53 57 57 59 60 58 62 68 75 79 82 90 95 108 108 88 72 61 50 43 29 24 21 21 23 23 25 24 27 28 29 29 28 29 33 32 30 30 32 34 32
45 43 43 48 50 50 53 57 56 59 57 58 62 68 75 79 82 90 93 99 95 79 62 57 51 44 34 25 23 22 24 24 26 25 26 29 29 30 29 31 34 32 34 33 32 35 34
45 42 43 47 47 50 54 55 54 58 57 59 63 68 74 77 81 88 90 87 94 77 63 55 44 40 34 27 25 24 22 26 26 27 28 30 31 31 32 35 33 33 33 32 32 32 33
44 41 44 47 47 52 54 53 54 57 59 62 65 68 72 77 80 82 87 85 85 87 64 53 41 38 34 28 25 26 26 26 26 29 29 29 31 33 34 35 33 30 34 33 32 31 31

GFSGBSN_250_spd_057.txt.gz
Wind_Speed
71 75 77 78 76 78 79 83 87 89 88 89 90 93 98 99 98 97 100 94 93 74 54 48 45 40 33 33 42 47 58 70 78 85 86 89 88 89 92 94 92 93 93 95 100 101 98
73 75 80 81 79 78 79 82 88 88 88 90 90 92 95 101 100 101 102 98 88 74 57 50 46 40 34 28 35 37 47 62 74 78 82 88 86 87 91 94 96 93 94 96 100 98 99
73 78 82 85 78 77 80 81 86 88 87 89 89 90 94 100 102 100 102 96 90 77 60 51 47 40 32 25 27 32 41 51 64 75 78 84 87 86 89 94 96 95 96 97 99 100 98
78 81 81 82 81 74 79 82 85 86 87 88 91 88 92 99 100 101 103 102 91 81 62 53 48 41 30 23 20 26 37 45 55 67 74 81 87 87 89 92 97 97 95 97 97 98 94
80 80 81 84 75 72 76 81 82 86 87 89 89 88 92 101 104 103 104 100 91 79 62 54 49 43 32 23 18 24 32 39 51 61 72 82 87 91 89 92 97 97 92 92 94 96 94
81 81 81 80 74 71 73 79 80 84 86 88 89 89 92 96 103 106 107 104 90 81 65 55 50 44 35 25 16 18 31 41 50 56 72 83 85 86 87 85 84 89 89 91 93 93 94
81 84 81 77 72 69 72 77 79 83 85 86 87 89 92 100 104 103 106 103 88 76 68 58 51 45 37 28 15 9 21 35 46 53 71 80 81 74 79 81 85 92 93 93 95 93 92
80 83 79 78 71 67 70 76 77 80 82 84 85 86 90 96 103 107 104 103 93 74 70 62 54 46 38 31 18 3 12 33 44 51 64 72 73 76 80 82 84 89 94 95 96 97 95
80 78 80 78 70 65 69 75 75 78 81 83 85 84 86 94 100 102 103 102 91 80 73 63 53 45 40 31 17 2 6 24 40 48 55 64 71 73 77 80 81 85 91 95 95 97 96
79 74 81 82 66 65 67 71 72 75 79 81 81 82 84 91 98 98 103 103 95 80 72 68 54 46 39 31 17 3 10 25 34 41 48 60 64 70 76 77 75 79 85 90 96 97 97
75 80 79 69 61 63 65 69 71 72 76 78 80 79 82 90 92 95 101 98 92 83 71 64 57 45 37 32 21 6 8 16 33 40 44 54 59 64 67 70 72 73 78 82 90 95 96
69 67 75 62 57 62 62 66 69 70 73 76 79 78 81 88 93 93 95 90 92 85 75 62 58 46 37 33 24 8 11 11 25 32 34 41 45 55 62 66 68 71 72 74 78 85 88
61 61 62 58 56 59 60 64 65 68 71 74 76 76 78 86 91 94 91 91 88 87 77 66 60 51 38 32 25 11 10 10 14 18 26 30 42 51 57 59 66 67 67 67 70 75 79
56 57 57 56 55 57 58 62 64 66 69 71 73 75 77 83 87 91 94 89 87 85 79 68 61 52 37 29 24 12 9 9 10 10 16 26 36 42 48 52 57 61 62 64 66 70 73
52 55 55 56 54 57 56 59 61 65 66 68 71 71 73 80 84 91 91 90 83 83 76 68 61 51 37 27 22 15 5 9 12 11 12 17 24 30 39 45 49 53 57 60 62 66 70
50 52 54 56 54 54 56 57 59 63 64 67 70 70 70 77 81 89 97 90 76 85 78 68 63 50 37 25 20 14 7 6 11 14 13 16 15 17 25 38 41 46 54 56 57 61 64
48 49 52 54 52 54 56 55 58 61 63 64 68 69 69 76 80 89 95 94 83 82 77 71 62 55 39 23 17 13 9 4 9 15 16 20 16 16 23 26 37 42 43 48 55 56 57
50 48 52 50 48 51 53 53 57 60 62 63 65 66 68 71 77 88 94 97 83 83 76 71 63 54 40 29 15 12 8 2 6 12 16 15 15 23 22 22 25 26 37 44 48 53 55
49 48 50 48 48 52 53 52 56 58 60 61 62 64 66 70 74 84 90 101 87 82 79 73 65 57 47 29 20 9 5 4 1 11 16 18 23 23 24 27 28 34 31 37 43 52 54
50 45 45 48 50 53 52 51 55 57 58 58 58 60 65 66 74 79 89 97 102 89 78 77 66 58 48 31 21 14 7 1 3 6 10 15 22 25 30 33 34 33 35 41 47 49 57
48 46 46 47 50 51 50 50 53 55 56 56 57 57 62 62 72 79 85 93 98 93 81 82 72 54 49 34 21 15 10 7 5 6 8 13 18 22 27 34 37 37 40 41 41 47 40
48 45 44 49 49 48 47 49 53 54 54 55 54 56 58 61 70 78 81 88 94 93 85 80 70 60 49 35 31 19 13 9 10 8 9 11 14 17 19 21 23 27 31 33 35 38 38
47 43 43 49 49 46 46 48 50 53 51 51 53 53 57 59 67 75 78 84 94 96 89 82 62 63 50 40 27 25 20 16 12 13 14 14 14 16 17 20 22 28 26 27 30 33 33
46 44 45 49 49 45 42 45 47 51 51 50 51 53 54 57 64 73 77 80 87 93 92 85 63 60 46 40 28 23 21 19 18 17 17 16 16 19 19 20 25 27 26 27 28 29 28
45 44 44 46 45 41 41 44 47 49 49 49 48 51 52 56 62 70 77 83 86 90 90 83 74 57 51 39 29 23 21 20 19 21 22 20 21 21 23 21 24 26 25 23 24 23 26
45 43 43 43 42 41 42 43 47 46 47 48 48 50 49 53 61 69 74 79 83 86 82 84 77 69 53 48 37 24 20 21 23 24 23 24 24 24 26 27 29 27 29 30 30 28 28
44 43 42 39 41 41 40 44 47 44 47 48 48 50 50 53 59 63 71 78 86 83 81 79 71 60 69 53 42 30 24 18 21 22 24 26 26 27 28 32 31 30 31 32 32 32 32
43 42 40 39 42 41 40 43 47 44 46 48 48 50 50 52 59 65 71 75 82 82 80 74 73 65 58 55 42 33 26 24 20 20 23 26 27 28 30 33 31 29 31 31 33 34 33
38 38 38 40 41 40 41 44 44 45 47 47 48 48 50 54 60 65 72 74 81 83 78 67 60 72 61 49 46 40 30 26 24 22 24 24 25 27 28 30 30 28 30 33 34 34 35

GFSGBSN_250_spd_060.txt.gz
Wind_Speed
64 66 73 78 82 82 82 84 85 91 89 91 94 93 95 94 91 87 88 93 97 95 91 75 54 45 37 33 34 37 41 54 64 70 74 80 82 85 91 95 97 96 97 96 100 99 102
64 68 72 77 80 84 83 80 85 91 91 92 93 92 96 90 90 89 89 93 98 97 87 77 56 41 39 35 32 34 36 50 63 68 74 81 83 82 88 96 96 95 95 96 97 98 101
66 69 73 76 81 81 83 80 83 91 92 91 92 95 96 92 89 91 87 93 96 99 94 77 57 44 39 34 28 27 31 41 53 67 75 81 84 84 85 93 96 97 95 95 95 96 99
68 70 75 77 79 83 86 80 81 89 90 89 92 93 94 90 87 89 89 91 96 99 95 80 59 44 38 33 24 23 27 36 48 64 71 80 85 84 86 89 95 97 99 94 93 98 100
67 72 73 75 78 81 82 80 80 86 87 87 92 92 93 93 89 90 87 92 96 97 96 81 61 46 40 34 21 18 23 34 45 57 69 73 81 85 87 89 91 96 95 91 91 95 99
68 70 72 75 79 81 80 80 79 82 83 84 89 89 93 92 90 90 87 89 96 98 94 79 62 48 41 35 20 15 19 32 45 53 58 72 76 81 86 86 82 83 87 89 90 92 95
70 74 74 75 77 79 79 81 74 77 79 82 85 86 90 90 91 88 93 91 96 97 94 82 63 47 41 34 20 12 13 27 40 47 53 69 76 76 78 81 87 87 90 92 92 92 94
73 73 76 79 75 81 81 81 71 73 75 79 82 85 88 89 91 89 93 92 94 93 94 80 66 49 41 34 23 15 9 21 36 41 50 63 67 78 81 82 84 86 87 92 93 95 94
74 75 75 78 78 82 79 78 68 70 72 76 80 82 87 85 89 91 93 95 94 95 88 77 64 49 41 33 24 15 7 19 30 38 52 63 71 76 77 79 81 84 85 89 92 92 91
77 76 78 78 81 81 83 74 66 67 70 73 76 80 83 84 86 89 94 92 98 95 89 79 63 50 39 32 24 15 5 17 26 37 51 60 68 69 72 74 79 82 83 87 91 92 90
80 86 79 78 75 80 79 70 64 64 67 71 71 77 80 80 83 91 92 91 94 97 87 78 65 51 39 32 24 13 2 10 25 38 45 52 56 56 65 70 72 75 80 83 86 88 89
86 84 82 77 79 76 70 63 63 62 66 67 69 74 76 77 81 88 96 88 91 92 82 76 64 51 39 32 26 18 5 8 20 30 40 45 50 58 64 68 70 74 76 77 79 82 84
90 86 86 82 71 68 61 58 59 61 64 66 66 71 73 76 78 86 91 91 90 90 86 73 62 52 41 32 25 17 7 9 18 24 31 38 44 52 59 64 67 69 69 71 73 74 78
83 79 82 75 64 56 54 54 57 58 61 63 63 69 71 74 75 82 89 91 88 87 81 73 64 52 44 33 24 20 8 12 14 17 20 26 34 42 50 57 62 63 65 65 66 69 75
75 77 67 59 55 47 50 52 55 54 57 60 61 66 68 71 73 79 86 92 84 81 81 72 64 54 48 33 24 18 9 8 14 21 21 25 32 41 48 54 57 59 62 62 64 67 71
58 55 53 50 50 44 48 49 51 50 54 57 59 64 65 65 69 74 82 88 87 81 79 72 67 56 49 37 24 16 10 7 13 20 25 27 33 40 46 49 50 53 57 61 65 68 69
46 50 48 49 48 45 46 48 50 49 52 55 58 61 60 61 65 70 78 81 90 81 78 72 65 58 50 38 26 16 11 6 12 17 21 23 22 27 33 39 44 47 49 53 58 60 63
46 47 47 47 47 46 45 48 48 48 50 53 56 58 55 57 60 66 74 78 84 83 80 73 66 62 50 39 27 20 9 5 7 19 26 28 26 28 28 33 35 40 43 46 49 55 61
47 49 47 46 46 46 44 45 43 46 49 50 54 56 53 55 57 63 69 77 82 86 81 77 70 63 54 42 28 19 14 4 3 10 18 26 29 32 35 36 36 37 41 43 47 52 55
45 46 47 47 47 47 43 43 44 44 47 47 53 49 50 50 55 60 66 75 81 88 82 77 71 67 63 44 33 18 13 11 3 6 12 19 23 32 35 37 40 42 45 45 49 48 55
42 45 45 45 47 48 43 43 42 43 44 46 50 45 48 48 53 58 64 72 82 87 84 80 75 69 64 56 39 23 14 12 8 6 11 15 20 30 31 33 37 40 45 49 51 55 54
43 45 44 43 43 41 42 41 40 41 44 45 45 43 45 46 51 54 61 70 78 86 88 82 79 71 68 63 46 31 17 10 10 11 10 13 16 21 26 30 35 40 44 48 52 54 58
42 42 42 40 42 40 41 40 38 38 42 43 41 41 43 42 47 52 57 63 75 82 83 81 77 69 73 64 49 36 26 16 8 11 14 13 15 19 22 25 29 35 40 44 46 47 45
41 40 41 37 39 41 40 39 36 36 39 40 37 40 41 42 45 50 56 64 71 81 84 85 84 73 73 65 52 44 31 19 14 13 14 16 17 20 21 25 28 30 28 30 33 33 35
40 38 39 36 38 43 40 36 34 35 39 38 37 39 39 41 43 48 54 61 68 75 79 86 84 77 75 61 59 52 38 29 20 17 15 17 20 22 23 24 24 23 21 23 24 26 28
38 37 37 37 39 42 39 34 33 34 37 36 37 38 37 40 42 47 52 59 66 72 78 82 88 86 72 63 59 57 46 31 25 21 20 19 21 24 26 27 26 25 25 25 27 24 28
38 38 38 38 39 41 39 33 31 32 36 35 36 39 36 38 42 46 50 56 62 69 74 79 87 82 79 69 64 58 51 39 28 22 21 22 23 26 29 30 28 30 31 32 31 31 32
34 32 36 38 39 39 39 34 32 32 36 35 35 38 37 39 41 46 49 55 61 66 72 76 78 82 72 60 62 55 56 46 38 28 23 23 24 27 32 34 31 35 37 37 38 38 38
34 33 36 38 37 39 40 34 33 34 35 35 36 36 36 39 41 44 49 54 60 63 71 73 80 82 83 71 56 56 56 43 38 32 26 24 25 27 31 33 35 35 37 38 38 39 42

GFSGBSN_250_spd_063.txt.gz
Wind_Speed
69 65 65 63 68 67 72 76 79 82 86 90 95 104 100 97 93 91 94 80 77 83 85 87 86 77 60 44 36 33 33 39 55 59 64 67 71 74 77 80 88 95 95 99 103 103 103
70 65 65 65 66 69 69 75 80 83 85 90 99 106 100 98 95 96 95 85 79 83 85 89 88 77 62 47 36 32 30 35 51 57 67 70 72 72 78 82 86 92 97 97 97 102 103
65 63 63 65 67 71 72 75 79 82 88 90 95 105 101 98 97 94 96 91 80 84 86 90 88 76 61 45 37 31 29 32 44 57 59 69 73 74 77 80 85 92 97 100 98 101 103
70 64 66 68 68 71 74 77 79 81 86 87 96 102 99 96 96 95 98 94 83 86 88 91 91 78 62 44 36 30 27 30 40 49 61 68 72 75 76 81 87 89 99 100 100 103 102
65 64 65 68 69 72 74 78 79 83 86 87 93 98 96 95 95 94 96 94 82 87 89 94 89 77 61 44 34 29 24 28 35 43 58 68 72 74 77 82 86 91 99 102 102 100 102
65 66 66 70 68 72 74 79 80 84 87 86 92 97 92 92 92 92 97 97 81 85 91 93 89 77 61 44 32 29 23 24 30 42 53 59 73 79 81 83 81 83 91 95 100 97 99
67 68 67 68 73 74 76 78 81 85 86 87 89 91 90 89 89 92 99 95 83 88 91 94 87 76 58 41 31 25 18 16 29 44 53 63 75 72 72 76 81 85 89 94 98 94 96
72 72 71 72 76 75 81 79 83 84 86 85 88 86 85 86 87 90 95 98 82 86 95 92 89 74 54 38 30 21 13 13 27 38 48 58 68 66 73 80 81 83 88 89 95 91 93
74 74 73 79 78 83 81 83 88 85 83 86 88 82 82 83 84 88 94 93 83 87 93 91 85 69 53 36 29 20 12 11 21 30 45 53 54 67 72 73 75 78 80 84 87 93 94
84 82 80 85 84 86 83 83 88 84 79 79 78 75 77 79 80 87 90 92 82 86 90 89 77 65 49 36 29 22 13 9 19 27 37 43 50 60 67 70 77 80 83 84 87 91 92
92 85 82 84 83 87 86 81 84 80 78 73 69 70 73 73 77 84 85 88 87 87 89 84 74 61 47 34 27 21 11 4 21 32 33 43 51 60 67 69 73 77 79 82 83 88 86
87 89 86 85 86 81 83 80 79 72 72 63 64 67 69 70 74 80 82 85 87 83 89 82 70 61 44 31 26 18 8 6 21 34 42 46 50 59 65 66 69 73 74 76 82 84 83
89 85 87 82 79 76 75 71 68 68 61 56 60 63 65 68 71 77 79 84 86 83 86 79 69 59 45 31 26 19 8 6 15 26 34 39 46 55 56 59 63 66 69 73 76 76 79
89 85 79 74 72 68 70 71 66 57 50 52 56 60 61 63 69 71 76 84 86 80 83 77 67 55 49 32 25 19 8 6 10 16 19 25 34 41 50 53 58 63 67 68 69 70 72
89 80 78 74 71 70 66 62 54 46 46 49 52 57 58 60 66 67 72 83 84 77 81 72 67 60 51 34 25 19 8 3 11 13 19 23 30 39 48 53 57 60 61 62 63 64 68
85 82 71 68 62 58 56 50 45 41 43 45 50 52 54 57 60 63 70 78 83 78 78 70 65 60 53 40 27 20 12 3 9 18 22 26 34 43 51 55 57 60 60 62 63 65 68
85 77 68 62 53 55 49 44 40 40 41 42 46 49 51 54 54 59 68 74 77 76 75 71 65 58 54 48 31 20 13 6 6 14 23 29 32 37 42 46 51 54 56 59 61 64 67
85 74 67 50 47 46 43 41 38 38 38 40 44 45 47 51 49 55 62 70 73 76 75 70 65 58 53 49 37 21 13 7 3 12 18 24 28 31 37 43 46 48 50 54 60 64 67
82 73 64 49 47 45 40 39 37 35 36 39 40 42 44 46 46 53 56 64 68 73 72 72 64 60 55 52 43 28 16 9 2 7 14 22 26 30 33 36 37 41 44 50 54 57 63
79 67 56 44 43 41 40 38 36 34 33 37 40 38 41 41 42 48 52 60 64 72 74 69 67 62 59 57 49 37 21 13 7 5 11 17 25 29 35 39 42 44 46 47 49 51 58
71 64 50 40 41 40 37 37 36 33 33 36 36 36 38 37 40 45 47 54 59 69 74 74 71 62 58 58 54 46 28 15 8 7 8 16 23 26 32 36 39 43 45 48 51 54 52
71 63 54 42 41 39 37 36 31 32 31 33 34 31 35 33 39 42 45 49 56 64 75 77 72 65 61 53 51 50 41 26 12 8 10 14 19 27 29 37 42 44 48 50 51 54 54
64 61 57 42 41 40 38 33 30 29 29 29 33 28 33 32 35 39 46 47 51 58 69 81 77 74 66 59 53 48 43 35 22 12 11 13 16 22 27 34 38 40 42 49 51 52 56
68 64 50 44 42 39 38 32 30 29 27 29 30 27 29 30 34 36 42 45 47 55 63 75 85 81 75 68 60 55 46 37 32 22 14 15 18 20 23 26 31 35 38 43 47 47 49
66 56 45 42 39 38 37 31 31 28 26 29 26 27 28 28 32 36 40 44 46 52 59 67 78 84 80 71 57 56 50 46 36 30 23 17 18 22 24 25 27 27 30 32 35 38 43
63 53 43 39 40 38 37 34 33 28 25 30 22 24 28 28 31 33 39 43 46 49 57 62 74 83 84 76 70 59 51 53 43 33 24 22 22 23 27 27 27 30 30 31 33 33 38
59 53 45 40 39 37 37 35 31 26 25 27 21 23 28 29 31 34 37 42 45 47 53 56 68 75 83 82 74 63 51 48 50 41 33 26 23 24 27 29 28 34 35 35 34 34 39
54 53 45 41 39 38 40 40 33 26 26 27 23 23 26 29 30 32 36 39 44 45 48 55 61 66 73 79 81 72 63 60 52 44 45 39 27 28 29 29 31 38 39 39 39 40 43
53 50 44 42 40 41 43 41 34 28 27 26 26 25 25 29 30 32 35 40 40 45 51 52 57 61 68 67 78 79 74 67 59 53 46 38 38 33 33 35 35 37 39 40 41 43 45

GFSGBSN_250_spd_066.txt.gz
Wind_Speed
69 76 76 77 79 72 72 71 69 71 73 79 83 87 92 99 102 106 108 106 101 88 79 76 79 78 79 77 61 42 34 30 32 42 50 50 55 65 72 74 82 90 92 96 100 99 100
75 82 80 81 82 74 68 68 69 69 73 78 85 90 94 99 107 109 110 107 99 89 83 78 81 79 78 75 57 38 33 30 32 40 52 50 55 63 73 76 81 87 94 99 98 99 105
80 82 86 84 84 72 69 70 69 68 74 79 85 90 96 100 106 109 112 108 101 89 80 80 82 82 78 75 54 38 31 28 32 39 50 53 58 63 70 75 80 89 97 98 100 101 100
91 86 86 85 80 74 71 72 70 70 74 80 86 91 96 100 104 109 113 104 99 88 79 81 84 86 81 72 53 40 29 26 29 37 48 56 59 61 67 76 82 88 94 95 97 98 105
90 90 82 79 77 73 71 71 71 72 74 79 87 91 95 98 102 106 109 101 100 86 76 82 84 86 82 73 52 39 29 26 27 34 42 53 58 65 71 75 81 88 89 93 96 100 102
91 87 83 80 73 71 72 71 70 73 76 83 89 91 94 96 99 103 99 97 96 85 75 81 83 86 82 73 52 39 29 25 24 29 35 47 60 67 69 73 73 76 81 86 90 96 100
96 93 86 77 73 72 69 71 71 72 77 84 88 89 93 94 96 97 94 92 94 83 76 80 82 84 80 71 49 36 26 22 20 26 31 40 53 59 63 70 78 81 84 84 91 97 104
92 92 87 81 78 76 73 72 71 73 78 84 88 89 91 90 91 91 90 89 93 78 77 82 85 85 80 69 48 32 23 18 17 23 33 46 55 64 66 69 77 83 85 84 89 99 106
96 88 88 87 82 83 80 81 73 77 81 83 87 89 87 81 87 84 85 87 93 77 77 81 84 84 79 66 46 31 22 13 11 21 32 42 48 58 66 73 77 81 81 85 91 97 103
103 92 84 88 88 84 81 80 80 82 84 84 83 88 77 78 80 79 82 86 89 75 76 83 82 80 72 59 42 31 21 10 7 15 32 41 51 61 64 69 73 76 80 80 86 90 97
106 100 89 86 83 79 81 82 83 81 80 78 81 75 75 71 72 75 78 82 86 71 74 81 79 74 66 50 39 29 22 11 4 14 26 36 46 50 55 66 71 76 80 79 79 89 91
95 101 95 84 83 77 78 81 73 75 76 74 74 71 67 64 67 71 76 82 82 68 74 78 77 71 63 46 36 26 19 10 2 13 22 26 31 38 41 50 59 69 74 79 85 87 84
63 87 92 91 85 83 74 75 72 70 72 70 70 66 58 60 63 67 73 77 76 64 71 78 73 69 58 44 30 24 18 9 1 10 19 23 26 33 44 54 60 65 70 74 78 73 74
62 64 81 89 87 83 75 69 69 69 72 66 62 55 50 55 60 63 69 72 73 64 70 75 67 61 57 43 29 22 19 9 5 4 12 26 33 38 47 53 58 62 67 72 72 70 70
58 68 67 78 78 77 72 67 63 60 59 56 50 44 46 50 56 59 66 65 69 64 67 72 67 62 57 45 32 24 19 11 5 9 11 18 32 38 47 53 55 59 61 62 66 69 72
58 61 60 66 73 73 71 65 61 55 51 46 43 38 41 47 51 54 60 59 68 71 67 71 67 60 56 45 34 26 21 15 3 9 14 19 27 38 43 46 50 54 59 61 65 69 71
62 58 55 60 64 69 68 63 58 51 46 42 36 34 38 43 47 51 54 54 66 72 64 69 66 58 54 46 35 26 21 17 10 4 12 21 27 27 36 43 48 52 55 59 63 65 68
63 51 53 55 60 65 65 61 43 40 38 35 29 31 35 39 43 47 48 52 63 70 66 67 65 57 49 48 41 30 21 16 13 4 11 15 25 34 41 46 51 55 57 59 61 63 65
60 53 55 52 58 60 53 55 41 37 34 29 25 29 33 36 37 42 44 47 60 64 68 64 65 61 53 45 43 36 27 20 14 8 5 10 20 27 32 37 42 47 49 52 56 59 62
62 56 58 54 57 53 51 48 39 35 30 25 24 27 29 31 35 38 39 44 53 62 63 64 64 64 58 52 46 43 37 25 17 12 10 9 10 21 27 32 37 42 46 50 51 54 60
61 58 57 57 57 49 48 43 33 31 28 23 23 25 27 28 31 34 36 40 48 58 62 66 63 65 63 59 49 46 41 34 23 15 10 10 13 15 21 26 33 36 40 44 47 54 52
64 64 61 59 55 48 40 30 30 28 26 23 22 22 25 24 27 29 32 36 43 52 57 62 66 66 65 63 55 48 44 41 31 22 13 11 13 15 20 22 26 32 37 42 46 49 52
62 59 53 49 50 46 35 26 27 28 26 22 19 21 22 22 25 26 30 32 41 46 53 59 64 66 69 67 62 57 52 45 40 33 21 16 13 17 21 24 27 28 36 42 47 47 52
69 66 61 52 48 45 38 28 28 27 26 23 20 22 19 20 21 24 28 32 36 43 48 54 60 67 69 68 66 61 57 50 41 38 35 26 15 18 20 22 29 33 34 38 39 41 48
64 63 57 55 50 46 36 31 29 29 28 24 22 22 17 18 20 23 25 28 34 37 42 47 54 62 68 69 70 69 58 50 46 43 40 36 32 21 17 21 24 27 35 41 42 45 48
69 62 56 53 49 42 36 31 30 31 28 24 24 20 17 15 19 23 25 26 31 33 38 44 46 54 61 65 68 72 67 60 52 50 46 40 35 33 28 22 21 27 37 34 36 35 44
74 72 62 51 48 42 36 34 33 31 29 27 25 18 14 14 19 24 25 24 29 33 38 41 45 50 54 55 63 72 70 60 60 57 50 43 37 37 35 28 25 32 38 38 38 38 42
76 67 60 58 49 44 38 37 33 31 30 27 23 18 14 14 20 24 26 24 27 31 36 38 43 47 48 52 49 63 67 66 61 54 54 52 46 43 40 37 33 32 36 40 40 42 45
68 61 61 53 50 47 42 40 35 32 29 26 24 19 16 16 21 24 23 23 28 33 35 38 42 47 45 50 49 53 60 65 57 64 56 55 51 46 43 36 35 34 35 36 41 45 46

GFSGBSN_250_spd_069.txt.gz
Wind_Speed
83 73 82 82 81 81 83 84 85 84 82 83 79 76 78 81 84 89 95 102 102 103 87 80 78 75 70 72 69 64 60 47 35 32 37 42 43 45 56 63 76 81 86 93 100 105 104
89 88 94 92 84 84 84 84 82 80 79 77 76 77 78 81 84 89 96 104 102 102 92 84 80 77 74 71 68 66 58 45 33 30 37 42 45 44 55 63 73 79 83 91 95 100 102
102 99 97 92 88 86 87 84 85 76 74 78 72 74 76 79 83 89 95 103 102 102 93 83 80 75 75 75 70 66 53 42 32 28 32 41 44 44 54 61 73 82 83 88 97 100 106
100 98 93 92 94 91 85 84 82 74 74 74 70 72 74 80 83 91 97 103 104 103 90 81 80 74 77 75 71 68 52 38 30 26 30 39 44 47 55 60 72 81 83 89 93 97 104
101 99 94 95 93 91 85 83 81 78 78 69 70 72 73 81 84 91 100 101 103 103 86 82 77 77 75 74 73 68 48 36 29 26 29 36 44 48 53 62 73 84 82 86 92 98 104
105 101 100 94 92 91 87 83 80 77 74 71 72 72 75 80 86 91 97 97 100 98 84 82 75 79 74 73 73 66 44 32 26 25 27 31 42 53 61 64 69 77 83 85 88 93 94
106 104 100 98 98 91 89 79 75 75 74 72 75 71 79 82 87 92 95 92 100 95 82 79 73 77 72 73 70 58 41 29 24 20 21 27 41 50 54 60 67 78 86 81 85 90 96
102 103 97 92 91 93 88 83 79 72 69 71 70 74 78 81 85 87 91 93 96 90 77 75 72 74 72 73 69 54 38 27 22 15 17 29 39 45 60 65 69 75 81 82 86 91 95
67 70 71 77 83 85 85 81 83 80 65 68 73 78 79 76 82 83 86 92 91 85 77 72 72 74 74 72 67 49 35 25 16 11 19 31 38 46 57 62 65 74 78 82 84 88 92
74 71 70 60 58 70 74 79 78 77 69 66 69 69 73 77 80 79 84 87 84 81 74 67 72 75 76 70 63 46 30 21 9 6 18 28 37 48 55 61 65 70 77 82 79 83 89
77 65 63 57 53 59 55 68 71 70 69 66 69 70 69 71 77 80 78 80 77 79 71 65 68 73 73 70 62 43 29 18 7 5 15 26 37 43 53 62 63 69 74 79 78 85 90
73 73 66 67 51 57 51 65 64 66 60 62 63 65 68 70 72 73 70 69 72 77 68 65 66 70 71 66 56 38 27 18 8 3 11 23 33 38 42 53 61 67 71 76 80 81 85
73 77 62 62 62 55 49 58 59 63 59 59 57 60 60 63 65 60 59 63 69 72 62 62 63 67 66 61 49 34 25 19 11 7 8 17 25 31 42 53 59 65 72 77 79 79 81
63 67 77 71 63 50 46 52 54 57 54 55 55 57 55 57 54 53 54 58 65 69 59 59 61 62 62 59 46 31 23 18 10 9 9 15 18 19 30 43 53 63 71 76 76 74 72
66 77 80 74 62 51 47 53 50 51 52 51 51 50 48 47 44 47 49 53 61 65 56 58 58 58 59 52 43 32 23 19 10 6 12 15 22 23 27 36 49 52 58 65 70 70 74
63 70 72 67 56 50 50 49 44 50 45 48 45 43 44 39 38 40 46 50 57 60 55 57 59 57 51 46 41 34 25 20 15 6 7 13 22 28 33 40 47 52 57 62 65 68 71
63 66 70 66 71 54 49 39 42 40 43 39 40 39 39 33 32 35 41 46 50 56 51 55 57 55 50 47 42 37 29 23 18 12 4 9 17 26 32 41 46 49 53 58 63 66 67
67 72 73 68 67 53 48 44 38 38 37 36 34 32 29 27 26 31 36 42 45 51 48 53 59 56 52 46 42 39 35 27 21 17 14 2 11 19 25 30 36 43 49 53 57 60 64
61 71 74 71 59 53 50 44 40 37 33 31 29 28 24 22 22 27 31 38 41 48 49 52 56 56 55 53 47 41 36 31 26 19 15 9 4 16 19 23 35 42 47 50 53 58 62
55 67 73 68 59 52 48 43 39 36 30 31 29 26 22 17 19 22 27 33 38 44 52 48 52 56 53 54 48 44 38 36 32 27 19 12 8 3 14 20 26 34 40 43 46 51 56
48 61 70 66 60 53 47 41 39 29 32 26 24 25 19 15 16 19 25 28 33 40 47 54 52 55 55 54 49 45 43 39 38 35 29 22 15 10 7 9 19 28 35 39 46 49 51
46 60 67 65 58 56 48 45 35 35 29 26 26 24 17 14 11 16 21 25 31 36 43 50 55 56 56 57 57 53 51 44 38 35 33 27 22 16 12 10 12 16 25 34 40 44 50
47 58 62 63 59 49 49 40 39 33 29 27 28 24 17 12 9 13 17 21 27 31 38 45 51 57 60 62 61 57 54 52 46 40 36 31 27 22 16 15 14 16 19 23 33 39 46
54 61 65 66 60 55 48 43 40 33 32 31 30 24 17 11 7 10 15 19 22 26 35 41 47 51 56 57 60 61 58 55 53 52 43 36 33 29 22 20 20 19 22 24 26 32 39
49 65 69 62 58 51 45 47 38 36 35 34 29 25 18 12 7 8 13 18 20 23 29 34 40 46 46 50 54 61 64 63 56 55 51 45 39 33 30 23 21 26 25 28 32 37 38
67 74 70 63 58 54 49 46 42 39 38 34 30 25 21 14 8 7 11 16 18 21 27 32 35 39 41 44 48 51 59 56 58 51 53 53 48 42 40 35 24 22 25 29 34 39 42
65 78 76 70 66 60 50 46 41 40 38 34 31 28 21 15 9 6 10 15 15 20 25 31 34 35 38 40 43 51 48 51 53 54 49 46 44 45 44 38 39 38 34 28 24 33 42
63 72 68 67 62 59 55 45 41 38 36 35 32 26 20 17 8 7 9 13 14 18 24 30 34 35 37 37 43 46 50 50 45 53 53 45 44 42 43 45 47 31 32 32 31 31 33
72 73 73 65 62 56 49 48 45 42 37 33 30 26 22 15 10 8 10 11 15 19 23 28 31 37 39 41 39 42 46 46 52 44 56 58 52 52 53 49 46 43 32 29 32 31 34

GFSGBSN_250_spd_072.txt.gz
Wind_Speed
110 111 110 110 100 94 88 87 85 84 83 77 75 76 76 76 76 76 78 79 83 85 88 89 81 69 67 67 67 70 71 70 64 59 53 45 39 39 46 49 51 59 73 80 92 101 107
114 108 110 107 99 91 88 89 88 86 83 80 77 75 75 75 74 77 79 81 85 85 90 89 82 67 68 65 65 72 74 69 63 54 43 37 37 41 45 49 47 59 74 80 91 96 103
115 112 110 106 100 96 91 93 89 85 81 77 77 75 75 76 77 76 79 82 83 85 91 87 83 68 67 67 67 73 72 67 58 44 34 33 35 39 44 48 53 61 76 80 88 95 100
110 110 110 107 104 100 96 94 93 88 85 81 76 74 75 76 78 77 81 83 83 86 90 84 77 66 68 68 70 72 68 64 52 37 29 29 33 41 45 47 55 64 74 77 85 92 98
97 105 100 103 101 102 99 99 95 92 86 77 77 73 72 71 73 73 79 81 79 86 87 83 68 68 68 70 73 70 63 59 45 31 24 27 33 40 44 50 57 66 70 75 83 88 97
83 82 82 85 87 92 97 97 97 97 90 83 77 71 68 68 68 72 76 76 80 82 84 79 65 73 68 72 71 68 64 52 35 26 22 24 31 38 43 46 52 58 69 75 82 88 94
76 70 74 80 79 75 80 82 86 89 86 84 79 72 66 67 66 71 72 75 77 83 82 75 68 67 67 71 68 66 59 44 32 24 20 21 28 34 41 50 55 61 70 75 81 86 91
81 74 74 73 83 74 72 72 75 82 81 79 74 73 63 61 66 69 69 73 77 81 79 71 69 68 67 68 66 64 54 39 29 21 17 22 30 35 41 50 55 61 69 75 81 85 89
82 77 67 64 68 80 73 67 66 71 69 74 67 63 57 57 63 65 67 72 77 81 77 69 67 65 68 67 64 62 50 35 26 17 14 21 31 39 47 53 54 59 65 69 75 80 83
88 77 67 62 60 71 72 65 53 55 53 62 60 52 52 53 58 60 66 69 73 73 72 67 66 64 68 64 62 58 45 31 22 16 12 17 25 32 40 51 55 58 67 73 81 81 83
92 86 72 66 64 69 64 62 60 56 54 57 54 43 45 49 52 55 61 65 68 72 68 62 65 61 62 60 60 54 42 28 20 11 7 14 24 35 41 48 52 59 70 74 81 83 84
91 79 62 60 60 69 66 66 67 61 52 54 43 40 39 48 47 51 55 59 66 68 62 59 61 61 59 57 56 48 36 24 16 5 2 11 22 32 39 48 57 62 71 74 74 81 83
73 66 62 59 57 60 63 68 65 62 55 49 36 37 39 44 44 50 51 56 62 62 55 55 55 57 55 53 51 42 33 21 15 7 4 10 21 26 34 43 51 57 65 69 74 80 80
62 57 55 55 53 57 65 64 64 59 53 42 35 32 38 37 37 42 45 50 56 57 50 48 53 52 53 51 48 39 29 18 16 9 8 11 17 33 40 47 51 55 61 70 72 70 78
51 48 44 50 45 58 68 69 63 56 49 41 35 34 37 31 34 34 38 46 50 50 47 44 48 48 51 46 44 36 27 18 15 9 9 13 17 23 32 40 47 51 58 64 70 69 71
43 42 37 33 37 61 68 69 68 59 48 41 36 35 31 27 28 27 34 39 42 46 43 41 46 46 44 45 43 35 29 19 15 11 7 14 19 23 27 31 39 48 55 61 66 66 63
37 31 26 29 43 62 66 68 60 51 49 41 34 31 26 22 21 23 28 30 38 40 40 39 42 43 40 44 42 37 30 23 17 14 10 3 13 29 35 35 40 46 50 56 61 64 65
26 19 23 27 33 52 63 61 57 51 47 42 37 28 20 19 15 17 21 25 33 35 37 35 40 42 43 43 42 36 30 24 19 17 14 12 5 10 27 33 40 45 47 51 57 60 63
16 17 30 27 40 59 62 57 55 53 48 40 33 29 20 18 11 14 15 20 28 34 33 34 38 43 44 45 41 38 35 30 26 22 18 15 11 4 5 10 28 39 44 48 51 56 58
13 27 35 37 42 57 57 59 55 54 46 42 37 27 24 16 12 10 10 16 21 32 32 34 37 43 47 49 45 41 40 37 35 29 23 18 12 7 1 7 11 20 33 42 47 52 57
21 31 35 36 46 57 60 58 59 51 47 43 32 32 22 17 12 6 6 11 18 27 37 38 39 45 49 51 47 47 45 44 41 37 33 27 20 11 6 2 3 7 14 29 38 43 48
30 41 41 44 51 62 57 60 56 52 49 41 38 29 26 19 12 5 2 7 13 21 30 38 44 46 50 51 51 51 54 48 44 43 41 36 28 23 17 9 5 6 9 16 24 35 43
29 41 42 51 57 62 59 60 56 52 45 38 37 33 28 20 13 6 1 4 10 19 25 30 36 43 48 50 55 55 56 52 51 51 48 47 43 38 34 24 16 9 10 16 20 25 30
40 52 51 57 60 57 63 62 57 53 45 43 35 34 28 21 14 8 3 2 6 15 21 27 29 36 43 46 51 54 52 49 48 46 48 48 48 48 41 37 30 22 15 13 16 21 26
46 54 57 61 58 64 62 59 55 50 50 44 37 36 28 22 15 9 3 2 6 13 17 23 29 30 38 43 47 50 48 51 50 47 44 43 45 40 38 39 33 35 29 27 23 21 25
42 56 64 64 71 69 64 55 50 47 48 43 41 35 30 22 16 11 5 2 4 11 18 22 26 30 28 37 42 44 47 43 48 47 51 48 45 39 37 36 33 21 25 26 27 26 28
46 55 61 64 65 63 61 55 52 46 45 40 40 35 30 22 17 13 6 2 2 9 15 18 24 29 33 36 37 41 44 47 46 44 51 50 42 47 49 49 47 45 34 34 30 21 26
47 52 55 67 69 63 58 57 52 47 44 39 39 35 30 23 20 15 7 1 2 5 10 16 22 27 32 36 40 41 45 45 47 45 48 49 53 48 49 50 52 50 49 46 43 42 41
49 59 63 69 68 64 59 57 48 45 44 40 40 36 31 25 22 16 9 3 1 4 8 14 19 24 30 34 39 43 46 50 47 48 50 48 50 54 54 57 60 54 54 53 50 49 50

GFSGBSN_250_spd_075.txt.gz
Wind_Speed
116 116 118 116 116 112 112 114 116 112 108 101 93 87 82 74 73 75 73 80 77 77 77 79 80 75 70 68 66 63 60 58 61 68 64 65 70 68 65 58 56 51 56 57 64 73 87
121 120 119 117 113 112 114 115 111 108 107 103 98 87 80 78 74 73 77 79 75 75 76 78 77 73 68 65 65 63 63 64 66 66 68 69 67 63 55 47 46 49 51 59 67 77 86
98 99 101 102 104 102 104 103 101 104 102 104 98 93 85 81 73 74 75 79 76 75 75 79 76 70 68 64 64 65 64 68 69 69 69 66 59 52 44 42 47 51 54 62 68 74 87
87 88 86 84 83 88 92 84 87 91 93 95 92 93 88 79 76 74 78 77 78 75 75 77 72 69 62 63 60 61 66 69 72 70 66 53 47 40 37 39 43 46 56 60 66 77 89
85 86 81 78 80 82 77 76 78 79 81 80 83 86 85 80 76 76 78 79 78 75 75 74 69 65 61 61 60 62 65 67 68 63 53 41 35 33 35 38 45 48 49 54 64 74 88
86 86 87 82 74 77 75 76 71 76 76 75 76 76 80 76 75 79 77 76 74 72 75 70 64 62 58 61 61 65 65 65 60 53 40 33 28 30 33 35 37 37 47 54 62 72 83
81 85 83 82 79 69 69 70 68 70 68 70 72 70 74 70 71 73 71 70 68 68 72 65 62 58 61 58 62 64 63 60 53 41 33 27 25 28 31 33 37 44 51 53 62 72 81
85 87 85 82 74 68 65 66 69 66 67 64 66 61 63 65 62 66 65 64 62 64 67 60 60 55 56 57 60 60 57 54 46 35 29 23 22 27 30 33 39 45 52 56 62 73 79
87 88 86 82 74 69 63 59 65 61 65 60 60 59 59 57 56 59 60 57 53 59 60 55 56 55 55 56 59 58 55 49 40 31 25 15 17 25 29 32 39 43 49 53 61 72 77
91 90 87 84 74 70 62 53 60 59 63 58 58 55 55 48 50 49 50 47 49 52 52 50 50 54 54 57 57 54 53 46 35 27 18 10 12 22 30 35 42 45 50 56 63 71 80
89 92 91 85 74 66 59 56 56 62 59 56 53 54 49 45 40 38 38 41 44 45 46 47 49 49 53 55 54 53 48 41 30 22 14 7 12 19 33 42 45 48 54 58 61 66 75
89 90 83 79 68 59 55 47 49 61 61 53 54 52 43 36 31 30 31 37 39 41 41 44 46 48 51 50 50 49 44 35 25 17 7 4 13 19 31 41 46 48 50 55 63 71 77
82 80 69 63 58 53 47 49 52 58 60 51 56 47 39 30 29 25 28 33 37 37 33 40 43 46 45 48 48 43 39 31 21 16 3 3 11 21 28 36 40 41 53 60 67 66 69
70 63 58 51 44 42 44 48 49 59 54 58 51 42 36 32 26 19 23 31 34 32 32 37 38 42 40 43 43 39 33 25 18 14 4 5 12 17 26 33 42 44 56 61 61 57 65
56 51 45 38 32 33 37 39 51 58 55 57 51 42 37 31 18 19 22 27 31 26 31 34 36 34 35 40 39 36 30 21 16 14 7 8 14 18 25 32 36 43 46 47 54 52 58
47 41 32 26 21 23 31 42 47 57 61 55 51 43 39 25 21 18 19 25 26 23 28 31 34 32 33 37 37 33 29 24 16 17 10 10 12 18 22 27 34 39 39 43 45 45 52
38 29 20 14 15 23 35 33 38 47 57 56 50 47 36 30 19 14 17 22 18 21 24 28 30 32 31 33 35 32 32 27 20 17 17 7 10 17 20 25 30 34 40 42 43 46 50
30 18 11 9 16 24 31 37 48 51 55 53 53 44 38 27 18 13 11 12 16 21 21 24 30 31 32 33 33 32 34 32 26 22 19 14 6 1 11 16 30 35 39 42 44 44 45
21 11 3 10 18 24 35 45 56 61 58 56 52 46 37 28 21 14 7 7 14 20 20 22 29 34 38 36 36 38 39 36 33 30 25 19 11 6 8 12 12 30 36 40 44 47 46
13 4 10 17 22 28 43 57 60 57 58 54 53 45 36 31 22 14 5 11 12 17 19 22 30 35 38 42 39 40 44 42 39 37 33 29 22 16 6 3 8 15 28 35 40 42 45
4 6 14 24 23 33 54 59 58 56 55 55 50 46 38 31 23 14 10 12 13 18 20 25 31 38 43 43 43 44 42 44 47 48 46 42 36 29 21 13 5 1 7 15 28 36 39
5 12 16 24 33 44 51 59 56 53 59 55 51 45 39 31 22 16 14 13 13 18 20 27 34 40 43 46 48 50 50 50 51 53 49 44 44 46 42 32 23 15 6 5 11 21 31
9 19 24 28 40 48 51 50 56 58 58 53 47 45 40 30 22 18 15 12 13 18 22 26 29 37 42 45 48 50 51 53 51 53 49 49 51 51 49 46 41 36 30 18 12 13 17
17 36 42 38 49 50 49 57 58 59 56 50 47 42 35 28 22 19 15 11 12 14 18 24 27 31 37 40 44 48 50 50 49 48 48 45 45 45 43 43 42 41 37 35 31 24 17
28 37 43 50 57 60 59 59 60 56 48 45 43 42 36 26 21 18 15 13 11 12 17 22 26 30 29 37 41 44 44 42 45 49 51 50 52 48 47 46 42 43 38 36 36 35 33
36 46 56 55 58 60 62 60 57 51 46 43 42 39 34 25 20 17 14 13 11 9 13 17 20 24 30 35 40 40 43 46 46 45 47 47 48 50 51 52 56 50 45 40 41 40 38
46 50 51 56 52 58 61 58 54 47 46 46 44 37 31 24 19 16 13 12 9 7 9 12 18 21 26 31 36 40 42 46 48 49 51 53 52 52 52 54 60 55 52 48 47 49 44
47 48 46 46 51 56 58 58 49 47 46 43 44 38 31 23 19 16 13 10 8 5 6 10 15 19 24 27 31 37 41 43 47 49 51 51 52 54 55 56 61 58 60 59 54 54 57
39 40 48 51 53 57 55 51 47 45 42 42 41 39 32 22 19 16 13 9 6 4 4 8 13 18 23 27 29 32 35 38 41 44 48 50 52 54 56 61 62 63 65 61 66 68 70

GFSGBSN_250_spd_078.txt.gz
Wind_Speed
88 92 96 99 98 102 107 111 111 112 115 112 114 113 110 110 106 101 96 88 86 83 80 77 74 73 72 76 77 73 68 67 62 64 65 66 65 68 69 72 75 70 68 67 73 75 71
79 81 86 86 84 84 84 85 87 95 95 98 95 94 97 96 93 92 94 84 81 81 80 75 73 74 73 74 77 72 67 67 64 64 66 65 67 68 69 72 72 70 69 68 68 72 72
81 85 83 86 89 89 87 86 86 86 85 90 87 88 84 83 83 81 83 78 77 76 76 74 72 75 74 72 73 70 68 65 65 63 66 67 69 67 68 68 67 66 62 64 62 66 65
78 84 88 87 83 86 92 92 87 82 83 80 77 82 80 81 78 73 71 75 71 72 70 73 73 74 72 72 69 67 66 67 64 65 66 68 66 65 64 61 58 55 53 53 54 58 60
81 80 80 81 84 84 83 86 88 86 79 76 72 73 73 68 70 65 64 66 65 66 70 70 72 72 71 69 67 65 64 62 65 68 68 66 63 59 54 49 46 42 44 44 49 53 60
82 87 82 79 80 82 82 76 72 79 78 73 69 68 64 64 66 59 61 61 61 62 65 66 70 68 68 65 67 63 59 57 61 64 65 60 53 46 43 40 37 37 36 39 45 48 54
87 90 87 79 79 80 80 78 70 61 64 69 66 60 57 62 60 56 57 56 57 56 59 63 64 63 62 62 62 59 56 57 58 60 56 47 38 36 32 30 31 31 37 38 45 51 59
91 93 92 88 83 81 78 76 66 56 54 57 62 56 56 58 54 54 51 52 52 51 54 59 57 56 57 57 58 56 56 55 57 52 43 37 31 27 24 23 28 32 35 40 50 55 63
97 96 93 87 85 83 82 75 70 60 49 48 50 50 58 61 49 49 47 44 45 45 51 51 50 50 52 54 52 55 54 56 51 43 34 28 23 20 19 23 27 30 33 40 47 51 59
98 94 92 87 83 78 74 68 62 56 49 44 42 46 56 57 43 44 43 43 40 41 44 41 40 42 47 47 51 52 55 53 45 34 29 24 18 15 18 23 26 32 37 40 46 52 59
102 102 96 86 75 69 61 54 50 48 48 48 44 46 62 39 40 42 38 36 36 37 30 30 32 38 40 42 48 51 49 44 36 30 26 20 12 9 14 23 28 31 35 39 44 51 61
94 89 80 73 71 66 58 50 38 33 43 50 53 58 42 39 41 42 34 32 33 23 19 23 31 34 34 39 46 46 43 38 34 25 19 10 4 5 9 20 29 31 31 34 44 51 59
88 76 68 62 56 52 44 37 32 27 33 51 54 50 39 42 43 35 26 27 17 10 15 21 27 28 32 38 41 39 35 31 28 21 12 6 2 4 9 20 25 29 32 36 43 50 58
76 66 57 50 44 37 32 24 22 21 31 45 42 42 46 41 36 27 24 14 0 6 16 20 22 24 30 35 34 33 28 26 22 17 14 8 6 6 9 19 25 28 29 34 41 49 58
67 56 46 39 33 25 22 17 17 24 26 34 38 48 48 39 32 25 17 11 1 10 15 16 19 24 26 30 29 27 23 20 19 16 16 11 10 10 8 13 20 25 29 34 38 41 51
57 45 38 30 20 15 11 15 14 21 31 45 53 54 45 40 32 22 14 8 7 11 13 16 21 18 20 24 26 24 23 20 22 20 20 14 10 11 9 10 14 20 23 25 28 33 43
48 37 27 17 9 6 8 13 14 25 31 41 53 52 45 39 30 23 15 8 10 11 15 19 18 16 20 24 26 25 25 24 23 23 21 20 14 13 8 6 9 11 13 16 18 22 25
41 28 16 7 2 3 8 15 22 34 43 47 52 52 48 38 30 20 14 11 12 14 20 19 20 21 20 25 29 27 27 26 29 28 25 21 21 16 14 10 6 10 10 13 14 15 17
31 19 11 9 7 10 17 27 33 39 43 50 48 52 46 38 31 21 15 11 16 21 27 24 23 22 24 28 31 36 35 35 40 38 35 30 25 19 10 10 3 9 11 15 16 15 15
25 20 13 11 18 16 25 35 49 47 54 50 47 50 44 36 30 24 16 16 18 25 30 29 25 25 31 34 37 40 43 48 47 47 46 41 37 31 25 18 10 9 10 10 16 17 17
33 27 16 18 23 18 25 31 42 53 54 56 54 51 44 36 31 25 21 20 23 27 29 29 28 34 38 41 45 49 48 49 50 51 54 52 51 46 42 39 31 24 17 13 13 14 16
36 26 19 28 24 21 28 40 43 43 52 58 53 49 42 38 33 27 24 23 26 29 30 32 32 34 40 45 46 46 50 50 52 54 54 53 51 50 47 45 42 37 36 30 21 14 14
30 22 28 30 32 35 37 45 48 50 56 53 49 43 38 37 34 29 25 24 25 29 28 29 32 37 41 46 49 49 47 47 48 51 52 52 53 52 52 49 45 42 38 35 29 26 23
24 24 40 40 42 37 38 44 49 52 54 52 46 40 35 35 33 27 24 24 24 26 29 27 30 33 38 41 43 44 46 45 46 48 47 47 51 48 49 47 46 42 38 35 34 35 27
25 18 35 41 43 45 46 48 48 51 51 49 42 37 32 32 30 25 23 24 24 23 24 26 29 32 35 37 40 39 40 42 47 46 44 48 46 49 47 46 47 48 44 44 43 40 33
11 10 29 35 35 37 45 47 52 50 48 45 40 35 30 28 27 23 19 21 20 20 22 24 26 29 31 33 35 37 40 41 43 44 45 43 44 43 45 48 50 45 47 49 47 45 46
8 9 11 25 31 40 43 51 50 45 44 40 34 31 27 26 24 20 17 17 16 16 19 20 21 23 24 28 32 35 37 39 41 42 43 45 46 48 49 50 52 54 52 54 56 54 60
15 23 22 17 23 38 47 48 45 44 41 40 30 26 23 23 19 17 15 14 12 11 12 14 16 21 24 26 30 33 35 38 40 41 43 45 47 48 50 52 55 54 56 57 61 60 64
22 23 23 25 27 33 50 46 45 44 41 39 31 25 21 18 16 14 11 10 8 7 9 9 13 16 20 22 25 29 32 35 37 39 42 44 44 47 50 52 54 57 58 60 63 63 68

GFSGBSN_250_spd_081.txt.gz
Wind_Speed
70 75 77 80 82 82 81 83 82 84 84 83 86 90 90 85 88 91 95 91 90 88 81 84 88 83 78 77 79 76 77 76 75 72 70 71 68 70 70 70 72 72 70 68 72 73 75
78 77 81 82 85 84 86 86 85 85 83 86 83 83 83 83 81 75 79 77 76 73 67 71 75 73 72 73 72 76 76 74 71 70 70 70 71 72 70 70 71 72 70 68 70 73 75
77 78 83 87 88 90 91 88 88 88 83 84 85 82 80 79 76 71 74 72 72 68 64 68 67 64 63 67 72 73 72 68 67 69 70 70 70 70 72 71 70 71 69 71 72 78 75
81 83 84 86 87 95 93 90 88 84 82 83 80 79 77 76 72 69 65 65 64 62 61 61 58 58 58 65 68 68 67 64 63 65 69 67 68 69 70 71 70 70 73 73 76 76 75
89 89 87 87 89 92 93 91 88 80 75 73 75 74 75 71 70 58 57 59 61 56 55 55 52 51 55 60 62 62 62 62 62 65 64 64 66 69 69 71 72 72 73 72 70 64 64
89 89 84 85 88 90 89 88 85 78 71 66 66 66 66 64 59 56 55 57 56 49 49 47 48 49 51 54 54 57 58 59 59 60 61 65 67 69 68 65 64 62 58 55 52 49 40
87 85 86 88 88 90 89 86 83 80 75 69 64 58 57 54 53 50 54 53 47 45 40 41 44 46 44 46 49 51 53 54 52 53 58 62 65 62 58 56 52 46 44 41 40 40 40
92 90 89 88 89 87 87 85 80 76 73 68 59 55 49 47 46 46 48 50 40 38 36 38 41 36 36 40 44 48 49 47 47 53 56 59 54 51 46 41 38 38 35 32 34 39 39
95 90 88 89 88 84 78 72 68 66 63 62 53 50 45 44 41 42 48 41 35 34 33 34 29 27 30 34 42 42 43 45 50 50 52 49 43 36 32 30 31 29 30 30 30 32 38
93 93 91 86 78 72 65 57 52 50 47 45 43 42 46 42 39 44 41 31 35 34 28 18 18 18 24 33 38 36 40 48 48 49 43 37 32 26 21 20 19 21 23 25 26 32 39
94 91 82 78 74 68 61 52 41 34 30 34 32 38 47 40 42 41 33 32 32 26 16 12 7 15 23 30 31 38 42 43 45 39 31 26 21 15 10 10 11 15 21 22 25 31 40
90 82 75 69 63 58 50 39 29 22 19 26 26 38 48 40 36 27 30 32 22 13 9 1 6 14 20 22 30 36 40 39 34 26 23 18 13 7 3 3 10 14 18 20 22 28 37
81 74 65 58 51 43 34 24 14 10 16 20 25 35 42 34 28 29 27 22 11 8 7 3 5 11 14 24 30 33 34 30 24 21 15 11 5 1 3 6 10 13 15 18 22 28 40
74 66 58 50 39 30 21 10 3 11 17 23 32 35 29 27 27 27 21 14 14 12 11 6 4 9 17 24 26 26 25 23 18 13 11 10 7 9 8 9 14 17 15 14 17 28 34
68 59 49 40 31 20 12 3 6 12 20 23 22 27 33 27 28 27 21 22 18 19 13 8 9 13 17 18 19 21 21 19 13 14 16 17 16 16 15 12 10 14 13 15 18 23 27
59 50 41 31 22 14 12 13 19 14 16 28 31 31 33 35 34 34 31 28 23 20 15 12 10 10 13 14 15 15 15 16 17 18 26 30 25 22 20 17 15 11 7 4 7 13 18
49 41 32 23 21 19 21 21 26 25 27 35 34 35 41 43 42 39 33 29 25 21 16 12 12 11 12 12 16 20 21 20 21 22 23 30 32 34 36 29 23 21 16 16 14 7 7
46 39 31 28 31 35 36 28 28 31 35 38 40 45 48 49 45 40 36 33 27 23 20 18 14 16 16 22 27 30 31 29 28 29 30 30 30 28 29 29 27 24 22 19 17 14 14
50 43 39 40 39 39 31 29 29 30 42 46 47 48 53 51 46 46 43 36 31 29 26 21 22 21 26 30 32 35 41 41 38 37 39 39 39 37 36 36 34 30 26 21 18 14 14
53 50 47 48 45 35 29 33 43 43 47 50 50 52 52 49 50 48 46 39 35 33 29 31 34 34 36 37 37 45 49 50 49 47 47 48 47 47 45 41 41 39 37 32 26 20 18
42 47 48 47 40 34 31 38 47 44 49 50 51 50 49 49 47 47 45 42 38 34 33 37 40 45 45 48 49 51 54 54 54 54 55 55 53 53 49 50 49 46 43 40 41 34 26
42 35 38 43 40 39 41 46 48 47 48 51 49 45 45 45 43 44 43 42 39 37 39 41 45 47 47 51 52 53 57 53 54 54 55 56 56 55 54 56 53 52 50 50 49 43 36
49 34 29 30 36 38 39 40 40 43 46 50 44 43 45 43 42 41 39 40 39 40 42 43 45 47 48 48 48 52 49 50 51 53 54 55 52 51 50 48 48 48 47 43 38 34 35
45 35 24 20 25 29 32 39 42 43 45 45 42 41 39 39 39 38 38 35 35 38 39 42 45 46 46 46 47 46 44 45 45 47 48 50 50 48 45 44 45 40 39 37 41 37 32
39 33 20 14 16 18 32 39 42 40 38 42 40 36 35 33 35 35 34 32 33 35 37 38 39 42 43 45 44 46 47 48 47 46 49 46 47 46 44 44 40 42 43 40 41 40 36
38 18 18 7 10 22 27 35 37 35 34 34 34 33 30 28 31 30 28 27 26 26 29 31 33 34 37 39 40 41 42 43 44 43 44 45 46 45 44 45 45 43 43 43 42 44 42
39 29 9 3 11 18 25 33 31 31 31 30 29 28 28 24 26 25 23 20 20 21 23 26 26 29 32 34 35 35 37 38 39 39 40 41 41 41 43 42 44 45 46 47 47 47 50
33 33 30 7 9 15 25 30 28 26 25 25 24 24 20 19 18 19 19 18 15 15 19 21 23 24 25 27 28 31 33 34 34 36 37 38 39 40 42 42 44 46 48 49 49 52 53
35 30 26 18 14 17 26 28 28 25 24 22 20 21 17 13 14 12 11 11 11 12 14 16 19 20 22 22 23 25 27 29 31 33 34 37 37 38 41 42 44 46 48 51 54 56 57

GFSGBSN_250_spd_084.txt.gz
Wind_Speed
73 72 74 77 78 80 83 85 84 86 86 87 87 89 82 80 77 79 81 79 83 84 86 82 77 78 75 82 83 85 78 74 74 74 74 77 79 77 76 72 70 67 70 68 69 64 65
82 85 83 86 85 85 84 86 87 87 85 85 89 92 89 84 81 74 76 78 74 76 77 77 78 71 65 67 69 70 68 66 69 69 72 74 72 72 70 70 71 70 71 68 66 61 62
87 94 94 95 91 89 89 89 89 90 87 90 89 91 90 84 82 76 75 74 71 71 66 67 70 63 63 62 61 62 60 62 65 66 67 68 68 69 66 68 69 71 70 65 60 62 62
95 98 98 96 93 89 90 90 90 93 93 87 87 89 88 83 79 74 73 70 66 63 60 57 66 60 62 59 55 57 56 58 59 60 60 62 63 65 65 66 69 69 65 62 63 61 63
101 103 105 100 93 89 87 92 90 89 89 87 83 78 76 76 73 70 68 67 58 57 54 56 58 51 51 48 50 49 50 51 52 53 54 57 61 63 65 65 65 62 62 62 62 64 66
109 112 107 99 89 87 86 84 85 85 82 81 79 73 69 66 66 65 64 62 50 49 51 52 46 42 43 43 43 44 44 44 44 45 47 54 58 59 59 59 61 62 63 65 68 68 68
115 111 99 90 85 84 85 82 82 81 77 75 73 68 61 58 58 60 59 49 41 42 49 43 37 35 35 33 34 36 39 37 38 41 45 50 52 53 57 60 63 65 66 67 66 63 63
105 95 89 82 76 72 69 67 65 64 62 61 60 58 54 52 54 53 49 38 39 40 35 33 33 27 25 28 31 29 31 31 33 38 41 43 50 53 56 57 58 57 53 50 48 47 46
90 85 78 72 67 60 56 53 51 49 50 49 50 48 44 43 45 43 41 35 35 35 28 26 21 19 23 25 20 23 22 27 30 34 41 45 48 48 49 48 47 44 40 36 35 37 38
85 82 76 66 56 49 44 39 35 32 33 38 39 37 32 28 34 41 41 36 31 26 25 16 14 15 15 14 15 18 21 24 30 36 39 38 37 39 39 35 32 31 25 23 23 24 25
77 73 66 57 47 39 34 26 21 17 18 25 24 23 23 29 39 43 36 26 25 27 17 13 16 15 11 8 13 15 19 26 29 31 33 29 32 28 24 21 17 16 12 13 14 18 25
70 66 60 48 39 32 24 16 11 8 10 11 14 20 27 35 39 34 27 27 25 22 16 14 15 10 4 5 11 17 21 22 26 28 25 23 19 16 15 10 7 7 7 8 11 15 18
65 58 51 41 33 24 17 10 5 2 6 14 20 25 26 20 18 25 32 30 24 21 19 18 11 5 0 5 10 12 16 19 22 19 15 12 8 4 2 4 7 10 9 9 11 14 18
58 50 42 37 31 24 19 16 12 11 15 13 14 17 23 29 37 42 41 35 26 27 23 16 12 5 3 5 8 12 15 15 13 9 4 3 5 10 10 8 11 14 14 11 11 13 15
55 45 39 34 32 29 27 25 23 21 31 35 37 35 36 36 45 45 39 37 32 28 22 17 11 7 6 6 11 12 9 7 4 4 7 14 18 19 22 20 17 18 16 12 9 6 6
51 42 41 41 44 40 44 40 39 43 52 47 41 37 43 46 47 47 43 39 32 28 22 16 13 12 12 16 14 10 6 7 8 9 15 20 24 28 29 28 27 31 29 23 16 13 8
59 50 50 51 58 63 57 47 50 51 51 47 48 50 51 51 51 48 43 38 32 27 23 22 23 19 21 18 18 15 17 15 15 21 24 25 24 28 28 30 30 29 34 30 30 23 24
74 71 69 68 61 55 55 56 55 53 50 54 54 55 52 51 50 45 41 37 32 30 29 30 26 27 25 27 26 26 26 26 28 30 26 26 28 29 27 29 32 32 32 37 31 32 25
72 65 63 61 55 57 59 59 62 63 57 56 56 53 49 52 50 46 44 41 40 37 35 30 32 35 39 38 37 39 40 41 41 40 37 35 32 31 30 30 33 32 37 33 28 26 23
75 63 57 58 55 57 60 59 57 57 56 56 56 56 52 54 55 53 48 46 43 39 33 36 41 43 46 47 50 49 50 48 46 47 46 45 43 41 41 41 41 40 41 40 35 27 20
74 61 55 50 47 48 51 50 49 50 52 53 52 52 56 58 56 52 49 43 38 38 40 44 46 49 51 54 53 52 54 56 56 54 52 51 48 49 49 43 43 48 52 48 43 38 33
68 57 46 47 40 37 38 39 40 44 47 49 55 59 57 58 56 51 48 44 40 42 46 49 52 53 55 56 57 60 59 56 57 57 56 57 57 58 55 53 54 50 47 46 45 40 38
59 43 38 38 31 31 29 28 30 37 45 52 53 55 54 54 52 50 48 47 46 47 50 52 51 52 54 54 53 53 51 51 51 52 53 53 53 53 53 52 53 48 43 40 37 37 35
54 40 36 27 24 25 21 23 28 32 38 45 49 50 50 47 48 46 47 48 46 45 47 50 50 48 49 48 51 49 48 49 48 48 50 48 47 47 47 46 45 42 41 39 36 33 28
47 37 30 37 19 18 18 19 22 26 32 38 42 44 44 43 43 44 43 43 40 40 41 46 48 50 47 46 45 45 44 45 43 44 43 42 43 41 42 40 39 38 37 37 37 37 36
53 39 18 19 10 16 11 13 14 15 21 28 31 34 36 35 35 34 34 34 35 33 36 36 38 39 40 39 40 40 40 41 41 41 41 40 37 37 36 37 35 34 35 35 32 33 36
79 41 25 17 6 4 5 6 8 7 11 16 20 23 24 25 25 25 26 26 27 27 27 28 29 31 32 34 34 35 35 35 35 36 36 36 35 35 35 34 34 34 34 34 37 37 39
80 69 27 24 15 7 4 3 3 2 3 6 9 14 15 14 15 17 17 18 19 20 21 21 22 23 25 26 28 30 30 31 31 32 32 32 32 33 32 31 32 32 32 34 35 37 40
90 71 37 11 20 20 14 12 11 8 5 1 2 3 7 9 7 7 11 12 13 14 15 17 16 18 18 20 22 24 26 25 26 28 29 30 29 29 29 29 31 33 34 34 37 41 44

GFSGBSN_250_spd_087.txt.gz
Wind_Speed
76 80 85 90 91 92 94 95 95 94 97 92 86 85 86 89 88 86 81 81 78 75 77 79 82 87 86 84 82 79 84 82 84 89 91 91 88 85 85 85 83 81 82 79 77 72 71
80 83 85 90 96 99 102 108 106 101 99 94 92 87 84 88 88 87 86 84 81 78 74 71 75 79 77 73 74 74 78 74 72 76 80 79 77 76 79 81 80 78 75 76 73 73 70
84 88 92 94 98 105 107 110 111 106 96 93 88 88 86 87 90 89 87 83 80 77 72 66 67 68 67 64 67 72 70 66 70 70 68 69 67 69 72 74 75 73 72 73 74 73 73
96 102 106 107 109 107 105 98 96 93 91 83 83 84 85 85 86 87 87 82 79 76 67 63 62 61 58 58 64 63 61 62 59 58 58 59 62 66 67 70 71 70 68 70 69 71 68
107 111 107 101 97 94 91 87 85 83 83 80 79 80 79 80 83 84 83 79 76 68 60 56 54 52 50 55 57 56 55 51 51 52 54 56 59 64 65 63 63 65 66 64 67 69 67
106 96 90 87 89 88 86 84 80 78 76 72 71 72 72 73 73 75 75 71 69 61 55 50 50 45 47 48 47 48 48 46 47 48 51 54 56 56 57 58 60 61 62 65 65 67 63
86 85 87 89 88 81 73 66 65 64 65 66 63 60 59 60 62 62 63 65 59 50 42 42 41 41 40 40 40 39 39 40 40 44 45 47 49 49 49 53 58 60 61 60 59 60 60
84 83 82 80 76 66 56 53 51 51 52 56 53 48 45 47 51 53 53 52 48 38 34 35 37 34 35 33 33 35 36 33 33 34 36 41 42 45 48 52 54 54 57 59 61 62 63
71 72 70 62 55 48 43 38 37 38 39 42 42 35 34 35 37 41 47 47 39 33 31 33 25 28 26 29 32 31 25 22 22 26 34 38 40 43 48 51 53 54 56 59 60 60 59
73 66 59 51 42 37 33 29 26 26 27 30 31 24 21 22 27 33 37 39 35 33 31 24 25 24 25 24 20 18 13 16 24 28 31 35 38 41 44 42 45 45 43 42 41 43 44
66 63 53 44 38 32 27 23 18 15 15 17 16 11 15 22 27 29 29 34 33 32 28 25 25 20 17 18 14 11 12 19 22 24 29 31 30 30 34 33 31 30 29 28 28 29 31
59 56 51 42 38 33 27 23 18 11 5 3 5 11 21 28 30 31 31 30 31 33 30 24 18 18 17 13 8 7 14 16 17 20 22 22 21 22 20 21 21 21 20 18 17 16 18
59 50 44 43 44 41 37 34 30 24 20 14 10 12 19 24 28 29 33 39 38 34 25 23 23 20 13 8 5 5 8 13 16 13 14 16 15 13 13 13 13 13 13 13 14 16 17
69 62 56 53 47 44 44 44 41 40 42 40 31 31 31 35 40 43 45 43 38 32 29 27 20 16 12 7 2 4 8 8 10 11 10 12 9 6 7 9 9 11 11 10 9 9 10
88 77 67 61 56 55 52 52 55 54 50 44 36 39 41 44 46 45 44 41 41 37 29 23 20 16 14 7 3 1 3 8 8 8 9 6 6 10 12 12 13 15 16 18 17 16 13
88 77 70 66 65 64 64 59 59 56 51 49 47 42 41 44 45 47 46 43 37 32 28 25 21 18 12 10 9 6 7 8 10 5 1 1 8 12 14 16 17 20 23 23 25 22 17
74 75 67 64 63 61 60 60 58 56 51 50 55 51 47 47 46 44 41 39 37 34 31 27 24 19 18 17 13 11 10 8 7 7 8 9 9 13 14 14 19 22 23 28 27 25 26
72 72 68 68 63 59 58 56 53 53 50 48 51 53 44 43 43 43 42 41 39 36 32 31 30 29 25 22 20 18 14 17 19 19 17 19 19 16 19 22 26 26 26 26 26 28 26
72 65 66 64 62 59 56 52 51 52 53 51 52 54 49 46 46 46 45 43 42 40 38 38 37 34 33 33 31 30 32 33 32 28 25 26 23 23 27 27 33 33 34 32 27 23 20
70 66 64 64 62 55 51 47 46 49 53 55 58 58 57 53 51 50 47 49 46 45 44 45 44 43 42 42 41 41 43 44 44 42 39 35 28 33 36 34 36 40 41 38 34 28 23
58 60 58 58 56 52 47 44 45 46 48 52 56 56 57 56 54 51 52 50 49 48 47 49 48 48 51 53 53 55 53 54 53 53 45 41 41 48 49 52 51 51 48 45 42 34 30
55 46 51 52 54 49 46 41 40 42 47 51 55 54 54 56 55 54 53 49 47 48 50 50 52 52 52 53 56 57 56 56 56 54 53 51 53 55 56 55 52 53 49 45 41 37 33
61 42 41 44 47 49 46 42 39 39 41 45 47 49 51 50 51 50 49 48 48 48 47 49 51 52 52 52 53 53 52 51 52 51 50 51 52 52 51 50 47 45 42 42 42 38 37
83 58 35 33 38 38 42 40 38 36 36 39 41 44 45 45 45 45 45 45 45 46 46 47 48 48 48 47 48 47 48 48 47 47 47 48 48 47 45 44 41 38 37 34 34 37 34
82 77 52 27 24 28 32 34 33 31 29 30 32 34 36 37 36 36 39 40 40 40 40 40 42 43 43 44 44 43 43 42 42 40 41 41 40 39 38 36 34 34 33 31 31 32 32
76 78 70 42 19 13 22 21 24 25 22 20 20 22 25 26 29 29 30 31 33 33 33 33 33 35 36 36 37 36 36 37 35 35 35 34 33 32 30 30 27 27 26 26 26 28 27
71 73 75 58 31 9 8 15 16 20 17 15 14 14 14 16 19 18 19 21 22 24 25 25 26 27 28 28 28 29 30 30 29 28 28 27 26 25 25 24 23 23 23 22 22 23 24
76 72 70 73 56 21 9 10 15 15 17 13 10 11 12 12 10 11 13 13 13 15 16 16 17 19 20 22 22 22 23 24 24 24 24 23 22 22 21 21 20 22 23 23 25 26 28
70 66 71 65 76 51 23 15 18 18 17 17 11 8 9 9 9 7 6 6 7 9 10 11 13 14 16 17 17 17 18 19 20 21 23 23 24 22 20 20 21 22 24 25 27 30 33

GFSGBSN_250_spd_090.txt.gz
Wind_Speed
102 103 101 101 97 91 92 95 98 95 97 98 99 98 95 94 89 90 86 86 84 82 82 81 77 82 83 85 82 91 99 107 107 106 106 100 94 93 97 99 95 93 91 91 90 88 88
104 99 96 95 95 96 97 97 97 99 103 102 100 99 99 99 100 97 90 88 86 85 82 82 81 80 81 81 78 80 82 89 94 93 92 92 93 90 91 92 92 89 89 89 90 90 88
84 86 89 89 90 89 90 90 90 93 95 98 96 95 93 91 89 88 83 86 86 83 83 80 84 80 76 76 75 70 74 80 80 82 90 87 82 83 84 86 86 84 83 83 89 90 90
85 90 93 92 91 89 88 88 86 84 83 84 83 80 76 75 77 79 79 76 78 81 80 79 79 77 73 70 66 64 65 71 73 78 77 73 73 77 77 77 75 75 76 77 85 89 87
77 83 86 82 77 74 74 71 66 65 66 68 71 70 72 67 65 69 71 70 73 74 74 73 72 71 66 60 55 52 58 63 64 63 61 60 64 64 67 71 72 71 73 73 78 76 76
78 71 64 71 77 73 66 62 57 53 53 56 59 58 59 57 61 60 62 65 65 67 64 66 66 62 57 48 47 49 52 51 49 46 49 50 53 59 62 64 66 66 67 68 67 68 64
85 80 72 60 51 49 49 49 46 43 40 45 49 48 49 47 51 52 53 57 59 57 58 59 57 49 42 42 43 43 39 35 37 40 41 44 50 53 59 60 60 61 60 57 56 60 56
89 81 74 66 53 45 40 39 36 33 33 33 35 34 34 37 39 43 46 50 49 52 51 43 38 35 33 36 38 31 32 32 31 33 35 42 46 49 49 51 52 51 51 52 54 56 58
95 84 76 63 51 42 36 31 29 23 23 22 21 17 21 24 29 36 39 42 45 45 38 32 28 32 33 34 32 28 27 25 24 29 34 39 35 39 42 43 44 46 49 51 54 56 58
94 91 68 65 59 49 42 37 32 27 22 17 10 3 10 19 25 31 33 37 35 35 29 27 30 32 32 29 25 19 17 20 24 27 29 30 31 35 38 40 44 47 50 54 57 59 61
96 94 88 70 64 54 47 42 34 30 26 20 10 8 14 19 25 27 30 27 27 30 32 30 30 27 24 18 15 14 16 19 22 23 26 26 32 35 38 42 42 44 47 48 49 50 51
98 98 89 85 75 69 55 45 40 36 36 30 17 10 13 19 22 25 26 26 32 33 33 31 26 22 19 15 11 15 16 17 18 20 24 25 26 28 32 33 32 33 32 33 33 34 36
100 100 93 86 80 74 69 54 46 47 44 39 29 21 14 16 25 29 30 31 31 28 28 29 27 21 17 15 14 14 14 15 12 11 12 15 21 21 21 22 22 22 23 21 22 21 24
100 99 98 87 79 75 72 69 58 48 54 48 41 36 29 28 29 31 32 32 33 34 34 30 26 23 18 15 13 8 2 3 2 2 6 9 11 13 14 13 13 10 12 13 14 14 16
96 103 96 83 77 74 73 72 67 63 53 55 51 42 35 34 36 37 39 39 38 36 34 30 25 20 16 11 11 13 12 12 8 6 7 5 6 7 8 9 7 10 10 9 8 9 9
91 95 97 88 76 71 67 65 62 59 54 48 50 51 46 42 40 40 38 39 38 35 30 26 22 18 18 18 19 18 18 15 12 8 8 8 5 5 3 4 7 6 9 11 12 11 12
83 90 91 89 81 74 66 60 56 53 51 48 45 48 43 40 41 39 35 34 32 29 29 28 27 26 24 23 21 20 19 14 13 10 9 8 4 5 5 6 10 11 14 14 16 17 18
76 79 85 85 83 74 67 62 59 54 51 45 40 40 39 37 38 39 35 36 36 36 36 34 32 29 26 25 22 22 18 18 17 16 13 13 14 16 19 19 20 18 13 15 19 21 21
70 73 75 78 82 76 70 65 61 58 57 54 49 46 45 44 43 42 40 41 42 40 39 39 37 34 31 29 30 28 29 28 27 23 21 24 22 29 30 30 29 31 31 27 23 15 11
82 65 68 70 74 77 75 66 62 60 60 57 55 54 54 51 49 49 45 42 43 44 46 42 41 41 39 37 37 39 41 39 35 31 31 34 31 38 40 42 41 41 38 37 33 29 23
90 82 60 59 62 68 70 67 64 62 58 57 58 58 58 55 51 53 52 50 47 47 47 47 45 45 44 45 48 51 50 48 43 42 44 47 51 52 53 52 49 48 46 44 40 33 31
86 88 74 50 48 53 59 61 58 58 58 57 54 54 53 50 50 53 54 52 51 50 50 50 51 50 52 52 53 52 54 53 52 50 50 51 51 54 55 52 48 49 49 49 44 44 42
81 83 87 62 41 39 42 50 50 49 51 53 51 47 46 47 47 49 49 50 50 50 49 49 49 49 50 50 50 50 50 50 49 48 47 48 47 46 45 46 49 46 43 40 42 40 38
87 80 80 80 51 35 33 32 41 41 40 41 41 40 40 41 42 42 43 43 43 44 44 43 43 43 43 43 43 45 45 44 44 44 43 42 41 42 40 42 42 40 38 37 36 36 35
76 77 79 78 74 46 33 28 26 33 35 32 32 32 30 30 31 31 33 35 35 36 37 37 37 38 37 36 37 38 39 38 38 38 38 37 37 37 36 34 32 31 31 32 31 30 30
73 79 76 72 71 70 42 32 27 22 23 29 27 24 24 24 21 23 24 25 27 28 29 30 30 31 31 30 30 31 31 32 31 31 31 31 30 30 29 28 26 26 26 25 24 24 22
69 68 73 72 76 72 70 46 31 28 20 17 21 26 23 19 19 17 16 16 16 18 20 22 23 23 23 23 24 24 24 24 23 24 24 23 23 22 22 21 21 20 20 20 20 19 20
63 62 64 71 70 75 62 63 50 32 30 20 16 16 22 22 17 14 11 11 10 10 11 11 12 13 14 15 15 16 16 17 17 16 14 14 16 16 16 16 15 16 18 18 18 19 21
62 59 70 66 64 68 70 66 62 46 30 31 24 19 15 18 22 18 13 10 9 9 9 9 9 10 9 9 10 11 12 12 12 12 12 14 14 13 15 17 18 19 20 22 24 25 24

GFSGBSN_250_spd_093.txt.gz
Wind_Speed
69 74 75 76 82 80 81 86 91 93 93 91 90 93 95 96 94 94 94 92 88 87 83 81 84 84 85 87 87 93 95 94 92 92 93 94 101 107 110 113 107 108 107 103 99 99 98
64 72 74 68 72 66 64 68 73 73 81 87 87 85 84 93 96 97 96 96 96 92 89 86 81 82 83 84 84 88 87 90 92 92 90 89 88 94 105 108 106 106 106 104 101 99 101
66 67 71 64 59 65 58 57 56 59 61 65 70 75 76 80 84 91 94 96 95 93 90 91 86 86 89 78 86 84 87 84 87 86 85 82 87 90 95 95 99 98 98 97 99 99 97
78 77 78 78 73 68 59 57 49 49 51 56 60 63 62 63 66 72 78 87 92 90 88 87 84 83 82 83 84 87 85 83 88 82 78 76 85 86 83 83 84 87 87 88 92 90 90
78 73 74 74 72 63 60 50 46 41 38 42 47 50 49 48 51 56 64 63 70 78 82 81 82 77 80 78 81 80 78 74 70 74 71 76 76 73 68 72 74 71 76 79 87 86 88
79 74 70 66 67 63 55 48 39 33 32 30 32 38 41 48 52 56 60 61 59 60 66 70 73 72 70 75 72 70 68 65 63 65 64 65 64 57 58 61 66 70 74 79 81 80 79
87 81 73 72 65 63 57 46 35 30 23 19 18 23 28 34 45 45 55 55 53 57 56 60 61 62 64 60 59 57 55 52 51 56 54 49 44 46 52 58 62 64 67 69 68 67 64
90 93 81 79 72 62 60 50 33 24 17 10 6 9 12 19 29 38 42 46 49 55 54 46 51 50 46 45 45 43 40 43 47 44 37 33 38 44 51 55 56 57 57 60 61 58 57
107 98 90 84 79 69 64 52 40 28 24 14 3 6 10 14 22 29 35 41 45 47 42 38 39 35 32 31 32 34 37 39 38 28 27 31 39 43 46 46 48 48 48 49 51 51 49
108 103 99 91 82 75 68 61 48 40 35 26 16 10 11 14 19 25 34 34 35 33 30 29 26 24 27 28 30 32 32 23 21 24 26 33 32 33 32 37 38 38 38 41 43 45 46
104 108 103 95 90 86 77 70 59 50 46 40 29 19 17 14 18 20 18 22 23 20 21 22 25 26 26 27 28 23 16 16 19 25 26 25 25 26 29 33 33 34 36 40 43 46 47
97 108 103 101 93 86 82 77 71 60 53 51 40 31 25 23 23 22 21 23 25 25 26 27 27 26 23 18 15 16 18 21 19 19 18 18 21 22 28 29 31 33 35 36 38 40 43
97 101 103 104 96 89 82 78 74 69 58 58 51 44 37 32 29 26 26 28 29 29 27 26 22 20 21 19 19 18 13 8 9 10 10 14 16 20 21 19 19 21 24 25 24 25 26
86 96 99 99 101 93 85 77 70 69 64 60 57 51 47 44 41 36 32 29 28 29 29 30 28 25 24 18 12 10 9 11 8 5 3 2 4 5 7 11 12 14 16 17 17 17 18
86 86 93 94 101 98 90 81 70 67 66 59 57 57 53 49 45 43 41 38 36 33 32 32 29 23 20 16 16 15 14 11 8 10 13 9 5 2 3 5 7 10 11 12 10 9 11
104 83 84 87 94 100 95 85 75 69 63 58 51 54 52 48 43 40 37 34 31 31 29 26 26 27 27 26 24 22 18 19 20 19 16 10 10 4 1 4 5 4 7 6 6 3 6
107 90 77 78 86 90 97 90 82 75 66 60 49 48 41 40 37 35 33 32 30 31 32 35 36 33 32 32 30 27 27 25 23 23 19 14 12 13 6 5 7 5 4 3 1 2 2
103 105 76 73 74 81 86 93 86 82 75 70 62 56 48 47 43 41 41 39 38 39 40 41 40 38 38 38 38 33 30 27 26 24 22 18 17 16 16 15 17 15 19 14 10 8 9
100 99 99 70 69 72 75 81 87 83 76 72 69 66 60 57 54 53 47 48 49 48 46 45 45 44 44 41 39 37 36 34 31 29 26 27 24 23 29 30 31 30 28 26 23 21 20
98 96 94 86 64 64 69 69 74 80 76 74 72 70 68 67 62 57 56 54 54 50 46 45 45 48 49 47 44 41 37 36 35 33 32 33 32 38 43 43 40 41 39 37 36 32 28
88 94 94 90 81 59 58 62 62 66 69 67 68 67 65 63 60 57 58 56 53 52 51 52 54 54 55 53 50 46 48 48 47 46 46 47 47 50 50 51 50 50 48 47 44 42 39
88 88 92 92 87 77 55 53 53 55 57 59 63 62 58 58 56 54 55 54 53 55 56 55 56 52 51 47 47 47 47 47 46 48 49 47 47 47 46 46 46 44 44 43 44 42 41
80 87 83 87 87 80 79 52 45 45 46 48 50 52 51 51 51 50 50 51 50 49 50 50 48 47 47 47 46 44 44 44 44 45 45 44 42 41 41 40 40 39 37 38 39 39 39
75 80 81 79 86 77 78 76 56 39 39 38 39 39 41 42 41 41 42 43 43 43 42 42 42 40 40 41 40 39 39 39 39 38 37 36 36 36 36 36 35 36 34 35 36 35 35
68 74 77 80 81 75 81 75 70 63 37 31 32 31 30 33 34 31 31 31 32 32 33 33 33 33 33 32 32 32 32 32 32 31 31 30 30 30 29 29 29 28 28 29 29 29 28
60 66 71 72 80 74 72 72 64 69 63 40 27 27 25 24 22 24 26 24 23 23 23 23 23 23 23 22 22 21 21 22 22 22 22 23 23 23 23 23 23 23 23 23 23 22 21
52 57 62 66 72 70 65 70 75 67 65 61 41 25 21 22 20 21 17 18 19 19 18 18 18 18 18 18 18 18 19 19 19 18 18 18 17 17 17 16 17 16 16 16 16 16 15
49 51 53 62 63 65 66 67 66 68 71 65 60 44 27 18 20 17 19 21 15 14 15 15 15 15 14 12 11 10 10 11 11 12 12 12 12 12 12 12 11 11 13 13 14 14 15
45 48 50 53 58 61 61 59 61 66 65 70 63 62 48 33 21 21 20 18 18 20 17 15 14 14 13 12 12 12 9 9 8 9 10 11 10 10 11 11 12 13 14 14 15 18 18

GFSGBSN_250_spd_096.txt.gz
Wind_Speed
62 69 68 67 65 65 70 76 64 63 66 70 73 75 80 87 95 99 103 102 97 94 90 85 86 83 86 83 82 89 89 91 89 91 91 97 102 104 108 108 105 104 103 104 108 107 103
67 67 68 64 63 67 71 60 54 46 52 54 59 65 67 75 86 90 96 96 100 101 96 90 87 86 84 83 84 82 85 87 91 88 90 89 89 90 95 96 97 98 103 107 111 113 110
72 78 66 63 61 66 61 54 47 39 38 40 45 53 56 65 73 81 85 86 89 94 96 91 89 88 83 83 85 82 83 86 85 90 88 90 91 90 88 86 84 89 94 98 105 106 108
76 79 66 61 58 60 61 55 41 34 29 29 33 38 46 53 61 70 73 75 79 79 87 92 92 90 84 84 82 82 79 78 80 88 83 87 89 88 85 80 79 86 89 89 92 94 93
83 84 73 66 61 57 58 50 42 33 26 22 25 29 37 45 52 58 64 66 71 73 75 87 90 88 86 84 81 81 81 79 79 80 84 83 84 85 81 84 87 89 80 78 84 87 82
85 90 81 74 68 63 54 48 41 31 25 20 18 20 27 36 45 52 50 55 62 65 72 76 86 89 85 85 81 79 77 78 78 75 76 80 80 76 77 80 80 72 75 80 77 74 70
89 96 92 84 76 72 59 46 37 27 21 17 14 14 18 26 33 45 56 59 58 56 62 71 77 84 87 80 76 77 77 77 73 74 77 70 67 66 69 71 68 69 70 67 65 61 62
91 98 99 91 81 79 68 52 43 39 31 21 11 3 8 18 28 41 53 55 60 59 57 61 64 64 66 66 69 68 69 69 68 65 62 61 57 58 62 59 61 60 59 55 55 55 53
93 99 102 98 88 81 79 66 56 49 42 32 22 10 8 16 21 28 44 51 46 51 52 53 51 47 51 51 54 56 58 57 55 52 48 48 53 51 50 54 56 53 48 45 45 47 48
93 100 104 104 100 86 85 85 72 55 51 41 30 22 17 19 24 26 34 38 39 42 44 41 38 38 40 43 44 42 41 40 40 42 45 44 41 42 43 46 43 40 38 39 40 40 40
91 98 103 106 105 92 84 83 84 62 48 51 44 36 28 26 23 22 24 23 25 27 26 25 28 29 30 31 32 33 31 34 34 32 30 29 34 35 36 35 33 30 30 30 31 33 34
89 95 101 108 106 100 91 83 81 74 58 53 53 45 37 34 33 30 27 25 23 24 24 23 26 27 26 27 27 24 21 21 24 26 25 25 25 25 22 22 25 26 27 28 31 33 34
88 90 95 102 105 99 99 92 84 75 68 60 56 54 49 40 35 35 33 33 32 30 29 26 25 24 23 19 18 17 16 16 15 14 14 17 16 16 17 19 19 19 20 20 21 22 25
103 88 91 94 99 100 103 97 94 85 72 68 66 61 54 51 47 44 37 32 29 27 23 20 19 19 18 17 15 15 14 9 8 8 11 10 10 9 9 8 8 8 10 12 15 16 17
112 98 88 90 90 95 99 99 97 92 81 69 62 62 61 57 51 47 44 38 36 33 30 28 25 23 19 16 13 11 13 15 15 13 10 9 6 3 3 4 8 9 9 11 11 13 14
112 108 96 85 86 87 92 97 98 96 87 78 70 62 55 51 49 47 45 42 39 35 33 30 29 28 27 26 26 24 22 19 19 18 17 19 13 11 11 11 9 9 9 9 10 11 10
105 111 104 93 82 83 83 87 94 95 89 82 79 71 60 53 49 43 45 43 42 40 40 40 38 36 35 35 34 31 29 29 28 26 21 20 19 18 14 15 10 10 11 14 13 12 9
99 104 107 100 94 79 79 80 83 86 85 84 85 80 72 66 56 54 47 44 40 41 41 43 44 43 42 41 39 36 35 33 30 26 26 24 25 26 25 19 18 17 18 18 18 17 20
91 98 102 101 95 88 75 74 73 76 80 80 84 79 78 76 69 62 55 54 51 51 52 54 53 52 49 45 44 39 39 37 34 35 36 34 34 34 34 33 32 32 30 27 27 25 24
84 90 95 99 95 90 85 68 67 67 69 70 72 74 74 75 71 66 63 60 60 59 62 61 60 57 53 51 48 44 44 41 41 43 43 43 44 45 46 44 44 45 44 43 40 34 30
79 83 88 92 95 90 87 87 62 59 60 61 63 64 66 68 69 66 66 66 65 62 60 59 58 55 53 52 52 50 48 47 48 49 47 46 46 45 44 44 45 44 44 45 45 42 41
72 73 81 85 90 86 85 88 85 60 52 53 54 56 56 58 58 58 57 57 55 54 53 52 51 52 50 48 47 47 47 45 45 43 42 42 42 40 41 43 44 44 43 44 47 47 44
66 68 75 76 81 84 79 81 78 82 62 46 45 46 48 49 49 48 47 47 46 46 46 46 46 46 45 43 41 39 39 38 39 39 38 37 36 36 37 37 36 36 36 36 37 37 38
59 62 67 73 72 77 79 81 85 82 79 66 41 38 39 40 40 40 40 39 39 39 38 38 37 36 34 32 32 32 32 31 30 30 30 30 30 29 29 29 28 30 29 29 29 29 29
56 56 57 66 67 70 70 73 74 81 78 74 73 50 34 32 33 33 33 34 34 33 31 30 31 30 28 27 26 25 24 23 22 21 21 20 20 20 20 21 21 21 21 22 23 23 22
50 53 53 58 64 64 61 67 67 75 72 79 72 62 59 39 30 28 29 29 29 29 28 26 26 24 23 21 20 19 19 18 17 16 16 16 16 16 15 15 14 14 14 15 14 15 15
43 49 50 51 54 60 62 61 59 65 70 75 66 59 57 57 47 31 26 26 29 30 30 30 30 27 24 21 21 21 21 20 20 18 17 16 16 15 14 13 12 11 10 9 10 10 10
40 46 49 45 51 54 55 57 59 62 62 65 69 58 58 57 50 47 39 25 23 25 26 28 29 29 29 28 27 24 22 22 21 21 19 20 18 16 15 14 14 12 12 11 11 11 10
43 42 44 48 50 51 51 51 52 56 56 64 59 66 60 62 56 52 44 40 34 26 22 22 25 27 29 31 31 30 28 26 24 21 21 20 20 19 16 15 15 14 13 13 13 12 12

GFSGBSN_250_spd_099.txt.gz
Wind_Speed
66 71 73 67 61 59 62 65 67 65 64 58 58 65 70 77 82 89 88 95 98 99 102 97 92 88 84 82 79 81 80 80 84 86 88 96 100 102 103 105 104 104 103 101 99 99 99
77 83 76 66 59 60 66 61 53 48 45 49 58 59 64 70 77 81 86 91 94 96 100 100 98 92 90 85 82 76 79 81 82 84 88 91 92 92 93 98 104 106 107 106 108 108 105
84 86 78 66 58 63 60 54 45 38 33 35 42 46 52 58 70 72 79 81 84 87 93 99 99 97 92 87 82 79 77 80 82 82 82 85 90 93 91 91 91 89 92 98 103 105 104
87 92 84 69 65 67 57 52 44 34 26 22 28 36 43 51 60 67 75 76 79 81 86 96 98 98 92 88 85 82 80 79 80 83 83 84 85 88 87 86 85 86 89 90 92 93 95
89 95 92 78 69 64 50 48 41 33 25 15 15 21 30 41 50 59 68 73 76 80 81 88 95 97 91 89 88 84 82 80 79 82 85 83 84 84 82 83 84 88 86 83 81 82 85
92 95 97 86 75 73 63 58 38 27 21 13 6 9 21 27 38 49 58 65 68 72 76 83 89 82 84 85 83 84 84 84 81 83 84 83 85 82 82 79 79 77 81 84 82 84 83
93 96 99 95 84 81 79 65 49 36 32 24 15 4 8 14 26 38 47 54 61 65 70 71 77 78 76 77 81 81 84 84 83 83 79 81 78 80 79 81 79 75 77 78 81 76 73
93 98 99 102 94 86 86 78 62 48 38 32 24 16 9 10 19 31 44 53 56 53 61 66 67 65 68 71 70 71 77 80 82 81 77 74 73 72 68 68 70 71 76 67 70 64 61
95 96 100 104 102 95 86 84 73 53 45 40 33 26 18 14 17 26 36 47 53 52 57 58 59 59 58 57 57 61 66 70 71 72 69 68 65 60 57 57 61 59 60 59 60 57 54
103 97 99 105 107 102 91 86 81 67 57 47 44 39 28 20 16 18 30 38 41 44 53 57 58 53 49 51 48 46 48 51 54 55 56 54 53 52 53 52 53 50 50 49 50 47 43
114 98 98 102 106 106 102 88 85 78 69 61 52 46 45 35 26 22 23 27 27 30 24 30 36 34 35 37 38 36 37 39 42 43 44 43 42 40 44 45 42 41 37 38 36 34 31
125 113 99 98 102 107 107 102 93 85 78 70 62 52 45 44 39 30 22 19 18 20 18 23 28 31 31 30 30 30 30 30 32 33 32 32 32 35 33 29 27 27 30 32 30 29 27
119 123 106 96 98 101 108 108 98 92 85 75 70 61 54 45 41 40 37 31 27 25 22 21 20 21 22 22 22 22 21 22 22 23 23 21 20 21 20 20 21 23 22 22 22 23 19
116 121 115 99 93 95 98 106 104 96 89 83 71 65 63 56 51 43 37 31 28 22 20 18 16 15 14 12 13 14 12 10 11 10 10 13 14 14 13 12 10 8 11 13 15 15 15
110 115 115 115 94 88 90 95 101 97 92 86 80 71 61 56 55 52 49 44 39 35 30 25 23 19 16 14 14 12 10 7 6 6 6 7 7 4 4 2 4 8 13 12 11 11 11
103 109 113 113 112 92 85 86 91 95 93 89 82 76 66 57 53 50 49 45 43 39 35 30 27 24 22 20 17 15 14 14 15 18 17 15 12 13 10 7 5 7 4 4 10 11 11
94 100 106 112 109 107 88 81 81 84 85 86 88 84 76 68 59 51 48 44 41 39 38 38 34 30 29 29 30 30 28 27 27 25 23 23 20 17 14 12 10 12 9 12 14 15 17
86 92 97 103 104 108 108 87 77 76 77 78 83 81 81 77 72 71 62 57 53 47 44 46 43 37 35 38 38 39 38 37 36 33 29 27 27 27 25 23 21 20 17 19 19 22 21
80 85 88 93 96 101 100 101 81 73 71 72 75 75 73 76 81 78 74 71 68 64 64 60 57 56 55 54 52 47 45 44 42 43 43 43 44 43 42 38 33 31 29 25 21 22 23
74 76 81 85 89 95 96 96 95 82 72 66 65 67 69 73 72 71 72 71 70 69 69 68 67 64 62 59 56 55 54 50 48 47 46 46 46 46 45 44 43 42 43 40 36 31 28
64 71 74 79 80 84 89 92 94 87 89 68 61 58 60 62 64 63 64 63 63 63 63 60 58 56 55 54 50 47 44 45 45 44 44 45 44 43 42 43 42 42 40 40 40 41 42
58 63 67 72 74 78 82 87 89 83 84 80 78 58 54 53 53 55 57 57 56 56 54 52 50 48 46 44 43 41 40 39 39 38 37 34 34 32 32 32 32 33 32 34 35 34 32
52 56 63 64 69 69 72 76 82 82 84 83 80 77 59 49 47 47 48 49 49 49 49 48 46 45 44 41 39 37 35 33 32 31 30 29 27 26 26 25 25 25 26 27 27 28 28
47 49 55 58 63 62 64 68 73 74 78 76 79 75 73 67 53 47 45 43 43 43 43 43 42 40 40 38 37 34 32 29 27 24 23 21 19 19 19 19 18 18 18 19 19 20 20
43 44 47 50 57 57 57 59 62 66 71 76 75 75 75 68 69 62 53 45 42 40 40 39 39 39 37 37 36 35 34 30 27 25 23 22 20 18 17 17 17 17 17 16 15 15 14
41 42 45 43 49 55 52 52 53 58 60 64 66 70 72 72 74 76 61 56 49 51 40 42 39 35 35 36 36 34 33 30 29 29 27 22 20 19 19 19 18 17 15 15 15 14 12
36 38 43 39 43 49 51 47 47 48 53 55 56 60 61 65 67 71 71 65 56 49 56 49 43 44 42 38 35 36 36 36 35 33 30 28 27 24 22 20 19 18 17 16 15 14 13
33 32 37 40 39 45 48 44 43 42 45 51 51 53 58 58 60 64 62 59 66 60 63 65 54 52 46 50 45 43 40 39 37 35 35 36 33 28 26 23 21 19 18 17 18 18 16
38 38 35 36 38 39 42 43 42 38 41 47 47 48 52 51 55 59 58 56 61 63 62 63 64 64 55 52 51 52 52 49 45 42 40 39 35 33 33 28 24 23 22 20 18 17 18

GFSGBSN_250_spd_102.txt.gz
Wind_Speed
75 80 81 75 62 56 56 57 52 48 46 46 46 49 56 65 65 67 70 76 75 76 82 91 103 99 99 91 87 81 78 80 79 80 81 82 83 88 95 98 99 100 100 100 99 97 95
79 86 87 78 59 57 53 50 47 40 38 36 37 43 45 56 61 64 66 70 77 77 77 75 82 98 100 93 90 84 79 77 79 79 77 78 80 81 84 88 92 97 103 104 104 102 99
84 88 93 82 65 57 51 43 39 36 33 28 27 33 39 43 53 59 61 64 71 79 78 76 75 81 95 97 92 87 82 77 74 75 78 79 79 80 82 83 85 86 87 94 100 104 103
84 93 98 86 72 65 57 46 40 34 26 20 20 22 27 32 48 55 56 61 64 73 77 75 76 82 85 92 94 91 84 79 76 75 74 74 75 78 81 82 84 85 87 92 90 90 91
84 93 99 96 83 77 67 56 47 34 24 12 10 11 17 28 38 49 54 56 59 61 71 80 83 87 84 81 84 88 86 83 81 79 77 77 75 75 78 82 83 86 86 87 89 85 87
86 94 99 105 89 85 79 61 48 36 25 16 8 1 7 16 28 39 52 57 57 60 66 71 80 80 79 78 77 86 87 87 83 81 80 80 79 79 80 81 81 83 83 87 89 86 80
88 95 99 107 96 79 80 64 55 48 38 26 20 15 8 8 16 27 43 51 57 61 63 69 73 74 77 77 77 83 87 85 85 84 82 81 78 80 82 82 84 84 84 81 82 80 76
95 95 103 105 108 89 85 76 64 56 43 37 30 23 17 14 15 24 33 41 51 59 63 65 68 66 70 71 73 76 83 85 85 82 79 76 79 81 81 82 84 82 78 77 82 80 69
115 94 102 107 112 104 91 88 72 62 51 42 39 38 32 24 21 19 25 31 44 54 57 57 60 62 63 60 62 67 71 76 75 73 72 72 73 77 78 78 75 68 66 67 67 67 66
120 107 97 104 109 113 103 93 91 77 68 55 48 49 47 38 32 25 17 22 35 42 50 53 54 54 55 54 53 57 59 60 61 63 63 64 69 70 67 63 64 64 61 61 57 54 54
119 122 98 100 105 112 114 102 92 89 76 70 59 53 53 49 41 31 25 19 23 32 37 38 44 46 46 42 41 42 44 46 48 52 53 55 55 55 54 53 51 48 44 45 43 39 38
114 116 117 98 100 103 112 112 102 94 89 75 68 61 52 47 41 35 28 24 18 18 10 26 27 27 26 26 27 31 38 42 43 41 40 38 38 38 37 36 33 33 33 34 34 33 33
109 114 116 115 95 98 100 108 109 104 94 87 75 67 58 53 45 39 34 30 29 26 17 15 17 18 19 20 19 19 21 23 23 23 23 23 24 26 25 22 23 24 25 24 25 23 20
103 104 113 114 110 94 94 95 101 104 101 95 84 73 65 60 54 47 41 35 29 22 20 17 14 9 6 7 9 10 10 9 10 11 11 12 13 12 12 15 17 17 13 11 12 12 13
98 99 104 109 109 106 91 88 88 93 98 99 93 81 74 68 61 53 49 42 41 34 29 24 20 17 16 12 9 9 7 4 3 3 4 6 6 6 7 8 7 10 6 3 6 7 10
89 95 98 102 107 107 100 87 83 83 84 91 94 91 83 76 70 62 56 52 45 41 38 34 30 27 25 22 20 17 16 14 12 12 12 10 6 5 6 6 3 4 4 4 5 6 8
82 88 93 95 100 105 104 99 83 80 78 80 85 87 89 87 85 77 74 63 54 48 45 41 37 35 34 31 28 23 22 23 23 22 21 20 19 18 15 13 11 9 6 10 10 10 13
75 81 85 89 93 96 103 104 96 84 77 73 76 76 77 74 83 87 80 73 70 64 59 59 56 50 45 45 48 47 47 45 44 41 38 36 33 28 25 23 20 15 14 15 15 16 20
67 73 77 82 85 88 94 101 97 97 93 82 75 70 67 67 74 73 72 72 73 72 71 66 64 61 58 55 53 52 49 48 47 46 45 43 43 44 42 37 32 29 26 24 21 18 19
59 67 69 74 78 80 83 88 94 95 94 93 85 77 70 66 66 66 67 67 68 69 68 67 65 61 59 58 56 52 50 47 45 44 43 43 40 39 37 37 37 39 38 36 35 33 30
53 58 62 68 69 72 74 78 80 83 85 90 93 81 82 80 70 65 63 62 62 61 60 59 57 56 54 52 49 45 42 40 39 38 36 34 34 33 33 32 32 31 28 27 27 28 30
47 50 55 61 66 65 67 70 73 76 79 80 85 84 87 76 81 73 73 71 66 61 56 54 52 50 48 45 43 42 41 40 38 36 34 32 31 28 26 24 23 22 22 21 20 21 21
41 44 50 49 57 62 59 62 67 70 73 76 75 81 81 78 76 75 74 72 71 67 68 66 61 55 50 46 44 42 40 38 36 34 33 32 31 30 28 26 23 19 17 16 15 15 16
42 38 42 45 50 52 54 53 57 62 65 70 69 72 72 72 75 74 72 76 74 66 68 65 66 63 62 60 58 52 47 41 37 34 33 32 31 29 28 27 25 23 22 20 19 18 16
42 35 37 43 44 47 48 49 48 53 57 59 62 64 68 69 72 71 72 71 71 69 69 69 68 71 67 65 63 61 59 57 54 45 38 35 32 31 30 28 26 24 22 22 22 22 21
41 37 32 40 40 43 38 45 45 42 49 51 55 55 59 59 63 68 66 70 67 68 70 69 71 71 69 67 65 63 63 63 62 58 55 48 41 36 31 31 30 27 26 23 20 19 18
39 35 32 37 39 39 32 39 37 41 38 42 46 49 50 53 56 61 62 61 65 65 66 64 64 66 67 67 68 67 70 71 69 66 64 63 59 44 37 33 29 28 29 28 25 21 21
41 34 32 33 39 37 32 33 31 34 41 37 39 41 44 46 50 51 54 56 56 58 60 61 61 62 64 63 61 63 66 68 72 72 69 67 63 59 47 37 32 30 29 28 29 30 27
39 32 30 31 38 33 35 30 32 31 31 35 37 37 39 43 42 46 49 51 49 49 52 57 55 56 58 58 60 61 65 68 73 69 73 73 70 66 62 60 49 33 36 35 33 32 31

GFSGBSN_250_spd_105.txt.gz
Wind_Speed
76 85 85 80 72 66 50 47 49 45 35 35 41 42 45 57 66 68 72 76 77 83 88 94 84 84 100 99 99 90 84 79 74 74 76 75 79 83 88 92 94 96 98 95 94 92 91
82 90 89 80 73 66 53 44 37 34 31 28 27 30 34 46 56 66 67 69 73 80 87 88 89 84 81 94 95 92 89 83 77 74 73 74 72 75 78 79 81 82 89 94 96 95 95
85 91 91 84 79 72 64 52 39 30 23 21 19 18 26 37 45 55 65 65 65 73 80 84 83 79 81 86 88 94 88 85 80 76 75 74 73 74 78 76 77 78 79 83 90 95 96
86 93 98 92 81 78 71 61 49 36 24 18 11 8 16 23 32 48 57 59 64 67 72 81 79 84 78 73 74 89 87 85 82 78 77 76 75 75 74 75 76 77 78 79 81 82 84
88 93 100 101 87 79 75 67 55 42 30 23 13 4 7 20 33 43 47 57 61 62 68 73 75 74 72 72 65 71 89 86 84 82 79 76 76 74 74 73 74 74 74 77 79 80 82
91 94 102 106 98 87 81 74 62 46 33 24 16 13 12 13 25 32 43 55 58 61 61 64 70 71 72 72 54 56 67 80 81 83 81 78 78 75 74 73 73 72 73 75 76 76 76
104 93 101 108 109 94 89 80 71 56 42 37 28 24 22 20 21 28 35 49 53 56 56 58 63 70 70 58 50 48 48 62 74 85 86 86 83 81 78 75 75 75 79 79 81 80 81
113 93 97 106 112 107 92 89 77 67 52 46 41 37 29 24 24 28 39 48 51 48 49 54 57 60 57 48 51 53 53 55 61 66 75 81 85 82 80 79 80 81 82 83 85 84 83
115 103 94 103 109 114 107 96 90 76 66 60 56 54 44 35 28 26 36 45 47 48 48 47 46 49 53 53 53 53 54 56 59 63 63 69 77 81 85 84 83 82 84 83 85 86 82
116 114 92 98 106 112 115 106 95 89 78 68 60 55 58 49 39 30 29 30 37 41 41 39 39 40 43 46 47 50 53 54 57 60 63 66 71 73 75 79 82 82 81 79 75 67 61
112 114 104 92 99 105 111 111 106 94 89 79 71 60 53 54 50 39 28 23 28 31 36 34 36 36 39 42 44 46 48 49 49 51 52 57 58 61 62 61 64 64 61 60 54 52 51
106 112 118 101 92 98 102 107 109 106 96 88 81 72 62 59 53 48 36 28 24 20 19 21 22 27 29 31 32 32 33 34 35 35 37 38 41 45 50 54 53 53 50 44 43 40 38
97 105 110 113 110 89 94 97 101 106 106 100 87 79 71 64 59 54 48 40 30 26 19 13 11 10 10 14 15 20 23 25 27 29 32 34 37 40 43 41 40 37 33 32 30 28 30
90 96 103 108 110 101 86 90 92 97 103 105 101 88 79 71 65 58 53 48 44 38 34 28 20 14 10 7 6 4 5 8 12 16 20 23 27 26 25 23 22 21 20 21 20 22 22
86 90 98 101 106 105 103 86 87 87 90 95 99 98 94 83 75 67 58 51 48 45 41 37 32 27 22 18 15 12 9 7 7 7 8 7 8 9 12 13 12 11 12 14 15 13 11
78 85 89 94 100 102 105 98 84 85 85 84 87 88 88 89 91 87 75 68 61 55 49 46 41 38 34 30 25 21 18 15 13 11 9 6 5 2 0 1 3 6 5 4 4 4 5
69 77 83 82 89 96 97 100 88 91 87 81 82 79 77 79 84 88 87 82 78 74 70 67 62 57 53 49 45 41 37 34 31 28 25 23 19 15 14 13 15 15 12 9 5 5 8
65 68 76 77 79 85 92 93 92 89 88 85 86 78 71 66 74 79 75 74 73 72 72 70 67 65 63 62 61 59 57 54 52 50 48 45 40 35 30 27 24 22 22 15 13 12 15
58 61 69 70 74 76 81 85 87 90 92 87 87 77 82 76 72 68 66 65 65 64 63 61 60 59 59 58 56 55 53 51 50 48 46 44 42 41 39 36 34 31 28 26 24 22 20
47 54 59 63 68 67 71 76 79 82 88 92 88 85 81 81 79 75 76 71 66 65 62 60 57 55 54 52 51 49 47 45 43 42 40 38 35 33 33 32 31 29 29 29 28 26 25
46 50 52 55 57 61 61 66 70 75 77 82 83 88 87 87 86 83 84 87 78 72 70 69 67 65 64 60 54 49 46 44 42 40 38 35 33 31 29 27 25 24 24 24 23 22 22
44 41 49 50 49 54 55 55 61 64 68 73 72 75 77 80 83 83 86 80 80 81 76 74 78 74 71 71 66 64 61 57 51 45 37 34 33 33 32 29 26 25 23 22 20 20 18
38 35 42 45 45 47 49 51 51 56 60 65 66 66 70 72 73 75 76 77 81 81 79 78 76 79 79 78 75 75 71 67 65 62 59 52 42 34 29 27 26 25 24 22 22 21 20
36 37 34 40 41 39 44 41 46 46 49 54 58 60 62 64 66 69 69 72 73 72 73 72 76 76 76 75 75 77 76 73 73 71 71 68 63 58 45 36 27 25 26 25 25 24 22
32 36 33 34 32 38 38 31 37 39 42 44 47 51 53 55 56 60 62 67 67 67 66 66 67 70 74 70 70 66 69 68 68 70 70 73 67 64 65 51 39 30 27 26 25 25 26
31 29 32 30 31 33 33 30 32 35 37 36 38 42 45 47 48 49 53 55 61 62 63 62 61 60 63 66 65 65 63 66 68 68 67 69 67 69 66 65 58 49 33 29 29 26 26
34 32 31 28 26 27 35 29 28 26 31 32 31 33 37 40 44 43 44 46 50 53 55 56 55 56 57 58 60 58 58 55 58 61 62 62 64 66 68 66 65 56 54 48 40 32 31
37 33 33 35 28 25 29 29 25 26 26 28 33 25 31 33 37 38 37 36 39 42 45 48 48 50 50 52 54 55 53 55 55 58 59 60 60 58 65 67 67 63 58 54 48 45 36
37 28 30 38 27 31 31 29 24 25 23 21 31 26 25 30 31 33 33 33 31 37 38 39 43 42 42 45 47 49 50 52 52 53 56 62 65 61 64 68 66 69 63 61 55 50 48

GFSGBSN_250_spd_108.txt.gz
Wind_Speed
74 82 77 69 70 64 53 36 29 30 27 21 28 38 44 51 54 59 60 65 74 78 79 86 85 85 87 105 106 100 93 89 86 82 83 83 83 85 88 92 94 97 96 95 94 91 90
78 86 80 77 71 64 56 41 34 26 22 18 13 22 33 37 44 50 54 59 66 73 75 80 84 87 85 85 105 103 97 93 88 84 80 77 80 79 80 81 84 92 92 88 93 95 95
82 88 84 76 75 68 64 52 42 31 22 14 9 14 26 32 35 40 49 55 56 62 77 88 90 91 86 84 82 97 101 94 89 85 80 78 79 76 75 73 74 78 85 89 89 88 89
85 90 91 80 75 68 62 58 46 36 29 18 6 4 18 25 27 34 46 53 50 55 67 85 89 92 94 88 72 68 77 92 93 85 83 80 79 74 73 71 71 73 74 75 80 81 80
88 92 96 90 83 76 66 63 51 40 34 24 13 8 10 19 26 38 47 54 53 52 62 75 94 98 95 77 64 59 60 66 79 86 82 80 79 77 74 73 72 72 70 71 71 71 71
105 94 98 97 92 84 71 66 62 48 38 33 25 18 13 13 22 35 43 52 54 52 55 66 84 94 82 70 55 53 56 58 64 81 84 83 80 79 79 77 75 74 73 74 72 71 72
114 99 96 102 100 90 82 72 69 59 46 40 36 30 25 21 23 31 35 46 51 50 58 66 63 77 80 64 45 44 46 53 53 66 83 82 79 78 80 79 78 77 76 75 75 74 75
114 110 96 101 104 101 92 84 77 69 62 50 45 41 34 28 25 28 37 49 49 46 44 49 58 69 63 51 38 43 47 52 53 53 68 77 78 78 80 80 79 79 80 80 79 77 77
112 113 103 96 103 104 104 93 83 77 70 62 54 50 47 37 31 28 33 38 36 39 41 48 55 57 46 41 40 43 48 47 45 43 49 57 67 78 81 79 80 81 83 84 83 82 82
110 107 111 102 96 103 104 102 92 86 77 70 64 55 47 43 33 28 29 27 27 29 33 35 35 35 35 39 41 41 42 42 40 39 40 42 46 53 61 64 68 72 75 77 79 82 83
104 108 107 103 95 95 101 105 103 91 87 77 70 62 56 42 33 26 24 25 27 29 31 34 33 33 33 34 35 35 35 36 37 40 42 44 47 51 55 59 62 63 65 68 68 70 71
97 104 108 107 105 92 92 98 103 102 93 86 76 69 62 58 52 34 24 23 24 24 23 25 26 26 27 28 28 28 31 33 35 38 40 41 43 44 46 49 52 54 56 56 55 57 58
91 95 101 109 100 100 89 90 95 99 100 96 86 78 68 64 60 56 46 35 30 29 21 18 16 14 17 16 18 21 23 26 29 30 31 33 33 36 39 42 43 44 44 44 44 43 43
83 87 92 98 106 97 100 87 86 89 93 96 96 90 82 74 68 60 55 50 48 42 37 30 25 21 17 13 10 11 13 16 19 23 23 26 28 29 29 29 29 30 30 31 33 32 33
75 79 84 90 95 102 105 94 87 81 81 85 88 89 91 90 85 77 70 62 57 51 46 41 36 29 24 19 14 10 6 5 7 9 11 12 13 12 14 15 16 18 21 22 22 23 24
68 72 74 83 85 92 94 101 91 86 78 74 78 79 76 80 83 84 86 85 81 78 74 70 66 61 55 49 43 35 29 24 19 14 9 5 4 3 0 1 3 6 7 9 13 15 14
62 64 67 73 78 82 86 91 94 94 95 85 77 72 69 69 68 74 76 73 72 71 71 69 67 64 61 59 58 57 55 53 50 46 41 36 31 25 21 18 16 15 16 13 9 7 5
56 57 62 62 69 72 79 80 85 87 91 91 84 75 69 63 64 67 63 62 61 60 60 59 58 57 56 55 54 52 51 50 49 48 47 45 43 40 38 36 36 35 32 29 26 24 20
50 51 56 57 58 64 66 72 74 76 81 85 87 86 79 75 72 68 66 62 60 57 57 58 59 57 55 53 50 48 46 45 45 44 42 40 39 37 35 34 33 33 31 30 29 27 26
35 46 46 52 49 54 60 61 68 68 71 75 75 79 80 83 87 87 84 75 69 68 68 69 70 70 70 69 62 57 51 46 41 38 36 34 33 31 30 28 27 27 27 26 25 23 22
35 39 41 46 44 44 52 54 59 61 63 65 70 71 74 75 75 76 80 79 78 82 82 82 80 77 75 78 75 72 70 69 68 62 50 40 33 27 24 23 22 22 22 22 23 25 24
31 33 36 36 41 37 44 48 49 50 55 59 59 62 63 67 69 69 71 74 74 74 76 75 76 74 75 73 74 74 71 70 69 66 62 61 54 47 39 30 24 20 19 18 18 19 22
27 27 29 32 36 35 37 39 44 42 46 48 51 53 55 57 61 63 66 68 66 67 70 70 68 66 66 68 69 67 67 65 66 66 66 67 64 57 54 53 48 40 31 25 22 21 18
26 24 25 26 27 31 37 30 35 38 38 42 43 45 47 49 48 50 55 58 59 59 59 61 63 61 61 60 62 62 63 62 61 58 62 64 62 61 61 59 56 50 45 42 36 31 24
21 24 24 26 18 29 28 28 25 32 30 35 38 38 38 42 41 41 45 49 50 52 53 53 53 54 54 54 53 55 55 55 57 56 56 58 59 60 58 58 56 52 52 47 40 40 36
19 18 22 21 23 26 18 28 24 21 24 27 31 34 35 36 36 34 35 37 42 44 45 48 47 47 46 48 49 49 52 54 53 53 55 58 57 59 58 56 53 51 50 51 49 42 37
27 16 18 17 17 24 18 24 26 20 17 19 27 26 29 31 35 32 30 30 32 33 35 39 42 45 45 44 46 46 48 48 50 52 54 55 56 55 54 55 53 54 52 49 47 47 45
28 22 19 18 16 16 23 22 29 22 18 15 27 24 24 28 29 33 30 28 27 29 29 31 31 34 38 39 40 41 45 45 46 48 47 48 50 52 54 55 56 55 55 56 51 48 45
40 37 33 28 25 26 17 24 29 20 16 16 25 20 22 25 27 28 31 25 27 26 25 29 28 29 31 34 35 38 39 42 41 42 43 44 46 48 51 55 56 56 58 57 56 53 50

GFSGBSN_250_spd_111.txt.gz
Wind_Speed
81 87 88 78 76 65 56 45 33 22 17 20 29 37 41 46 49 53 61 69 85 99 104 98 96 91 97 104 102 98 95 93 92 87 87 87 90 93 92 92 92 91 88 88 89 88 88
84 90 89 76 73 65 58 46 36 21 11 9 13 25 31 33 40 47 55 60 69 84 103 101 91 92 88 79 98 100 98 95 91 91 86 82 81 83 88 89 91 91 93 93 90 91 92
89 93 94 77 73 66 61 49 41 27 18 10 4 12 23 30 35 41 47 61 65 68 85 94 95 94 87 82 81 94 98 94 92 88 87 86 82 80 80 81 83 88 90 93 95 93 93
93 96 100 83 76 69 64 53 45 36 28 19 11 2 11 15 20 26 39 53 61 61 69 82 94 92 89 83 70 75 92 97 93 89 88 86 83 83 84 81 81 81 83 87 86 88 90
100 95 102 92 84 79 70 57 50 44 38 28 21 14 7 10 24 31 37 49 55 51 55 69 89 97 91 79 70 70 69 83 92 94 90 85 83 81 81 80 79 79 79 80 78 81 81
103 97 101 101 90 85 77 65 58 54 51 45 36 27 22 16 15 29 39 46 44 43 49 60 78 88 84 81 76 66 64 58 56 62 81 90 85 84 84 83 81 81 79 80 79 77 78
106 104 97 103 97 91 83 75 64 65 60 53 47 41 32 26 22 28 39 42 43 44 49 60 76 90 86 83 80 61 55 52 50 52 58 74 87 88 86 83 82 79 81 82 81 79 80
106 104 101 99 100 93 86 79 72 65 68 63 53 47 43 35 29 30 37 39 34 35 37 52 64 77 83 75 67 54 52 54 52 47 50 52 56 67 78 87 89 84 81 81 83 80 80
106 107 105 97 100 97 90 82 75 67 64 63 60 54 49 41 33 33 36 33 27 24 27 34 51 62 68 68 45 47 45 48 50 47 46 50 51 50 59 71 77 84 88 86 85 85 85
100 104 106 105 95 98 96 89 81 73 64 60 57 53 50 46 36 31 27 24 18 14 22 26 27 39 31 24 30 34 36 39 44 48 48 47 48 48 50 55 65 79 83 84 86 86 86
97 99 106 105 102 93 95 94 88 81 74 66 55 53 48 45 38 32 28 24 23 21 15 13 15 18 22 29 33 34 37 36 41 44 44 45 46 46 44 47 52 60 69 76 79 80 78
88 93 99 105 101 98 90 90 92 90 80 73 66 57 52 48 45 42 39 36 29 25 25 24 22 21 21 27 37 37 37 35 36 40 43 42 41 40 41 43 46 49 52 56 60 64 66
80 85 90 95 102 99 94 88 85 88 88 82 74 67 60 53 47 43 42 39 37 34 25 22 19 19 20 23 27 29 31 33 35 36 36 37 39 41 44 45 46 47 49 52 52 53 50
71 79 84 87 95 98 99 91 86 80 80 84 86 83 75 66 60 57 52 46 43 37 34 29 24 19 15 13 14 17 21 24 26 29 31 33 34 35 34 36 36 36 37 38 39 40 40
64 71 76 81 85 90 95 95 90 85 79 76 77 79 79 78 76 74 69 64 55 49 43 37 32 26 21 17 11 7 5 6 8 10 11 12 15 16 18 19 20 21 23 20 21 22 22
60 62 70 73 77 82 86 90 97 99 88 81 77 74 70 71 71 71 74 73 71 71 70 67 64 58 52 46 41 35 30 25 21 17 14 12 11 9 6 4 4 5 3 4 5 5 9
52 56 62 66 69 73 75 79 82 86 91 94 87 76 72 67 63 63 68 63 61 60 59 58 57 55 53 51 49 48 46 45 42 40 38 35 34 33 31 30 29 28 27 24 22 20 17
44 46 51 59 60 63 66 69 72 77 80 84 83 89 79 73 73 78 74 66 61 57 55 54 52 50 48 45 44 42 41 38 36 34 32 30 28 27 26 25 25 25 24 22 19 19 20
35 40 42 50 52 55 58 61 65 65 68 72 77 78 81 80 79 77 77 75 70 70 71 72 71 69 69 68 64 57 53 50 46 41 37 33 32 29 27 26 25 24 22 19 19 18 18
33 33 35 42 45 47 52 55 55 58 60 61 65 68 70 72 74 73 72 73 74 74 73 72 72 72 71 70 68 65 63 61 60 59 57 56 53 49 44 40 37 34 32 29 26 23 21
27 29 26 33 37 41 41 46 49 48 51 54 54 56 61 62 62 64 66 67 68 68 68 70 69 69 65 65 65 64 62 61 60 59 59 57 53 52 49 46 45 44 40 34 30 29 28
21 21 22 23 31 33 32 36 38 44 43 45 48 48 49 53 55 57 58 57 58 60 63 62 62 64 61 62 62 62 61 60 60 59 57 54 51 50 50 49 49 47 43 42 39 36 33
15 15 19 17 19 25 32 31 34 31 37 39 38 42 44 43 46 48 49 52 54 54 55 55 57 57 57 56 56 57 56 56 56 55 53 53 52 52 49 46 45 44 44 45 43 38 38
14 11 14 14 16 14 18 26 29 27 26 31 33 34 37 38 40 40 44 44 45 48 48 48 48 50 51 51 49 51 50 50 50 51 51 52 52 51 50 50 51 49 47 43 42 42 41
18 16 14 9 12 14 12 18 21 21 17 24 28 25 30 29 34 34 35 37 38 41 40 40 41 42 43 45 46 44 45 45 45 46 49 48 50 52 52 51 51 52 52 50 48 45 44
20 18 23 17 14 7 13 17 17 22 16 15 21 21 22 26 27 29 29 30 31 33 35 35 35 36 36 39 44 42 40 40 42 44 46 47 48 51 51 48 45 51 52 53 53 55 55
27 21 23 15 18 15 14 5 17 19 16 14 14 18 17 19 20 23 24 25 25 25 29 33 32 33 32 31 37 37 38 37 37 39 40 43 46 48 49 49 50 53 55 54 58 60 60
35 33 29 25 22 23 19 19 13 18 18 18 11 14 21 25 18 18 19 27 21 21 30 28 27 28 32 32 33 35 33 36 37 36 38 41 44 44 45 47 52 53 54 58 60 62 62
45 40 40 39 38 33 30 29 28 20 22 17 18 11 16 26 24 31 23 30 20 21 22 25 29 31 33 30 31 33 31 30 35 38 39 41 44 44 43 48 51 53 53 58 60 64 67

GFSGBSN_250_spd_114.txt.gz
Wind_Speed
88 94 91 82 74 65 59 46 31 23 20 17 23 26 33 44 54 61 74 87 103 100 94 90 93 91 88 87 105 102 100 98 95 94 95 94 93 96 94 89 86 86 85 83 82 83 85
91 98 98 87 77 63 58 49 36 23 16 11 11 16 23 32 40 50 60 73 87 98 100 101 100 94 82 74 92 100 98 96 95 93 91 88 92 92 90 90 89 89 88 87 86 84 83
94 97 104 90 83 68 59 47 39 30 24 13 5 6 9 19 31 40 50 59 70 79 102 105 106 94 81 75 74 93 97 95 94 93 93 94 91 87 84 86 90 90 92 92 90 90 88
100 96 103 96 88 79 63 55 48 42 33 27 19 13 4 8 23 40 51 58 64 69 82 99 99 94 91 80 73 70 85 91 92 92 88 89 89 88 80 77 79 81 83 84 84 87 89
101 96 100 105 90 86 74 63 58 51 44 38 31 26 18 16 19 29 45 53 60 64 68 82 106 102 90 79 73 72 67 73 87 91 89 86 86 85 86 84 79 77 76 76 78 78 82
102 98 98 105 99 90 79 72 65 63 55 47 40 33 26 20 23 28 34 42 49 55 58 67 72 84 82 83 79 72 64 58 64 80 88 86 86 84 83 81 83 84 81 81 80 79 85
106 99 96 100 107 95 85 78 73 71 67 56 50 42 33 26 28 33 34 36 46 50 51 48 58 68 81 80 73 68 67 60 57 59 69 78 84 82 81 79 80 80 81 80 82 80 84
103 104 99 95 101 102 89 81 76 72 69 67 60 51 42 34 30 32 36 38 43 43 40 49 53 58 70 81 77 72 61 57 53 53 56 53 65 79 83 81 80 80 81 81 83 85 86
98 106 108 98 95 100 98 86 80 73 68 66 63 60 54 49 43 39 36 31 27 27 28 29 37 45 54 62 64 60 57 57 54 49 46 45 40 44 52 60 69 78 84 87 87 88 90
92 99 104 108 97 93 97 97 86 80 72 68 65 60 57 53 47 43 40 32 25 23 18 17 25 30 42 50 67 50 49 48 46 42 40 41 40 40 43 45 46 50 54 62 71 77 81
84 90 97 105 104 96 91 94 95 85 77 71 65 60 58 56 53 50 48 45 40 34 27 17 10 6 2 26 40 40 41 38 41 41 40 41 41 42 40 43 47 51 53 56 59 61 64
79 84 91 97 103 103 95 89 89 92 86 76 71 66 60 57 55 53 52 51 49 45 38 34 29 25 20 10 10 23 27 29 30 34 35 35 38 39 41 46 48 50 53 55 54 54 53
73 78 82 89 94 103 101 95 88 84 87 89 80 71 64 58 56 52 52 50 50 46 41 37 33 29 27 27 28 29 35 42 43 38 35 36 37 40 44 47 48 49 51 53 53 54 55
68 72 75 80 85 93 95 102 95 91 83 81 82 82 78 67 61 58 56 55 50 41 37 33 30 26 24 24 28 31 33 35 34 34 35 37 40 43 44 45 46 48 49 45 42 42 42
62 64 70 72 77 80 86 92 96 97 100 89 80 74 74 74 74 72 68 60 54 49 46 42 35 27 21 17 17 19 22 25 25 28 30 31 31 31 30 29 28 27 27 25 25 25 24
54 58 61 66 68 72 75 81 84 87 92 96 95 86 75 69 67 67 72 67 65 63 60 56 51 45 38 31 26 19 15 13 11 10 8 7 7 6 6 7 5 6 6 8 5 2 1
44 51 55 57 61 65 67 69 74 78 81 86 89 88 85 81 80 78 77 65 61 58 57 56 54 52 50 48 45 42 40 37 34 31 29 26 24 22 19 18 18 17 16 16 16 15 14
33 41 46 48 52 56 59 63 64 67 71 74 77 77 78 79 79 83 80 74 75 74 73 74 71 66 63 58 53 48 44 39 36 32 30 27 25 24 24 24 23 21 20 19 18 17 16
24 30 38 41 42 46 50 54 56 60 60 62 65 68 72 73 74 76 75 73 69 69 68 66 65 62 60 58 54 51 49 48 47 45 44 42 41 39 39 39 38 38 37 36 31 26 22
21 22 28 34 37 38 42 42 48 51 53 55 56 58 61 65 63 63 66 67 68 66 65 63 61 60 60 60 59 57 54 51 49 48 47 47 47 47 45 43 44 43 42 39 37 34 35
16 15 23 22 26 30 34 36 37 40 44 47 50 50 51 52 56 57 55 57 59 59 58 59 59 60 60 60 59 58 56 55 56 54 53 52 52 53 54 52 52 52 49 48 45 43 42
18 10 17 16 17 20 28 30 25 32 32 35 39 42 44 44 45 47 49 50 53 53 55 54 52 53 55 54 55 56 54 53 53 53 53 51 52 54 54 53 55 56 56 56 53 53 52
16 14 12 16 15 15 18 20 25 21 27 26 30 32 37 36 37 40 39 42 43 45 47 49 48 48 48 48 48 48 49 50 51 53 52 52 52 50 52 53 52 54 55 57 57 59 58
20 21 15 17 12 16 17 14 17 19 17 21 20 24 26 29 28 29 33 31 35 38 37 37 41 44 44 43 45 44 45 46 47 48 48 47 49 51 50 50 55 51 53 57 56 58 60
21 24 17 16 19 14 12 15 18 17 18 13 16 14 16 22 23 23 28 29 25 30 31 32 33 36 36 41 37 37 37 39 41 43 45 46 48 49 49 50 51 54 53 55 56 60 59
24 20 23 20 22 19 10 13 17 13 15 17 12 12 12 16 21 14 18 26 26 22 27 26 26 29 34 32 35 34 34 37 40 42 40 42 44 44 47 50 49 50 50 51 54 58 58
26 29 29 28 24 19 20 20 16 15 18 14 12 18 10 13 20 19 14 15 24 22 22 20 21 27 27 24 30 28 29 34 37 42 40 41 40 43 43 45 50 53 54 52 54 54 58
36 36 35 34 31 28 24 23 26 22 21 21 20 24 17 15 22 27 23 18 18 18 18 21 19 29 31 24 29 31 25 26 27 31 40 44 42 41 43 44 46 50 52 54 54 56 58
49 48 47 43 41 41 39 37 36 34 34 33 31 33 28 23 29 26 26 24 25 23 21 21 22 25 29 33 28 35 31 39 32 33 39 43 46 43 43 45 47 49 52 53 54 57 58

GFSGBSN_250_spd_117.txt.gz
Wind_Speed
93 92 92 81 71 66 61 49 42 31 19 8 11 25 36 49 61 69 82 96 103 99 93 89 84 86 84 104 104 103 102 102 101 102 99 95 93 90 88 86 84 82 83 81 80 75 76
99 94 99 87 77 70 63 50 41 31 22 11 3 12 23 33 48 58 67 83 95 102 99 91 85 80 75 91 102 98 98 99 99 98 97 97 95 94 89 88 87 85 82 82 79 78 77
101 95 100 95 85 76 69 55 43 33 25 15 8 6 10 22 33 47 59 71 83 92 96 93 88 81 76 73 88 95 94 93 94 94 94 93 96 93 90 89 89 86 84 84 81 80 79
103 97 97 102 91 81 76 65 49 41 32 23 18 13 14 16 28 38 55 65 73 79 89 90 91 87 77 72 69 76 85 90 90 89 87 88 92 93 87 83 84 88 87 87 89 88 89
103 100 96 101 97 87 81 74 62 52 45 37 29 22 17 18 20 34 52 59 61 68 76 90 93 88 80 70 62 64 69 77 86 87 87 86 85 86 87 87 81 77 83 86 87 87 89
105 103 99 98 104 94 85 80 70 60 60 52 43 31 24 25 22 26 35 47 55 61 64 82 91 87 77 66 63 62 60 59 59 65 78 82 81 82 84 84 84 84 82 79 82 85 87
102 108 108 99 99 104 91 83 77 68 64 61 55 45 32 29 26 28 32 38 44 49 62 69 73 74 71 66 65 64 61 55 51 47 55 69 79 81 79 79 81 84 86 86 86 87 88
96 102 111 105 99 100 101 88 83 75 67 66 63 60 50 38 31 26 27 35 43 49 48 54 56 55 56 52 62 65 62 59 54 48 43 48 58 68 74 76 77 78 81 81 82 82 83
90 98 105 111 106 100 99 98 88 80 72 67 62 61 59 53 45 35 27 27 31 35 34 35 40 48 59 52 54 65 65 59 53 46 44 40 39 44 50 55 58 63 71 79 81 82 82
83 92 99 103 111 107 102 98 99 86 79 72 65 61 57 53 51 46 39 34 29 26 24 26 31 36 41 45 46 58 60 54 51 49 46 42 37 35 38 42 45 51 58 66 72 77 80
80 85 91 98 103 108 107 103 96 99 87 79 75 66 62 55 52 53 52 48 44 39 28 23 11 16 24 24 34 42 57 62 56 50 43 41 39 36 36 39 41 43 46 50 54 57 61
73 79 85 90 96 102 106 106 103 96 94 93 80 74 68 65 61 57 54 51 47 47 40 41 33 28 15 18 21 31 40 45 44 41 38 37 37 35 36 38 42 45 47 50 54 55 54
68 74 76 80 87 93 98 102 103 102 97 91 91 86 74 69 65 61 59 54 49 47 39 37 33 30 31 29 28 28 30 33 36 34 32 30 32 35 38 40 45 47 49 48 47 48 50
62 65 71 73 78 83 88 93 97 102 101 97 91 83 81 80 74 66 60 53 49 44 41 39 34 30 26 26 32 35 36 35 31 27 22 27 30 31 35 37 39 42 44 44 44 46 46
52 56 61 68 69 74 79 86 87 90 95 98 97 94 85 76 75 75 73 66 57 51 45 40 34 28 22 18 16 15 17 17 19 19 21 23 24 26 29 32 35 34 30 28 28 27 25
41 47 53 57 61 65 72 73 79 82 84 87 87 90 86 84 81 74 74 65 64 63 59 54 47 38 29 22 17 13 9 7 4 7 12 14 14 11 3 2 6 7 8 11 9 7 5
37 38 43 49 51 55 61 65 68 70 75 76 80 79 78 79 81 82 80 74 71 66 59 59 53 52 50 47 42 37 34 30 27 26 24 22 18 16 15 13 14 14 13 11 11 11 13
26 33 35 38 43 46 49 57 59 65 65 67 69 71 74 74 74 77 75 72 71 69 68 66 64 62 60 57 54 49 46 44 43 42 41 38 37 36 35 34 35 35 35 35 34 34 33
19 25 27 32 33 36 39 43 50 53 57 57 59 61 63 66 71 70 70 69 71 72 70 70 68 68 66 63 61 58 56 55 53 51 51 50 50 50 50 52 54 54 53 54 56 53 49
19 15 21 25 28 32 30 33 36 42 48 49 49 51 52 55 60 63 64 65 63 64 63 63 63 64 63 61 60 59 56 56 56 56 55 55 57 59 57 58 57 56 54 53 53 56 56
14 13 14 21 23 26 25 25 28 30 33 39 43 42 45 44 46 50 54 54 56 56 57 57 56 56 58 58 56 55 55 56 53 53 53 54 52 51 53 52 54 54 53 53 53 54 54
11 14 14 19 21 18 21 20 22 22 24 26 32 36 33 38 39 39 41 43 44 49 50 49 50 47 46 49 53 50 50 50 50 51 49 51 51 53 51 51 53 52 53 52 51 51 53
10 13 13 15 16 14 18 16 20 20 19 19 21 28 32 28 32 35 31 32 35 40 37 40 42 42 43 41 41 44 44 46 47 47 46 46 48 49 49 51 51 52 52 54 54 55 56
15 11 17 13 15 12 17 16 18 15 17 16 15 17 21 26 20 25 31 26 24 27 31 31 35 33 34 32 32 32 34 36 39 42 44 43 42 44 44 45 46 47 48 49 51 51 53
23 15 17 12 12 12 20 21 20 14 13 14 13 14 18 16 21 17 24 23 22 19 23 21 24 31 29 28 28 29 26 31 30 32 34 38 40 39 39 41 42 43 44 45 44 45 49
27 27 26 24 16 18 18 20 19 22 20 15 10 11 17 12 13 25 21 21 21 22 25 20 19 23 25 24 24 31 29 33 36 32 33 33 32 35 40 43 39 41 41 42 43 43 46
36 35 32 29 29 24 26 21 23 26 28 22 22 17 12 15 22 26 25 19 20 18 22 21 20 20 17 18 21 24 23 23 28 31 31 30 32 32 33 36 44 38 41 40 42 42 47
45 41 36 35 35 33 30 29 31 23 24 30 26 21 19 24 26 25 25 27 28 21 23 24 25 27 25 19 21 22 25 26 27 26 25 26 30 37 37 38 36 40 38 41 43 47 48
49 48 50 47 42 44 43 41 39 38 41 37 36 34 32 32 34 34 31 32 28 27 28 34 27 26 24 29 33 38 35 36 40 43 37 36 41 42 45 48 43 44 45 43 45 49 53